[[{"header":{"parameterUnit":"m.s-1","parameterCategory":1,"la1":31.0,"la2":29.5877,"lo1":-88.7671,"lo2":-86.6584,"dy":0.0162,"dx":0.0185,"nx":115,"ny":88,"refTime":"2024-04-05T06:00:00:Z","depth":0,"parameterNumber":2,"parameterNumberName":"U-component_of_WINDS"},"data":[0.0,0.0,0.0,0.0,0.0,0.0,0.0,0.0,0.0,0.0,0.0,0.0,0.0,0.0,0.0,0.0,0.0,0.0,0.0,0.0,0.0,0.0,0.0,0.0,0.0,0.0,0.0,0.0,0.0,0.0,0.0,0.0,0.0,0.0,0.0,0.0,0.0,0.0,0.0,0.0,0.0,0.0,0.0,0.0,0.0,0.0,0.0,0.0,0.0,0.0,0.0,0.0,0.0,0.0,0.0,0.0,0.0,0.0,0.0,0.0,0.0,0.0,0.0,0.0,0.0,0.0,0.0,0.0,0.0,0.0,0.0,0.0,0.0,0.0,0.0,0.0,0.0,0.0,0.0,0.0,0.0,0.0,0.0,0.0,0.0,0.0,0.0,0.0,0.0,0.0,0.0,0.0,0.0,0.0,0.0,0.0,0.0,0.0,0.0,0.0,0.0,0.0,0.0,0.0,0.0,0.0,0.0,0.0,0.0,0.0,0.0,0.0,0.0,0.0,0.0,0.0,0.0,0.0,0.0,0.0,0.0,0.0,0.0,0.0,0.0,0.0,0.0,0.0,0.0,0.0,0.0,0.0,0.0,0.0,0.0,0.0,0.0,0.0,0.0,0.0,0.0,0.0,0.0,0.0,0.0,0.0,0.0,0.0,0.0,0.0,0.0,0.0,0.0,0.0,0.0,0.0,0.0,0.0,0.0,0.0,0.0,0.0,0.0,0.0,0.0,0.0,0.0,0.0,0.0,0.0,0.0,0.0,0.0,0.0,0.0,0.0,0.0,0.0,0.0,0.0,0.0,0.0,0.0,0.0,0.0,0.0,0.0,0.0,0.0,0.0,0.0,0.0,0.0,0.0,0.0,0.0,0.0,0.0,0.0,0.0,0.0,0.0,0.0,0.0,0.0,0.0,0.0,0.0,0.0,0.0,0.0,0.0,0.0,0.0,0.0,0.0,0.0,0.0,0.0,0.0,0.0,0.0,0.0,0.0,0.0,0.0,0.0,0.0,0.0,0.0,0.0,0.0,0.0,0.0,0.0,0.0,0.0,0.0,0.0,0.0,0.0,0.0,0.0,0.0,0.0,0.0,0.0,0.0,0.0,0.0,0.0,0.0,0.0,0.0,0.0,0.0,0.0,0.0,0.0,0.0,0.0,0.0,0.0,0.0,0.0,0.0,0.0,0.0,0.0,0.0,0.0,0.0,0.0,0.0,0.0,0.0,0.0,0.0,0.0,0.0,0.0,0.0,0.0,0.0,0.0,0.0,0.0,0.0,0.0,0.0,0.0,0.0,0.0,0.0,0.0,0.0,0.0,0.0,0.0,0.0,0.0,0.0,0.0,0.0,0.0,0.0,0.0,0.0,0.0,0.0,0.0,0.0,0.0,0.0,0.0,0.0,0.0,0.0,0.0,0.0,0.0,0.0,0.0,0.0,0.0,0.0,0.0,0.0,0.0,0.0,0.0,0.0,0.0,0.0,0.0,0.0,0.0,0.0,0.0,0.0,0.0,0.0,0.0,0.0,0.0,0.0,0.0,0.0,0.0,0.0,0.0,0.0,0.0,0.0,0.0,0.0,0.0,0.0,0.0,0.0,0.0,0.0,0.0,0.0,0.0,0.0,0.0,0.0,0.0,0.0,0.0,0.0,0.0,0.0,0.0,0.0,0.0,0.0,0.0,0.0,0.0,0.0,0.0,0.0,0.0,0.0,0.0,0.0,0.0,0.0,0.0,0.0,0.0,0.0,0.0,0.0,0.0,0.0,0.0,0.0,0.0,0.0,0.0,0.0,0.0,0.0,0.0,0.0,0.0,0.0,0.0,0.0,0.0,0.0,0.0,0.0,0.0,0.0,0.0,0.0,0.0,0.0,0.0,0.0,0.0,0.0,0.0,0.0,0.0,0.0,0.0,0.0,0.0,0.0,0.0,0.0,0.0,0.0,0.0,0.0,0.0,0.0,0.0,0.0,0.0,0.0,0.0,0.0,0.0,0.0,0.0,0.0,0.0,0.0,0.0,0.0,0.0,0.0,0.0,0.0,0.0,0.0,0.0,0.0,0.0,0.0,0.0,0.0,0.0,0.0,0.0,0.0,0.0,0.0,0.0,0.0,0.0,0.0,0.0,0.0,0.0,0.0,0.0,0.0,0.0,0.0,0.0,0.0,0.0,0.0,0.0,0.0,0.0,0.0,0.0,0.0,0.0,0.0,0.0,0.0,0.0,0.0,0.0,0.0,0.0,0.0,0.0,0.0,0.0,0.0,0.0,0.0,0.0,0.0,0.0,0.0,0.0,0.0,0.0,0.0,0.0,0.0,0.0,0.0,0.0,0.0,0.0,0.0,0.0,0.0,0.0,0.0,0.0,0.0,0.0,0.0,0.0,0.0,0.0,0.0,0.0,0.0,0.0,0.0,0.0,0.0,0.0,0.0,0.0,0.0,0.0,0.0,0.0,0.0,0.0,0.0,0.0,0.0,0.0,0.0,0.0,0.0,0.0,0.0,0.0,0.0,0.0,0.0,0.0,0.0,0.0,0.0,0.0,0.0,0.0,0.0,0.0,0.0,0.0,0.0,0.0,0.0,0.0,0.0,0.0,0.0,0.0,0.0,0.0,0.0,0.0,0.0,0.0,0.0,0.0,0.0,0.0,0.0,0.0,0.0,0.0,0.0,0.0,0.0,0.0,0.0,0.0,0.0,0.0,0.0,0.0,0.0,0.0,0.0,0.0,0.0,0.0,0.0,0.0,0.0,0.0,0.0,0.0,0.0,0.0,0.0,0.0,0.0,0.0,0.0,0.0,0.0,0.0,0.0,0.0,0.0,0.0,0.0,0.0,0.0,0.0,0.0,0.0,0.0,0.0,0.0,0.0,0.0,0.0,0.0,0.0,0.0,0.0,0.0,0.0,0.0,0.0,0.0,0.0,0.0,0.0,0.0,0.0,0.0,0.0,0.0,0.0,0.0,0.0,0.0,0.0,0.0,0.0,0.0,0.0,0.0,0.0,0.0,0.0,0.0,0.0,0.0,0.0,0.0,0.0,0.0,0.0,0.0,0.0,0.0,0.0,0.0,0.0,0.0,0.0,0.0,0.0,0.0,0.0,0.0,0.0,0.0,0.0,0.0,0.0,0.0,0.0,0.0,0.0,0.0,0.0,0.0,0.0,0.0,0.0,0.0,0.0,0.0,0.0,0.0,0.0,0.0,0.0,0.0,0.0,0.0,0.0,0.0,0.0,0.0,0.0,0.0,0.0,0.0,0.0,0.0,0.0,0.0,0.0,0.0,0.0,0.0,0.0,0.0,0.0,0.0,0.0,0.0,0.0,0.0,0.0,0.0,0.0,0.0,0.0,0.0,0.0,0.0,0.0,0.0,0.0,0.0,0.0,0.0,0.0,0.0,0.0,0.0,0.0,0.0,0.0,0.0,0.0,0.0,0.0,0.0,0.0,0.0,0.0,0.0,0.0,0.0,0.0,0.0,0.0,0.0,0.0,0.0,0.0,0.0,0.0,0.0,0.0,0.0,0.0,0.0,0.0,0.0,0.0,0.0,0.0,0.0,0.0,0.0,0.0,0.0,0.0,0.0,0.0,0.0,0.0,0.0,0.0,0.0,0.0,0.0,0.0,0.0,0.0,0.0,0.0,0.0,0.0,0.0,0.0,0.0,0.0,0.0,0.0,0.0,0.0,0.0,0.0,0.0,0.0,0.0,0.0,0.0,0.0,0.0,0.0,0.0,0.0,0.0,0.0,0.0,0.0,0.0,0.0,0.0,0.0,0.0,0.0,0.0,0.0,0.0,0.0,0.0,0.0,0.0,0.0,0.0,0.0,0.0,0.0,0.0,0.0,0.0,0.0,0.0,0.0,0.0,0.0,0.0,0.0,0.0,0.0,0.0,0.0,0.0,0.0,0.0,0.0,0.0,0.0,0.0,0.0,0.0,0.0,0.0,0.0,0.0,0.0,0.0,0.0,0.0,0.0,0.0,0.0,0.0,0.0,0.0,0.0,0.0,0.0,0.0,0.0,0.0,0.0,0.0,0.0,0.0,0.0,0.0,0.0,0.0,0.0,0.0,0.0,0.0,0.0,0.0,0.0,0.0,0.0,0.0,0.0,0.0,0.0,0.0,0.0,0.0,0.0,0.0,0.0,0.0,0.0,0.0,0.0,0.0,0.0,0.0,0.0,0.0,0.0,0.0,0.0,0.0,0.0,0.0,0.0,0.0,0.0,0.0,0.0,0.0,0.0,0.0,0.0,0.0,0.0,0.0,0.0,0.0,0.0,0.0,1.5641,0.0,0.0,0.0,0.0,0.0,0.0,0.0,0.0,0.0,0.0,0.0,0.0,0.0,0.0,0.0,0.0,0.0,0.0,0.0,0.0,0.0,0.0,0.0,0.0,0.0,0.0,0.0,0.0,0.0,0.0,0.0,0.0,0.0,0.0,0.0,0.0,0.0,0.0,0.0,0.0,0.0,0.0,0.0,0.0,0.0,0.0,0.0,0.0,0.0,0.0,0.0,0.0,0.0,0.0,0.0,0.0,0.0,0.0,0.0,0.0,0.0,0.0,0.0,0.0,0.0,0.0,0.0,0.0,0.0,0.0,0.0,0.0,0.0,0.0,0.0,0.0,0.0,0.0,0.0,0.0,0.0,0.0,0.0,0.0,0.0,0.0,0.0,0.0,0.0,0.0,0.0,0.0,0.0,0.0,0.0,0.0,0.0,0.0,0.0,0.0,0.0,0.0,0.0,0.0,0.0,0.0,0.0,0.0,0.0,0.0,1.8403,1.7905,1.7483,1.6845,1.5992,0.0,0.0,0.0,0.0,0.0,0.0,0.0,0.0,0.0,0.0,0.0,0.0,0.0,0.0,0.0,0.0,0.0,0.0,0.0,0.0,0.0,0.0,0.0,0.0,0.0,0.0,0.0,0.0,0.0,0.0,0.0,0.0,0.0,0.0,0.0,0.0,0.0,0.0,0.0,0.0,0.0,0.0,0.0,0.0,0.0,0.0,0.0,0.0,0.0,0.0,0.0,0.0,0.0,0.0,0.0,0.0,0.0,0.0,0.0,0.0,0.0,0.0,0.0,0.0,0.0,0.0,0.0,0.0,0.0,0.0,0.0,0.0,0.0,0.0,0.0,0.0,0.0,0.0,0.0,0.0,0.0,0.0,0.0,0.0,0.0,0.0,0.0,0.0,0.0,0.0,0.0,0.0,0.0,0.0,0.0,0.0,0.0,0.0,0.0,0.0,0.0,0.0,0.0,0.0,0.0,0.0,0.0,0.0,0.0,0.0,0.0,0.0,1.8084,1.7436,1.6152,0.0,0.0,0.0,0.0,0.0,0.0,0.0,0.0,0.0,0.0,0.0,0.0,0.0,0.0,0.0,0.0,0.0,0.0,0.0,0.0,0.0,0.0,0.0,0.0,0.0,0.0,0.0,0.0,0.0,0.0,0.0,0.0,0.0,0.0,0.0,0.0,0.0,0.0,0.0,0.0,0.0,0.0,0.0,0.0,0.0,0.0,0.0,0.0,0.0,0.0,0.0,0.0,0.0,0.0,0.0,0.0,0.0,0.0,0.0,0.0,0.0,0.0,0.0,0.0,0.0,0.0,0.0,0.0,0.0,0.0,0.0,0.0,0.0,0.0,0.0,0.0,0.0,0.0,0.0,0.0,0.0,0.0,0.0,0.0,0.0,0.0,0.0,0.0,0.0,0.0,0.0,0.0,0.0,0.0,0.0,0.0,0.0,0.0,0.0,0.0,0.0,0.0,0.0,0.0,0.0,0.0,0.0,0.0,0.0,0.0,1.8948,1.8823,1.8735,0.0,1.711,0.0,0.0,0.0,0.0,0.0,0.0,0.0,0.0,0.0,0.0,0.0,0.0,0.0,0.0,0.0,0.0,0.0,0.0,0.0,0.0,0.0,0.0,0.0,0.0,0.0,0.0,0.0,0.0,0.0,0.0,0.0,0.0,0.0,0.0,0.0,0.0,0.0,0.0,0.0,0.0,0.0,0.0,0.0,0.0,0.0,0.0,0.0,0.0,0.0,0.0,0.0,0.0,0.0,0.0,0.0,0.0,0.0,0.0,0.0,0.0,0.0,0.0,0.0,0.0,0.0,0.0,0.0,0.0,0.0,0.0,0.0,0.0,0.0,0.0,0.0,0.0,0.0,0.0,0.0,0.0,0.0,0.0,0.0,0.0,0.0,0.0,0.0,0.0,0.0,0.0,0.0,0.0,0.0,0.0,0.0,0.0,0.0,0.0,0.0,0.0,0.0,0.0,0.0,0.0,0.0,0.0,0.0,0.0,0.0,0.0,1.8861,1.8843,1.845,1.7885,0.0,0.0,0.0,0.0,0.0,0.0,0.0,0.0,0.0,0.0,0.0,0.0,0.0,0.0,0.0,0.0,0.0,0.0,0.0,0.0,0.0,0.0,0.0,0.0,0.0,0.0,0.0,0.0,0.0,0.0,0.0,0.0,0.0,0.0,0.0,0.0,0.0,0.0,0.0,0.0,0.0,0.0,0.0,0.0,0.0,0.0,0.0,0.0,0.0,0.0,0.0,0.0,0.0,0.0,0.0,0.0,0.0,0.0,0.0,0.0,0.0,0.0,0.0,0.0,0.0,0.0,0.0,0.0,0.0,0.0,0.0,0.0,0.0,0.0,0.0,0.0,0.0,0.0,0.0,0.0,0.0,0.0,0.0,0.0,0.0,0.0,0.0,0.0,0.0,0.0,0.0,0.0,0.0,0.0,0.0,0.0,0.0,0.0,0.0,0.0,0.0,0.0,0.0,0.0,0.0,0.0,0.0,0.0,0.0,0.0,1.8769,1.8714,1.8639,1.8069,1.7505,1.7044,0.0,0.0,0.0,0.0,0.0,0.0,0.0,0.0,0.0,0.0,0.0,0.0,0.0,0.0,0.0,0.0,0.0,0.0,0.0,0.0,0.0,0.0,0.0,0.0,0.0,0.0,0.0,0.0,0.0,0.0,0.0,0.0,0.0,0.0,0.0,0.0,0.0,0.0,0.0,0.0,0.0,0.0,0.0,0.0,0.0,0.0,0.0,0.0,0.0,0.0,0.0,0.0,0.0,0.0,0.0,0.0,0.0,0.0,0.0,0.0,0.0,0.0,0.0,0.0,0.0,0.0,0.0,0.0,0.0,0.0,0.0,0.0,0.0,0.0,0.0,0.0,0.0,0.0,0.0,0.0,0.0,0.0,0.0,0.0,0.0,0.0,0.0,0.0,0.0,0.0,0.0,0.0,0.0,0.0,0.0,0.0,0.0,0.0,0.0,0.0,0.0,0.0,0.0,0.0,0.0,0.0,0.0,0.0,1.8622,1.8635,1.852,1.8383,1.7866,1.7368,0.0,0.0,0.0,0.0,0.0,0.0,0.0,0.0,0.0,0.0,0.0,0.0,0.0,0.0,0.0,0.0,0.0,0.0,0.0,0.0,0.0,0.0,0.0,0.0,0.0,0.0,0.0,0.0,0.0,0.0,0.0,0.0,0.0,0.0,0.0,0.0,0.0,0.0,0.0,0.0,0.0,0.0,0.0,0.0,0.0,0.0,0.0,0.0,0.0,0.0,0.0,0.0,0.0,0.0,0.0,0.0,0.0,0.0,0.0,0.0,0.0,0.0,0.0,0.0,0.0,0.0,0.0,0.0,0.0,0.0,0.0,0.0,0.0,0.0,0.0,0.0,0.0,0.0,0.0,0.0,0.0,0.0,0.0,0.0,0.0,0.0,0.0,0.0,0.0,0.0,0.0,0.0,0.0,0.0,0.0,0.0,0.0,0.0,0.0,0.0,0.0,0.0,0.0,0.0,0.0,0.0,0.0,0.0,0.0,1.9046,1.9565,1.9675,1.9378,1.8646,1.7896,0.0,0.0,0.0,0.0,0.0,0.0,0.0,0.0,0.0,0.0,0.0,0.0,0.0,0.0,0.0,0.0,0.0,0.0,0.0,0.0,0.0,0.0,0.0,0.0,0.0,0.0,0.0,0.0,0.0,0.0,0.0,0.0,0.0,0.0,0.0,0.0,0.0,0.0,0.0,0.0,0.0,0.0,0.0,0.0,0.0,0.0,0.0,0.0,0.0,0.0,0.0,0.0,0.0,0.0,0.0,0.0,0.0,0.0,0.0,0.0,0.0,0.0,0.0,0.0,0.0,0.0,0.0,0.0,0.0,0.0,0.0,0.0,0.0,0.0,0.0,0.0,0.0,0.0,0.0,0.0,0.0,0.0,0.0,0.0,0.0,0.0,0.0,0.0,0.0,0.0,0.0,0.0,0.0,0.0,0.0,0.0,0.0,0.0,0.0,0.0,0.0,0.0,0.0,0.0,0.0,0.0,0.0,0.0,0.0,1.9516,0.0,2.0201,1.9807,1.9124,1.8254,0.0,0.0,0.0,0.0,0.0,0.0,0.0,0.0,0.0,0.0,0.0,0.0,0.0,0.0,0.0,0.0,0.0,0.0,0.0,0.0,0.0,0.0,0.0,0.0,0.0,0.0,0.0,0.0,0.0,0.0,0.0,0.0,0.0,0.0,0.0,0.0,0.0,0.0,0.0,0.0,0.0,0.0,0.0,0.0,0.0,0.0,0.0,0.0,0.0,0.0,0.0,0.0,0.0,0.0,0.0,0.0,0.0,0.0,0.0,0.0,0.0,0.0,0.0,0.0,0.0,0.0,0.0,0.0,0.0,0.0,0.0,0.0,0.0,0.0,0.0,0.0,0.0,0.0,0.0,0.0,0.0,0.0,0.0,0.0,0.0,0.0,0.0,0.0,0.0,0.0,0.0,0.0,0.0,0.0,0.0,0.0,0.0,0.0,0.0,0.0,0.0,0.0,0.0,0.0,0.0,0.0,0.0,0.0,1.9391,1.9984,2.0179,2.0051,1.9465,1.9232,1.8435,0.0,0.0,0.0,0.0,0.0,0.0,0.0,0.0,0.0,0.0,0.0,0.0,0.0,0.0,0.0,0.0,0.0,0.0,0.0,0.0,0.0,0.0,0.0,0.0,0.0,0.0,0.0,0.0,0.0,0.0,0.0,0.0,0.0,0.0,0.0,0.0,0.0,0.0,0.0,0.0,0.0,0.0,0.0,0.0,0.0,0.0,0.0,0.0,0.0,0.0,0.0,0.0,0.0,0.0,0.0,0.0,0.0,0.0,0.0,0.0,0.0,0.0,0.0,0.0,0.0,0.0,0.0,0.0,0.0,0.0,0.0,0.0,0.0,0.0,0.0,0.0,0.0,0.0,0.0,0.0,0.0,0.0,0.0,0.0,0.0,0.0,0.0,0.0,0.0,0.0,0.0,0.0,0.0,0.0,0.0,0.0,0.0,0.0,0.0,0.0,0.0,0.0,0.0,0.0,0.0,0.0,0.0,0.0,0.0,2.0914,2.1189,2.1183,2.0893,2.0075,1.8992,0.0,0.0,0.0,0.0,0.0,0.0,0.0,0.0,0.0,0.0,0.0,0.0,0.0,0.0,0.0,0.0,0.0,0.0,0.0,0.0,0.0,0.0,0.0,0.0,0.0,0.0,0.0,0.0,0.0,0.0,0.0,0.0,0.0,0.0,0.0,0.0,0.0,0.0,0.0,0.0,0.0,0.0,0.0,0.0,0.0,0.0,0.0,0.0,0.0,0.0,0.0,0.0,0.0,0.0,0.0,0.0,0.0,0.0,0.0,0.0,0.0,0.0,0.0,0.0,0.0,0.0,0.0,0.0,0.0,0.0,0.0,0.0,0.0,0.0,0.0,0.0,0.0,0.0,0.0,0.0,0.0,0.0,0.0,0.0,0.0,0.0,0.0,0.0,0.0,0.0,0.0,0.0,0.0,0.0,0.0,0.0,0.0,0.0,0.0,0.0,0.0,0.0,0.0,0.0,0.0,0.0,0.0,0.0,0.0,2.2514,2.2205,2.2014,2.1925,2.0764,1.9479,1.8147,0.0,0.0,0.0,0.0,0.0,0.0,0.0,0.0,0.0,0.0,0.0,0.0,0.0,0.0,0.0,0.0,0.0,0.0,0.0,0.0,0.0,0.0,0.0,0.0,0.0,0.0,0.0,0.0,0.0,0.0,0.0,0.0,0.0,0.0,0.0,0.0,0.0,0.0,0.0,0.0,0.0,0.0,0.0,0.0,0.0,0.0,0.0,0.0,0.0,0.0,0.0,0.0,0.0,0.0,0.0,0.0,0.0,0.0,0.0,0.0,0.0,0.0,0.0,0.0,0.0,0.0,0.0,0.0,0.0,0.0,0.0,0.0,0.0,0.0,0.0,0.0,0.0,0.0,0.0,0.0,0.0,0.0,0.0,0.0,0.0,0.0,0.0,0.0,0.0,0.0,0.0,0.0,0.0,0.0,0.0,0.0,0.0,0.0,0.0,0.0,0.0,0.0,0.0,0.0,0.0,0.0,0.0,0.0,2.4686,2.3386,2.2668,2.2557,2.1297,1.9851,0.0,0.0,0.0,0.0,0.0,0.0,0.0,0.0,0.0,0.0,0.0,0.0,0.0,0.0,0.0,0.0,0.0,0.0,0.0,0.0,0.0,0.0,0.0,0.0,0.0,0.0,0.0,0.0,0.0,0.0,0.0,0.0,0.0,0.0,0.0,0.0,0.0,0.0,0.0,0.0,0.0,0.0,0.0,0.0,0.0,0.0,0.0,0.0,0.0,0.0,0.0,0.0,0.0,0.0,0.0,0.0,0.0,0.0,0.0,0.0,0.0,0.0,0.0,0.0,0.0,0.0,0.0,0.0,0.0,0.0,0.0,0.0,0.0,0.0,0.0,0.0,0.0,0.0,0.0,0.0,0.0,0.0,0.0,0.0,0.0,0.0,0.0,0.0,0.0,0.0,0.0,0.0,0.0,0.0,0.0,0.0,0.0,0.0,0.0,0.0,0.0,0.0,0.0,0.0,0.0,0.0,0.0,0.0,0.0,2.5894,2.5423,2.452,2.3322,2.1819,2.0223,0.0,0.0,0.0,0.0,0.0,0.0,0.0,0.0,0.0,0.0,0.0,0.0,0.0,0.0,0.0,0.0,0.0,0.0,0.0,0.0,0.0,0.0,0.0,0.0,0.0,0.0,0.0,0.0,0.0,0.0,0.0,0.0,0.0,0.0,0.0,0.0,0.0,0.0,0.0,0.0,0.0,0.0,0.0,0.0,0.0,0.0,0.0,0.0,0.0,0.0,0.0,0.0,0.0,0.0,0.0,0.0,0.0,0.0,0.0,0.0,0.0,0.0,0.0,0.0,0.0,0.0,0.0,0.0,0.0,0.0,0.0,0.0,0.0,0.0,0.0,0.0,0.0,0.0,0.0,0.0,0.0,0.0,0.0,0.0,0.0,0.0,0.0,0.0,0.0,0.0,0.0,0.0,0.0,0.0,0.0,0.0,0.0,0.0,0.0,0.0,0.0,0.0,0.0,0.0,0.0,0.0,0.0,0.0,2.5778,2.6806,2.687,2.6323,2.4997,2.3035,2.1158,0.0,0.0,0.0,0.0,0.0,0.0,0.0,0.0,0.0,0.0,0.0,0.0,0.0,0.0,0.0,0.0,0.0,0.0,0.0,0.0,0.0,0.0,0.0,0.0,0.0,0.0,0.0,0.0,0.0,0.0,0.0,0.0,0.0,0.0,0.0,0.0,0.0,0.0,0.0,0.0,0.0,0.0,0.0,0.0,0.0,0.0,0.0,0.0,0.0,0.0,0.0,0.0,0.0,0.0,0.0,0.0,0.0,0.0,0.0,0.0,0.0,0.0,0.0,0.0,0.0,0.0,0.0,0.0,0.0,0.0,0.0,0.0,0.0,0.0,0.0,0.0,0.0,0.0,0.0,0.0,0.0,0.0,0.0,0.0,0.0,0.0,0.0,0.0,0.0,0.0,0.0,0.0,0.0,0.0,0.0,0.0,0.0,0.0,0.0,0.0,0.0,0.0,0.0,0.0,0.0,0.0,0.0,0.0,2.7055,2.7428,2.7998,2.7906,2.6958,2.4523,2.2339,0.0,0.0,0.0,0.0,0.0,0.0,0.0,0.0,0.0,0.0,0.0,0.0,0.0,0.0,0.0,0.0,0.0,0.0,0.0,0.0,0.0,0.0,0.0,0.0,0.0,0.0,0.0,0.0,0.0,0.0,0.0,0.0,0.0,0.0,0.0,0.0,0.0,0.0,0.0,0.0,0.0,0.0,0.0,0.0,0.0,0.0,0.0,0.0,0.0,0.0,0.0,0.0,0.0,0.0,0.0,0.0,0.0,0.0,0.0,0.0,0.0,0.0,0.0,0.0,0.0,0.0,0.0,0.0,0.0,0.0,0.0,0.0,0.0,0.0,0.0,0.0,0.0,0.0,0.0,0.0,0.0,0.0,0.0,0.0,0.0,0.0,0.0,0.0,0.0,0.0,0.0,0.0,0.0,0.0,0.0,0.0,0.0,0.0,0.0,0.0,0.0,0.0,0.0,0.0,0.0,0.0,0.0,0.0,2.7399,2.8406,2.8866,2.8578,2.7419,2.5172,2.293,0.0,0.0,0.0,0.0,0.0,0.0,0.0,0.0,0.0,0.0,0.0,0.0,0.0,0.0,0.0,0.0,0.0,0.0,0.0,0.0,0.0,0.0,0.0,0.0,0.0,0.0,0.0,0.0,0.0,0.0,0.0,0.0,0.0,0.0,0.0,0.0,0.0,0.0,0.0,0.0,0.0,0.0,0.0,0.0,0.0,0.0,0.0,0.0,2.0411,0.0,0.0,0.0,0.0,0.0,0.0,0.0,0.0,0.0,0.0,0.0,0.0,0.0,0.0,0.0,0.0,0.0,0.0,0.0,0.0,0.0,0.0,0.0,0.0,0.0,0.0,0.0,0.0,0.0,0.0,0.0,0.0,0.0,0.0,0.0,0.0,0.0,0.0,0.0,0.0,0.0,0.0,0.0,0.0,0.0,0.0,0.0,0.0,0.0,0.0,0.0,0.0,0.0,0.0,0.0,0.0,0.0,0.0,0.0,2.7924,2.904,2.9574,2.9339,2.8177,2.6455,2.4243,0.0,0.0,0.0,0.0,0.0,0.0,0.0,0.0,0.0,0.0,0.0,0.0,0.0,0.0,0.0,0.0,0.0,0.0,0.0,0.0,0.0,0.0,0.0,0.0,0.0,0.0,0.0,0.0,0.0,0.0,0.0,0.0,0.0,0.0,0.0,0.0,0.0,0.0,0.0,0.0,0.0,0.0,0.0,0.0,0.0,0.0,0.0,0.0,0.0,0.0,0.0,0.0,0.0,0.0,0.0,0.0,0.0,0.0,0.0,0.0,0.0,0.0,0.0,0.0,0.0,0.0,0.0,0.0,0.0,0.0,0.0,0.0,0.0,0.0,0.0,0.0,0.0,0.0,0.0,0.0,0.0,0.0,0.0,0.0,0.0,0.0,0.0,0.0,0.0,0.0,0.0,0.0,0.0,0.0,0.0,0.0,0.0,0.0,0.0,0.0,0.0,0.0,0.0,0.0,0.0,0.0,0.0,2.7344,2.8462,2.9398,3.0041,2.9872,2.885,2.7703,2.5642,2.2658,0.0,0.0,0.0,0.0,0.0,0.0,0.0,0.0,0.0,0.0,0.0,0.0,0.0,0.0,0.0,0.0,0.0,0.0,0.0,0.0,0.0,0.0,0.0,0.0,0.0,0.0,0.0,0.0,0.0,0.0,0.0,0.0,0.0,0.0,0.0,0.0,0.0,0.0,1.8508,2.0628,0.0,0.0,0.0,0.0,0.0,0.0,0.0,0.0,2.4404,0.0,0.0,0.0,0.0,0.0,0.0,0.0,0.0,0.0,0.0,0.0,0.0,0.0,0.0,0.0,0.0,0.0,0.0,0.0,0.0,0.0,0.0,0.0,0.0,0.0,0.0,0.0,0.0,0.0,0.0,0.0,0.0,0.0,0.0,0.0,0.0,0.0,0.0,0.0,0.0,0.0,0.0,0.0,0.0,0.0,0.0,0.0,0.0,0.0,0.0,0.0,0.0,0.0,0.0,0.0,0.0,2.6499,2.734,2.8357,2.9598,2.9796,2.9503,2.8699,2.7829,2.6184,2.3644,0.0,0.0,0.0,0.0,0.0,0.0,0.0,0.0,0.0,0.0,0.0,0.0,0.0,0.0,0.0,0.0,0.0,0.0,0.0,0.0,0.0,0.0,0.0,0.0,0.0,0.0,0.0,0.0,0.0,0.0,0.0,0.0,0.0,0.0,0.0,0.0,0.0,0.0,0.0,2.1228,2.217,0.0,0.0,0.0,0.0,0.0,0.0,0.0,0.0,2.3835,0.0,0.0,0.0,0.0,0.0,0.0,0.0,0.0,0.0,0.0,0.0,0.0,0.0,0.0,0.0,0.0,0.0,0.0,0.0,0.0,0.0,0.0,0.0,0.0,0.0,0.0,0.0,0.0,0.0,0.0,0.0,0.0,0.0,0.0,0.0,0.0,0.0,0.0,0.0,0.0,0.0,0.0,0.0,0.0,0.0,0.0,0.0,0.0,0.0,0.0,0.0,0.0,0.0,0.0,0.0,2.6969,2.7838,2.8886,3.0406,3.0555,3.0265,2.9468,2.8445,2.6736,0.0,0.0,0.0,0.0,0.0,0.0,0.0,0.0,0.0,0.0,0.0,0.0,0.0,0.0,0.0,0.0,0.0,0.0,0.0,0.0,0.0,0.0,0.0,0.0,0.0,0.0,0.0,0.0,0.0,0.0,0.0,0.0,0.0,0.0,0.0,0.0,0.0,0.0,0.0,0.0,2.349,2.4498,2.498,0.0,0.0,0.0,0.0,0.0,0.0,2.6217,2.5782,0.0,0.0,0.0,0.0,0.0,0.0,0.0,0.0,0.0,0.0,0.0,0.0,0.0,0.0,0.0,0.0,0.0,0.0,0.0,0.0,0.0,0.0,0.0,0.0,0.0,0.0,0.0,0.0,0.0,0.0,0.0,0.0,0.0,0.0,0.0,0.0,0.0,0.0,0.0,0.0,0.0,0.0,0.0,0.0,0.0,0.0,0.0,0.0,0.0,0.0,0.0,0.0,0.0,0.0,0.0,2.752,2.8324,2.9516,3.0902,3.1191,3.0973,3.0183,2.8741,2.6959,0.0,0.0,0.0,0.0,0.0,0.0,0.0,0.0,0.0,0.0,0.0,0.0,0.0,0.0,0.0,0.0,0.0,0.0,0.0,0.0,0.0,0.0,0.0,0.0,0.0,0.0,0.0,0.0,0.0,0.0,0.0,0.0,0.0,0.0,0.0,0.0,0.0,0.0,0.0,0.0,0.0,2.6661,2.6647,2.7996,0.0,0.0,0.0,0.0,2.8428,2.8433,0.0,0.0,0.0,0.0,0.0,0.0,0.0,0.0,0.0,0.0,0.0,0.0,0.0,0.0,0.0,0.0,0.0,0.0,0.0,0.0,0.0,0.0,0.0,0.0,0.0,0.0,0.0,0.0,0.0,0.0,0.0,0.0,0.0,0.0,0.0,0.0,0.0,0.0,0.0,0.0,0.0,0.0,0.0,0.0,0.0,0.0,0.0,0.0,0.0,0.0,0.0,0.0,0.0,0.0,0.0,0.0,2.7633,2.8725,2.9633,3.0294,3.0879,3.0647,2.9687,2.8222,2.6557,0.0,0.0,0.0,0.0,0.0,0.0,0.0,0.0,0.0,0.0,0.0,0.0,0.0,0.0,0.0,0.0,0.0,0.0,0.0,0.0,0.0,0.0,0.0,0.0,0.0,0.0,0.0,0.0,0.0,0.0,0.0,0.0,0.0,0.0,0.0,0.0,0.0,0.0,0.0,0.0,0.0,2.6567,2.7083,2.8271,2.8846,0.0,0.0,3.0064,2.9957,3.0339,0.0,0.0,0.0,0.0,0.0,0.0,0.0,0.0,0.0,0.0,0.0,0.0,0.0,0.0,0.0,0.0,0.0,0.0,0.0,0.0,0.0,0.0,0.0,0.0,0.0,0.0,0.0,0.0,0.0,0.0,0.0,0.0,0.0,0.0,0.0,0.0,0.0,0.0,0.0,0.0,0.0,0.0,0.0,0.0,0.0,0.0,0.0,0.0,0.0,0.0,0.0,0.0,0.0,0.0,0.0,2.6143,2.7576,2.8981,3.0072,3.0897,3.1561,3.1257,3.0056,2.8518,2.6712,0.0,0.0,0.0,0.0,0.0,0.0,0.0,0.0,0.0,0.0,0.0,0.0,0.0,0.0,0.0,0.0,0.0,0.0,0.0,0.0,0.0,0.0,0.0,0.0,0.0,0.0,0.0,0.0,0.0,0.0,0.0,0.0,0.0,0.0,0.0,0.0,0.0,0.0,0.0,0.0,0.0,0.0,2.8591,3.0476,0.0,0.0,0.0,3.1894,3.1695,0.0,0.0,0.0,0.0,0.0,0.0,0.0,0.0,0.0,0.0,0.0,0.0,0.0,0.0,0.0,0.0,0.0,0.0,0.0,0.0,0.0,0.0,0.0,0.0,0.0,0.0,0.0,0.0,0.0,0.0,0.0,0.0,0.0,0.0,0.0,0.0,0.0,0.0,0.0,0.0,0.0,0.0,0.0,0.0,0.0,0.0,0.0,0.0,0.0,0.0,0.0,0.0,0.0,0.0,0.0,0.0,0.0,2.7838,2.9444,3.0658,3.1369,3.2019,3.1687,3.0337,2.8796,0.0,0.0,0.0,0.0,0.0,0.0,0.0,0.0,0.0,0.0,0.0,0.0,0.0,0.0,0.0,0.0,0.0,0.0,0.0,0.0,0.0,0.0,0.0,0.0,0.0,0.0,0.0,1.6792,0.0,0.0,0.0,0.0,0.0,0.0,0.0,0.0,0.0,0.0,0.0,0.0,0.0,0.0,3.1099,3.0503,3.2545,3.3654,0.0,0.0,3.3867,3.3525,3.2944,3.2315,0.0,0.0,0.0,0.0,0.0,0.0,0.0,0.0,0.0,0.0,0.0,0.0,0.0,0.0,0.0,0.0,0.0,0.0,0.0,0.0,0.0,0.0,0.0,0.0,0.0,0.0,0.0,0.0,0.0,0.0,0.0,0.0,0.0,0.0,0.0,0.0,0.0,0.0,0.0,0.0,0.0,0.0,0.0,0.0,0.0,0.0,0.0,0.0,0.0,0.0,0.0,0.0,0.0,0.0,0.0,2.8694,3.0262,3.1114,3.1247,3.1758,3.1428,3.011,2.8457,2.6846,0.0,0.0,0.0,0.0,0.0,0.0,0.0,0.0,0.0,0.0,0.0,0.0,0.0,0.0,0.0,0.0,0.0,0.0,0.0,0.0,0.0,0.0,0.0,0.0,0.0,0.0,0.0,0.0,0.0,0.0,0.0,0.0,0.0,0.0,0.0,0.0,0.0,0.0,0.0,0.0,0.0,3.2237,3.2554,3.3795,3.4758,0.0,0.0,3.603,3.5428,3.6307,3.5968,3.2691,0.0,0.0,0.0,0.0,0.0,0.0,0.0,0.0,0.0,0.0,0.0,0.0,0.0,0.0,0.0,0.0,0.0,0.0,0.0,0.0,0.0,0.0,0.0,0.0,0.0,0.0,0.0,0.0,0.0,0.0,0.0,0.0,0.0,0.0,0.0,0.0,0.0,0.0,0.0,0.0,0.0,0.0,0.0,0.0,0.0,0.0,0.0,0.0,0.0,0.0,0.0,0.0,0.0,2.7815,2.8955,3.0302,3.1196,3.1535,3.1741,3.1399,3.0591,2.888,2.7267,0.0,0.0,0.0,0.0,0.0,0.0,0.0,0.0,0.0,0.0,0.0,0.0,0.0,0.0,0.0,0.0,0.0,0.0,0.0,0.0,0.0,0.0,0.0,0.0,0.0,0.0,0.0,0.0,1.8299,1.8397,1.9364,0.0,0.0,0.0,0.0,0.0,0.0,0.0,0.0,0.0,0.0,3.3774,3.4388,3.5902,0.0,0.0,3.732,3.764,3.74,3.6549,3.5706,3.4805,3.3096,0.0,0.0,0.0,0.0,0.0,0.0,0.0,0.0,0.0,0.0,0.0,0.0,0.0,0.0,0.0,0.0,0.0,0.0,0.0,0.0,0.0,0.0,0.0,0.0,0.0,0.0,0.0,0.0,0.0,0.0,0.0,0.0,0.0,0.0,0.0,0.0,0.0,0.0,0.0,0.0,0.0,0.0,0.0,0.0,0.0,0.0,0.0,0.0,0.0,0.0,0.0,0.0,2.833,2.932,3.0721,3.1541,3.1913,3.1812,3.14,3.0793,2.9089,2.7638,0.0,0.0,0.0,0.0,0.0,0.0,0.0,0.0,0.0,0.0,0.0,0.0,0.0,0.0,0.0,0.0,0.0,0.0,0.0,0.0,0.0,0.0,0.0,0.0,0.0,0.0,0.0,0.0,1.9515,1.9749,2.0269,0.0,0.0,0.0,0.0,0.0,0.0,0.0,0.0,0.0,0.0,3.5353,3.6183,3.7489,3.8365,3.8284,3.8482,3.8659,3.8662,3.7292,3.6204,3.61,0.0,0.0,0.0,0.0,0.0,0.0,0.0,0.0,0.0,0.0,0.0,0.0,0.0,0.0,0.0,0.0,0.0,0.0,0.0,0.0,0.0,0.0,0.0,0.0,0.0,0.0,0.0,0.0,0.0,0.0,0.0,0.0,0.0,0.0,0.0,0.0,0.0,0.0,0.0,0.0,0.0,0.0,0.0,0.0,0.0,0.0,0.0,0.0,0.0,0.0,0.0,0.0,0.0,2.9499,3.0213,3.161,3.2454,3.2478,3.1988,3.1298,3.0482,2.9089,2.7894,2.7015,0.0,0.0,0.0,0.0,0.0,0.0,0.0,0.0,0.0,0.0,0.0,0.0,0.0,0.0,0.0,0.0,0.0,0.0,0.0,0.0,0.0,0.0,0.0,0.0,0.0,0.0,2.0273,2.1194,2.1499,0.0,0.0,0.0,0.0,0.0,0.0,0.0,0.0,0.0,0.0,3.5316,3.7033,3.8004,3.8196,3.8721,3.9753,3.9395,3.9023,3.907,3.8948,3.8182,0.0,0.0,0.0,0.0,0.0,0.0,0.0,0.0,0.0,0.0,0.0,0.0,0.0,0.0,0.0,0.0,0.0,0.0,0.0,0.0,0.0,0.0,0.0,0.0,0.0,0.0,0.0,0.0,1.795,0.0,0.0,0.0,0.0,0.0,0.0,0.0,0.0,0.0,0.0,0.0,2.4725,2.4644,0.0,0.0,0.0,0.0,0.0,0.0,0.0,0.0,0.0,0.0,0.0,0.0,2.9327,3.0198,3.1758,3.2385,3.223,3.1889,3.1457,3.1015,2.9504,2.7854,2.6104,0.0,0.0,0.0,0.0,0.0,0.0,0.0,0.0,0.0,0.0,0.0,0.0,0.0,0.0,0.0,0.0,0.0,0.0,0.0,0.0,0.0,0.0,0.0,0.0,0.0,2.1137,0.0,0.0,0.0,0.0,0.0,0.0,0.0,0.0,0.0,0.0,0.0,3.1928,3.4166,3.5765,3.7177,3.853,3.9501,4.0217,0.0,0.0,0.0,0.0,0.0,0.0,0.0,0.0,0.0,0.0,0.0,0.0,0.0,0.0,3.6103,3.3822,3.3306,3.3206,3.3288,0.0,0.0,0.0,0.0,0.0,0.0,0.0,0.0,0.0,0.0,0.0,0.0,0.0,0.0,0.0,0.0,1.9772,0.0,0.0,0.0,0.0,0.0,0.0,0.0,0.0,2.5009,2.5704,2.6177,2.6275,2.6494,0.0,2.6716,2.6493,0.0,0.0,0.0,0.0,0.0,0.0,0.0,0.0,2.941,3.0445,3.1832,3.2442,3.2248,3.1852,3.1598,3.1226,2.9738,2.803,2.6368,2.591,2.5059,0.0,0.0,0.0,0.0,0.0,0.0,0.0,0.0,0.0,0.0,0.0,0.0,0.0,0.0,0.0,0.0,0.0,0.0,0.0,0.0,0.0,0.0,0.0,2.2823,0.0,0.0,0.0,0.0,0.0,0.0,0.0,0.0,0.0,3.0072,3.1507,3.3351,3.557,3.6748,3.7941,3.9355,0.0,0.0,0.0,0.0,0.0,0.0,0.0,4.0091,3.9429,3.8477,3.8127,3.891,3.9168,3.9462,4.0075,0.0,0.0,3.6253,3.5737,3.5752,3.5808,3.6749,3.7562,3.7562,3.8531,3.9345,0.0,0.0,0.0,0.0,0.0,0.0,0.0,0.0,2.075,2.0952,0.0,2.1442,0.0,0.0,0.0,0.0,0.0,0.0,0.0,0.0,2.5946,2.6307,2.654,2.7408,2.7615,2.717,2.8527,2.8982,2.8633,2.7257,0.0,0.0,0.0,0.0,0.0,0.0,2.9896,3.0985,3.1949,3.2489,3.25,3.1999,3.1555,3.1208,2.9817,2.8608,2.7778,2.687,2.6146,2.5584,2.4398,0.0,0.0,0.0,0.0,0.0,0.0,0.0,0.0,0.0,0.0,0.0,0.0,0.0,0.0,0.0,0.0,0.0,0.0,0.0,0.0,2.3217,0.0,0.0,0.0,0.0,0.0,0.0,0.0,0.0,0.0,0.0,3.2602,3.3724,3.5299,3.7429,0.0,0.0,0.0,0.0,4.0934,4.1445,4.1489,4.1534,4.1504,4.1489,4.125,4.0606,0.0,0.0,4.1016,4.067,4.0738,4.1689,4.1541,4.0876,3.9977,3.9596,3.9532,3.9672,4.0213,4.0849,4.1055,4.1454,4.2076,2.3258,0.0,0.0,0.0,0.0,2.2133,2.2776,2.4212,2.3888,2.3735,2.3771,2.3696,0.0,0.0,0.0,0.0,0.0,0.0,2.6073,2.6443,2.7133,2.785,2.8532,2.8664,2.8837,2.9149,2.9385,2.9473,2.9429,2.9518,2.9237,2.8469,0.0,0.0,0.0,0.0,3.0227,3.0718,3.1854,3.2343,3.2096,3.1894,3.1116,3.009,2.9513,2.8678,2.7459,2.7186,2.6597,2.5524,2.5177,0.0,0.0,0.0,0.0,0.0,0.0,0.0,0.0,0.0,0.0,0.0,0.0,0.0,0.0,0.0,0.0,0.0,0.0,0.0,2.4714,2.4972,2.5362,0.0,0.0,0.0,0.0,0.0,0.0,0.0,0.0,0.0,3.5789,3.5534,3.6118,0.0,0.0,3.9691,4.098,4.1955,4.2629,4.2761,0.0,0.0,0.0,4.3464,4.3254,4.2596,4.2724,4.297,4.3122,4.3257,4.3479,4.3753,4.3704,4.3484,4.318,4.1741,4.0786,4.0905,4.144,4.1996,4.2208,4.3146,4.3987,2.5896,2.4925,2.3448,2.338,2.4219,2.4042,2.4796,2.6086,2.5825,2.5779,2.5841,2.5561,2.4979,2.4126,2.4068,0.0,0.0,0.0,2.7088,2.7558,2.7946,2.8551,2.9279,2.9556,2.9828,3.0046,3.0607,3.078,3.0589,3.1155,3.102,3.0267,0.0,0.0,2.969,3.0004,3.0365,3.0854,3.1627,3.2018,3.1801,3.175,3.1131,3.0067,2.9873,2.9209,2.8109,2.7833,2.7196,2.6298,2.5988,2.5312,0.0,0.0,0.0,0.0,0.0,0.0,0.0,0.0,0.0,0.0,0.0,2.3285,0.0,0.0,0.0,0.0,2.559,2.5892,2.6429,2.6583,0.0,0.0,0.0,0.0,0.0,0.0,0.0,3.3096,3.4655,3.6282,3.7958,3.7764,3.8123,3.9963,4.0427,4.0965,4.2013,0.0,4.3808,4.4062,4.4781,4.5155,4.4766,4.4706,4.4571,4.4182,4.4349,4.4523,4.4603,4.4825,4.4983,4.5061,4.5154,4.5154,4.5139,4.3927,4.2963,4.3034,4.3584,4.4086,4.4441,4.5252,4.5965,2.8282,2.8709,2.6352,2.5188,2.5095,2.5704,2.6327,2.6993,2.7014,2.7283,2.7639,2.7009,2.6451,2.5939,2.6204,0.0,0.0,2.7379,2.8136,2.8752,2.8481,2.8655,2.9126,3.025,3.0543,3.0215,3.1782,3.2383,3.1911,3.2104,3.2115,3.1867,3.0515,3.0142,3.0535,3.0319,3.0559,3.1285,3.1534,3.1662,3.1629,3.1618,3.1378,3.0843,3.0428,2.9921,2.9279,2.8466,2.7883,2.7498,2.6886,2.6166,2.5445,0.0,0.0,0.0,0.0,0.0,0.0,0.0,0.0,0.0,0.0,0.0,0.0,0.0,0.0,0.0,2.6738,0.0,2.7712,2.8241,0.0,0.0,0.0,3.0899,3.1631,3.2811,3.4173,3.5504,0.0,0.0,0.0,0.0,4.0876,4.1534,4.2087,4.2701,4.3389,4.4062,4.4691,4.5259,4.5439,4.5469,4.5529,4.5514,4.5499,4.5454,4.5424,4.55,4.5634,4.5559,4.5686,4.5804,4.5864,4.593,4.5946,4.5763,4.5875,4.5679,4.602,4.6557,4.6842,4.7415,4.7738,2.8859,2.9049,2.839,2.808,2.7927,2.7151,2.7574,2.8717,2.8727,2.8742,2.8891,2.8667,2.8084,2.7169,2.7631,2.7735,2.7575,2.8499,2.8977,2.9213,2.9445,2.985,3.0307,3.0631,3.085,3.11,3.1944,3.2298,3.2382,3.2721,3.2711,3.236,3.1833,3.1359,3.0986,3.123,3.1284,3.1262,3.1635,3.1793,3.164,3.1618,3.1225,3.0395,3.0264,2.9576,2.8368,2.8072,2.7789,2.7347,2.7092,2.6686,2.6265,2.5729,0.0,0.0,0.0,0.0,0.0,0.0,0.0,0.0,0.0,2.5952,2.6823,0.0,2.8527,0.0,2.8916,2.9478,3.0327,3.0406,0.0,0.0,3.156,3.2168,3.3449,3.4312,3.5389,3.6806,3.8123,3.9439,4.0756,4.1908,4.288,4.3509,4.3314,4.3524,4.4646,4.5409,4.5888,4.6082,4.6486,4.683,4.677,4.683,4.68,4.683,4.6481,4.6334,4.6403,4.6033,4.5879,4.5895,4.5879,4.5961,4.6153,4.6203,4.6386,4.6762,4.6726,4.6624,4.6919,4.7762,4.8388,2.9545,2.9678,2.9089,2.9017,2.9043,2.8396,2.8621,2.9421,2.9579,2.986,3.0223,3.0013,2.944,2.8713,2.9161,2.9268,2.9208,2.9901,3.0222,3.0243,3.0491,3.075,3.0998,3.1195,3.1433,3.1681,3.2201,3.2506,3.2617,3.2848,3.2738,3.2606,3.2506,3.2253,3.1856,3.1794,3.1795,3.1645,3.1814,3.1917,3.1957,3.1531,3.095,3.0339,3.0003,2.9426,2.8527,2.8185,2.7876,2.7584,2.7397,2.7151,2.6783,2.6769,2.6611,0.0,0.0,0.0,0.0,0.0,0.0,0.0,0.0,0.0,0.0,0.0,2.9551,0.0,3.0201,0.0,3.1231,3.1973,3.2499,3.2871,3.3465,3.415,3.4875,3.6126,3.7287,3.8072,3.9563,4.0949,4.2132,4.3135,4.4137,4.5065,4.4885,4.493,4.5633,4.6322,4.6756,4.6785,4.707,4.7309,4.7309,4.7309,4.7309,4.7279,4.7081,4.6911,4.6911,4.678,4.669,4.669,4.6773,4.6841,4.7006,4.7021,4.7159,4.747,4.7512,4.7446,4.7608,4.8289,4.8872,2.9966,3.0178,2.9134,2.9046,2.9264,2.9437,2.9558,2.9708,2.9886,3.0549,3.1302,3.0967,3.0543,3.0201,3.0594,3.0781,3.0812,3.1247,3.1433,3.1381,3.1433,3.1454,3.1485,3.1868,3.2075,3.2147,3.254,3.2727,3.2727,3.2727,3.2727,3.2727,3.2727,3.2727,3.2696,3.2152,3.2043,3.2176,3.2062,3.2122,3.2372,3.152,3.0795,3.04,2.9873,2.9428,2.9106,2.8495,2.8195,2.8154,2.7843,2.7538,2.7284,2.7711,2.7814,0.0,2.7549,0.0,0.0,0.0,0.0,0.0,0.0,0.0,0.0,3.0244,3.0392,3.0338,3.1194,3.1834,3.1846,3.3298,3.421,3.4105,3.5421,3.6339,3.6281,3.8026,3.9297,3.9446,4.105,4.2465,4.328,4.4092,4.5065,4.6022,4.6292,4.6352,4.6486,4.692,4.7249,4.7309,4.7309,4.7309,4.7309,4.7309,4.7309,4.7294,4.7351,4.7396,4.7336,4.7508,4.7593,4.7679,4.7789,4.7888,4.8049,4.8003,4.8019,4.8072,4.821,4.8263,4.8429,4.8856,4.9315,2.9803,2.943,2.9292,2.9275,2.9292,2.9524,2.9947,3.0401,3.0127,3.0616,3.1533,3.1323,3.1195,3.1122,3.1205,3.1247,3.1278,3.1712,3.1723,3.1391,3.1754,3.1909,3.1919,3.2002,3.224,3.2592,3.2696,3.2727,3.2727,3.2727,3.2727,3.2727,3.2727,3.2727,3.2716,0.0,0.0,0.0,3.2414,3.2318,3.1963,3.1852,3.1192,2.999,3.0141,0.0,2.916,2.9208,2.908,2.8862,2.8453,0.0,0.0,0.0,0.0,0.0,0.0,0.0,0.0,0.0,0.0,0.0,3.1267,3.1268,3.0579,3.1327,3.21,3.2539,3.3227,3.403,3.4994,3.5424,3.5753,3.6032,3.6816,3.7476,3.793,3.9003,4.0052,4.1362,4.241,4.331,4.4047,4.5185,4.5992,4.6277,4.6785,4.71,4.71,4.7204,4.7309,4.7309,4.7309,4.7309,4.7309,4.7309,4.7396,4.7467,4.7553,4.7639,4.7794,4.788,4.788,4.788,4.798,4.8034,4.8202,4.8202,4.8286,4.8469,4.8537,4.8537,4.8385,4.8733,4.9011,2.9778,0.0,2.9393,2.9307,0.0,2.9483,2.9935,3.0474,3.0491,3.0969,3.1767,3.1889,3.1789,3.1585,3.1809,3.1809,3.183,3.2158,3.2261,3.2064,3.2282,3.2375,3.2385,3.2385,3.2613,3.3037,3.283,3.2851,3.3027,3.2955,3.2841,3.2737,3.2955,3.3069,3.2965,3.2955,3.2954,3.2826,3.2795,3.2651,3.262,3.2036,3.1333,3.054,0.0,0.0,0.0,0.0,0.0,0.0,0.0,0.0,0.0,0.0,0.0,3.0115,3.0696,3.1112,3.1265,3.1666,3.199,3.2117,3.2573,3.2657,3.1976,3.2814,3.3429,3.3587,3.4093,3.4724,3.5492,3.612,3.6816,3.7521,3.8209,3.8854,3.9408,4.0206,4.0993,4.1597,4.245,4.3263,4.408,4.4773,4.5603,4.6217,4.6591,4.695,4.7234,4.7309,4.7309,4.7309,4.7309,4.7294,4.7381,4.7482,4.7553,4.7709,4.7794,4.788,4.7964,4.8049,4.8118,4.8118,4.8202,4.837,4.8453,4.8453,4.8453,4.8521,4.8604,4.8604,4.8453,4.8635,4.8924,2.9975,2.977,2.9521,2.9376,2.9307,2.9307,2.97,3.0298,0.0,0.0,0.0,3.2325,3.2361,3.2019,3.217,3.237,3.236,3.2529,3.2612,3.2612,3.2727,3.2727,3.2727,3.2727,3.2954,3.3348,3.3016,3.3068,3.3589,3.3487,3.3267,3.309,3.36,3.3713,3.3422,3.3224,3.3193,3.3296,3.313,3.3108,3.3211,3.2412,3.1685,3.1273,3.0773,3.0307,2.9925,3.0144,2.9844,2.9148,2.9941,2.9963,2.9092,3.0723,3.1663,3.1524,3.267,3.3225,3.2921,3.3313,3.3498,3.3397,3.3712,3.3742,3.3431,3.4135,3.4416,3.4095,3.456,3.5086,3.5353,3.6382,3.7395,3.8359,3.9226,3.9959,4.0357,4.1127,4.1558,4.1551,4.2335,4.3057,4.3767,4.4251,4.4848,4.5923,4.6267,4.6476,4.713,4.7309,4.7309,4.7309,4.7396,4.7396,4.7553,4.7639,4.7794,4.7949,4.8034,4.8049,4.8133,4.8202,4.837,4.837,4.8537,4.8537,4.8604,4.8604,4.8604,4.8604,4.8604,4.8604,4.8604,4.8604,4.8773,3.0283,2.941,2.9701,2.9616,2.9307,2.9307,2.97,3.0446,3.1523,3.1836,3.1696,3.2654,3.2974,3.2904,3.2512,3.2341,3.2438,3.2306,3.2363,0.0,3.2612,3.2727,3.2727,3.2727,3.2954,3.3348,3.3317,3.364,3.44,3.4379,3.4275,3.418,3.4625,3.4604,3.4095,3.3246,3.3069,3.3512,3.3561,3.3338,3.2923,3.3061,3.2587,3.1348,3.1592,3.1219,3.0443,3.0231,3.0219,3.0267,2.9839,2.9627,2.9898,3.0664,3.1174,3.1599,3.2064,3.262,3.343,3.3548,3.3933,3.4698,3.4832,3.462,3.3883,3.4367,3.4706,3.4733,3.5303,3.5734,3.617,3.683,3.7487,3.8023,3.9035,3.9853,4.0242,4.0922,4.1544,4.1612,4.2621,4.3221,4.3451,4.4074,4.4887,4.5728,4.6181,4.639,4.7043,4.7309,4.7309,4.7309,4.7467,4.7553,4.7624,4.7794,4.7964,4.8202,4.8286,4.8286,4.8438,4.8537,4.8537,4.8521,4.8521,4.8604,4.8604,4.8604,4.8604,4.8604,4.8604,4.8604,4.8604,4.8604,4.865,3.0583,2.9967,3.0112,2.9847,2.9307,2.9307,2.9438,2.9813,3.08,3.1388,3.1779,3.2254,3.2236,3.2017,3.2177,3.1968,3.1612,3.2352,3.2605,3.2625,3.2977,3.3217,3.3217,3.2983,3.3207,3.3615,3.3391,3.3741,3.4612,3.4543,3.4656,3.4699,3.4667,3.4493,3.4022,3.3236,3.3018,3.3465,3.3487,3.3631,3.354,3.3604,3.3269,3.2618,3.2336,3.1956,3.1522,3.1135,3.0943,3.0804,3.1224,3.1332,3.0976,3.2313,3.3046,3.289,3.3654,3.4089,3.4045,3.4332,3.4787,3.5538,3.5845,3.5985,3.5859,3.5818,3.594,3.6252,3.6551,3.6866,3.7262,3.7606,3.8048,3.8971,3.9603,4.0124,4.0743,4.1112,4.1381,4.1578,4.2031,4.2455,4.265,4.3245,4.4083,4.5238,4.6036,4.6864,4.7249,4.7309,4.7309,4.7309,4.7467,4.7639,4.7794,4.8049,4.8202,4.8453,4.8438,4.8537,4.8604,4.8604,4.8604,4.8604,4.8604,4.8604,4.8604,4.8604,4.8604,4.8604,4.8604,4.8604,4.8604,4.8604,4.8604,3.0589,3.0165,3.025,2.986,2.9181,2.9172,2.9138,2.9185,2.97,3.0579,3.1463,3.1696,3.1569,3.1347,3.1725,3.174,3.1348,3.2245,3.271,3.2859,3.3302,3.3465,3.3465,3.3225,3.3337,3.3699,3.3417,3.3841,3.4807,3.4888,3.5079,3.551,3.4869,3.4436,3.4294,3.3609,3.329,3.3537,3.3658,3.3861,3.4076,3.4042,3.3912,3.3748,3.3104,3.2656,3.2525,3.2055,3.1658,3.1459,3.248,3.273,3.2288,3.3918,3.4678,3.4287,3.5186,3.5509,3.492,3.5221,3.5654,3.6066,3.6564,3.7043,3.7506,3.7213,3.7134,3.7473,3.7473,3.7572,3.7895,3.8116,3.8573,3.955,3.9817,4.0154,4.0944,4.1043,4.1128,4.1213,4.1465,4.1717,4.1883,4.2295,4.3263,4.4867,4.6301,4.7264,4.7309,4.7309,4.7294,4.7381,4.7553,4.7794,4.8049,4.8218,4.837,4.8604,4.8604,4.8604,4.8604,4.8604,4.8604,4.8604,4.8604,4.8604,4.8604,4.8604,4.8604,4.8604,4.8604,4.8604,4.8702,4.8718,4.862,2.9988,2.9459,2.9846,2.9556,2.8942,2.8892,2.8835,2.8832,2.8939,2.9578,3.054,3.1442,3.2035,3.2194,3.195,3.1846,3.2017,3.2114,3.2322,3.2684,3.2965,3.3115,3.3155,3.3135,3.3347,3.3739,3.3739,3.4422,3.5673,3.5774,3.6263,3.6893,3.5983,3.5464,3.5555,3.4683,3.4172,3.4357,3.4177,3.4086,3.4086,3.4267,3.425,3.3814,3.3715,3.3453,3.3016,3.2558,3.2575,3.2936,3.273,3.2804,3.341,3.4108,3.4648,3.4997,3.5467,3.5781,3.594,3.5992,3.6131,3.6392,3.6744,3.7184,3.7927,3.8187,3.8016,3.7731,3.7582,3.7623,3.7582,3.8102,3.8528,3.8737,3.9147,3.959,4.0069,4.0083,4.0257,4.0716,4.1128,4.1396,4.1564,4.2107,4.3181,4.4703,4.6162,4.707,4.71,4.7174,4.7276,4.7508,4.7779,4.8034,4.8202,4.8453,4.8537,4.8604,4.8604,4.8604,4.8604,4.8604,4.8604,4.8604,4.8604,4.8604,4.8604,4.8604,4.8604,4.8687,4.8687,4.8702,4.8898,4.8996,4.8883,3.0144,2.9715,3.0062,2.993,2.9435,2.8997,2.8867,2.8852,2.8635,2.8922,2.943,3.0083,3.0726,3.141,3.1486,3.1415,3.1437,3.1741,3.2273,3.2672,3.2897,3.3149,3.351,3.3396,3.3371,3.3529,3.3539,3.4252,3.551,3.6412,3.6881,3.685,3.6199,3.5626,3.5065,3.4464,3.4119,3.4119,3.3987,3.4018,3.4267,3.4412,3.4425,3.4218,3.3956,3.3715,3.3486,3.3038,3.3104,3.3619,3.3743,3.3985,3.4292,3.5037,3.5449,3.5398,3.5762,3.6022,3.6109,3.6423,3.6734,3.7025,3.7595,3.8065,3.8532,3.8762,3.883,3.864,3.8586,3.8586,3.8572,3.8817,3.8939,3.8966,3.9169,3.9482,3.9922,4.0009,4.017,4.0616,4.0873,4.1128,4.1551,4.2466,4.3469,4.4489,4.549,4.6157,4.6157,4.6456,4.6881,4.7181,4.7691,4.8019,4.8286,4.8438,4.8604,4.8604,4.8604,4.8604,4.8604,4.8604,4.8604,4.8604,4.8604,4.8702,4.88,4.88,4.8883,4.8949,4.9015,4.9031,4.9128,4.921,4.9128,3.0001,2.9813,3.005,2.9944,2.956,2.8946,2.8627,2.8623,2.8286,2.8378,2.8642,2.8922,2.9544,3.0346,3.0819,3.0908,3.0821,3.1313,3.1948,3.2488,3.266,3.3038,3.3544,3.3544,3.3418,3.3418,3.3408,3.4037,3.5428,3.6767,3.721,3.6926,3.6633,3.6047,3.5109,3.4777,3.4463,3.4229,3.4076,3.4229,3.4633,3.4589,3.4524,3.4491,3.4185,3.3999,3.3988,3.365,3.3788,3.4432,3.4713,3.4901,3.5242,3.5977,3.6339,3.6354,3.647,3.6671,3.6815,3.709,3.735,3.7569,3.8209,3.8679,3.8832,3.9114,3.9305,3.9278,3.9305,3.9278,3.9305,3.9305,3.9305,3.9305,3.9305,3.9469,3.9922,4.0009,4.017,4.0616,4.0773,4.1029,4.1719,4.2723,4.3758,4.4258,4.49,4.5289,4.5334,4.5822,4.6274,4.6637,4.7334,4.7874,4.8309,4.8537,4.8604,4.8604,4.8604,4.8604,4.8604,4.8604,4.8604,4.8604,4.862,4.8718,4.8898,4.898,4.9144,4.921,4.9275,4.9356,4.9372,4.9356,4.9437,2.9282,2.9409,2.929,2.9242,2.8882,2.8491,2.8293,2.8275,2.787,2.799,2.8263,2.8395,2.8782,2.9387,3.0039,3.0576,3.0798,3.0927,3.1313,3.1954,3.2266,3.2549,3.2912,3.3301,3.3418,3.3418,3.3418,3.4047,3.5418,3.6767,3.7363,3.733,3.7298,3.7079,3.6489,3.6042,3.5638,3.507,3.472,3.4698,3.5037,3.4731,3.4556,3.4524,3.4491,3.4447,3.4458,3.4458,3.4748,3.5617,3.5101,3.519,3.6177,3.6368,3.6963,3.8168,3.8017,3.8031,3.837,3.8083,3.7848,3.7939,3.8304,3.8615,3.8692,3.9038,3.9305,3.9305,3.9305,3.9305,3.9305,3.9305,3.9305,3.9305,3.9305,3.9469,3.9908,3.9996,4.0257,4.0602,4.0845,4.1269,4.216,4.2948,4.3543,4.4199,4.484,4.52,4.514,4.5425,4.5867,4.6173,4.6762,4.7635,4.8352,4.862,4.8604,4.8604,4.8604,4.8589,4.8604,4.8604,4.8604,4.8604,4.88,4.8898,4.898,4.9144,4.9291,4.9356,4.9356,4.9437,4.9597,4.9613,4.9677,2.9298,2.9298,2.9298,2.9218,2.9043,2.8471,2.8146,2.8132,2.7573,2.7459,2.76,2.7857,2.8246,2.8659,2.9193,2.9848,3.049,3.0629,3.087,3.1635,3.1882,3.2403,3.2912,3.3301,3.3418,3.3418,3.3418,3.4047,3.5418,3.629,3.7021,3.7374,3.7374,3.7156,3.6752,3.6522,3.6042,3.531,3.5332,3.5244,3.4862,3.4895,3.4829,3.4545,3.4524,3.4524,3.4524,3.4524,3.4847,3.5511,3.5586,3.5758,3.5936,3.6518,3.7438,3.8496,3.8893,3.8919,3.8723,3.854,3.8253,3.7939,3.8344,3.8615,3.8706,3.9051,3.9305,3.9319,3.9319,3.9305,3.9305,3.9305,3.9305,3.9305,3.9305,3.9407,3.976,3.9922,4.0097,4.0457,4.0773,4.1339,4.198,4.25,4.296,4.3603,4.4257,4.4451,4.4377,4.5169,4.5973,4.5718,4.6397,4.7298,4.7234,4.8158,4.8604,4.8604,4.8604,4.8558,4.8543,4.8527,4.8512,4.8496,4.8708,4.9062,4.9225,4.9452,4.9597,4.9597,4.9597,4.9677,4.9757,4.9836,5.001,2.9298,2.9298,2.9298,2.9298,2.921,2.8535,2.8297,2.8289,2.7558,2.7264,2.7335,2.7515,2.7849,2.8263,2.8535,2.9193,3.01,3.023,3.062,3.1258,3.1625,3.2147,3.2667,3.3048,3.3292,3.3418,3.367,3.4298,3.5294,3.6044,3.6778,3.7374,3.7374,3.7232,3.6948,3.6784,3.6326,3.5834,3.5889,3.5627,3.5081,3.5124,3.507,3.4775,3.46,3.4524,3.4524,3.4524,3.4858,3.5609,3.5922,3.6003,3.5974,3.6702,3.7559,3.8359,3.8812,3.8972,3.8736,3.854,3.8292,3.7952,3.8253,3.8552,3.8815,3.9056,3.9311,3.9495,3.9386,3.9305,3.9305,3.9305,3.9305,3.9305,3.9305,3.9407,3.9686,3.9848,4.0097,4.0443,4.0688,4.117,4.1757,4.2117,4.2541,4.3076,4.3817,4.4018,4.3813,4.4851,4.5783,4.5084,4.5871,4.6398,4.6573,4.7157,4.7635,4.7711,4.7865,4.8019,4.8173,4.8219,4.8327,4.844,4.8712,4.9081,4.9468,4.9693,4.9836,4.9916,4.9995,4.9995,5.0089,5.0246,5.0324,2.9298,2.9298,2.9298,2.9298,2.9202,2.8567,2.8448,2.8527,2.7685,2.7463,2.7621,2.7391,2.7696,2.8171,2.8511,2.8964,2.9874,3.0014,3.0378,3.1,3.1377,3.1763,3.2412,3.2794,3.3175,3.3418,3.4047,3.4673,3.5418,3.6044,3.6656,3.7253,3.7374,3.7352,3.7352,3.6959,3.6708,3.6522,3.6227,3.5954,3.5889,3.543,3.5168,3.5081,3.4731,3.4524,3.4524,3.4524,3.5069,3.6002,3.5853,3.5793,3.6329,3.681,3.7341,3.7877,3.8013,3.8292,3.8606,3.8279,3.807,3.7926,3.8175,3.8568,3.9082,3.9167,3.9267,3.9807,3.9576,3.9305,3.9305,3.9305,3.9305,3.9305,3.9305,3.9407,3.9598,3.9848,4.0184,4.0516,4.0702,4.1029,4.1521,4.1922,4.2363,4.3123,4.3832,4.4218,4.4037,4.4815,4.4886,4.4694,4.5263,4.5848,4.6003,4.6095,4.6372,4.6603,4.6819,4.7004,4.7219,4.7342,4.7727,4.7931,4.8748,4.9228,4.9613,4.9836,4.9836,4.9916,5.0073,5.0246,5.0246,5.034,5.0496,2.9298,2.9298,2.9298,2.9298,2.9234,2.8789,2.867,2.8702,2.813,2.7844,2.7764,2.7852,2.8188,2.8607,2.8873,2.9522,3.0487,3.0601,3.074,3.0915,3.1534,3.191,3.2422,3.2794,3.3048,3.3418,3.3554,3.4288,3.5294,3.5675,3.6279,3.7132,3.7374,3.7374,3.7363,3.7232,3.7036,3.6708,3.6544,3.6162,3.5528,3.5538,3.5296,3.4764,3.4823,3.4869,3.4869,3.4869,3.5179,3.5927,3.6225,3.652,3.6844,3.6886,3.7258,3.798,3.8484,3.8704,3.8697,3.8553,3.8266,3.8083,3.8425,3.8754,3.8948,3.9264,3.9509,3.9609,3.94,3.9305,3.9305,3.9305,3.9332,3.9319,3.9305,3.9305,3.9496,3.9747,4.017,4.0616,4.0702,4.1029,4.1521,4.184,4.248,4.3596,4.4233,4.4439,4.4633,4.5247,4.5358,4.4679,4.5202,4.5325,4.5357,4.5341,4.5464,4.5772,4.6003,4.6157,4.6342,4.665,4.7019,4.7796,4.8693,4.9296,4.9694,4.9916,4.9916,4.9979,5.012,5.023,5.034,5.0512,5.0743,2.9298,2.9298,2.9298,2.9298,2.9258,2.8916,2.8845,2.8877,2.8432,2.817,2.8146,2.8178,2.8527,2.8944,2.9365,3.0054,3.0822,3.1069,3.1118,3.1183,3.1525,3.191,3.2294,3.2667,3.3048,3.3292,3.3418,3.4047,3.5304,3.5428,3.6034,3.7253,3.7374,3.7374,3.7374,3.7363,3.721,3.6981,3.6937,3.6596,3.5818,3.5725,3.5417,3.4867,3.4758,3.4869,3.4991,3.5091,3.54,3.6157,3.6796,3.7237,3.7168,3.7109,3.7302,3.761,3.8234,3.8532,3.8616,3.8684,3.871,3.8619,3.9055,3.9333,3.9389,3.9774,3.9556,3.9816,3.969,3.9631,3.9631,3.9631,3.9631,3.9644,3.9427,3.9319,3.9482,3.9747,4.0184,4.0457,4.0616,4.1043,4.1451,4.1785,4.2398,4.356,4.4443,4.472,4.505,4.5647,4.5224,4.4862,4.4911,4.4895,4.4664,4.4633,4.4618,4.4941,4.528,4.5418,4.5572,4.5972,4.6372,4.7772,4.8742,4.9045,4.9426,4.9742,4.9916,5.0042,4.9993,5.0386,5.0589,5.082,5.0972,2.9298,2.9298,2.9298,2.9298,2.9258,2.8956,2.8996,2.9147,2.863,2.8479,2.8614,2.8479,2.8728,2.9369,2.9872,3.0531,3.0928,3.1371,3.1534,3.145,3.1589,3.1847,3.2175,3.2667,3.3175,3.3292,3.3418,3.4173,3.5294,3.5428,3.6034,3.7253,3.7374,3.7374,3.7374,3.7374,3.7352,3.7319,3.7287,3.7022,3.6473,3.6214,3.5725,3.5102,3.4891,3.4869,3.5102,3.5423,3.5961,3.67,3.7394,3.752,3.7284,3.7412,3.7332,3.7287,3.7424,3.8088,3.8577,3.8867,3.8945,3.9259,3.9416,3.9839,4.0073,3.9721,3.9692,4.0237,4.0218,4.0119,4.0119,4.0214,4.0201,4.0092,3.9631,3.9435,3.97,3.9848,4.011,4.0385,4.0544,4.0873,4.1381,4.1619,4.2242,4.319,4.4421,4.478,4.495,4.5367,4.5504,4.5185,4.4726,4.4695,4.4572,4.4572,4.4572,4.4664,4.4895,4.4957,4.5095,4.5495,4.6005,4.7324,4.8448,4.878,4.9048,4.9221,4.941,4.9471,4.9815,5.0429,5.082,5.088,5.1032,2.9298,2.9298,2.9298,2.9298,2.929,2.9186,2.9202,2.9274,2.9099,2.8893,2.897,2.9232,2.9542,2.979,3.0704,3.1332,3.1687,3.2169,3.2077,3.1918,3.2097,3.23,3.2724,3.3038,3.3292,3.3418,3.3418,3.4047,3.5304,3.5428,3.6156,3.7374,3.7374,3.7374,3.7374,3.7374,3.7374,3.7309,3.7253,3.714,3.7022,3.6597,3.6241,3.5893,3.5613,3.5434,3.5643,3.6059,3.6483,3.6893,3.698,3.7163,3.7204,3.7144,3.7181,3.7493,3.7944,3.8402,3.8916,3.9268,3.9285,3.9011,3.9468,3.9475,3.915,3.9322,3.9438,3.9789,3.9943,4.0187,4.0268,4.0567,4.0608,4.0201,3.9658,3.9407,3.9672,3.9848,4.0097,4.0385,4.053,4.0873,4.1297,4.1717,4.2398,4.3626,4.4499,4.5061,4.5061,4.5233,4.5557,4.5003,4.4618,4.4603,4.4572,4.4572,4.4572,4.4572,4.4649,4.4679,4.491,4.5341,4.5789,4.664,4.7559,4.8106,4.8198,4.832,4.8507,4.8805,4.9213,4.9745,5.0365,5.0618,5.0864,2.9298,2.9298,2.9298,2.9298,2.9298,2.9298,2.9298,2.9298,2.929,2.9194,2.921,2.9615,3.0034,3.0302,3.1316,3.1905,3.2134,3.2647,3.2575,3.2322,3.2581,3.28,3.288,3.3165,3.3301,3.3418,3.367,3.4423,3.5294,3.5675,3.6401,3.7242,3.7374,3.7374,3.7374,3.7374,3.7374,3.7319,3.7319,3.7251,3.7328,3.707,3.6803,3.6544,3.6207,3.588,3.5897,3.6277,3.67,3.6869,3.698,3.7026,3.7295,3.7139,3.7258,3.784,3.8277,3.8681,3.9414,3.9745,3.9795,3.956,3.9904,3.9741,3.9415,3.9455,3.9516,3.9577,4.015,4.0377,4.0282,4.0526,4.0526,4.0187,3.9644,3.9421,3.951,3.9672,3.9936,4.0198,4.0457,4.0801,4.1311,4.1688,4.2509,4.3552,4.4364,4.4825,4.5018,4.5326,4.5341,4.4863,4.4572,4.4572,4.4572,4.4572,4.4572,4.4572,4.4572,4.4572,4.4833,4.5156,4.568,4.6251,4.6842,4.7277,4.7426,4.7545,4.789,4.8219,4.8533,4.9098,4.9825,5.0429,5.0691,2.9298,2.9298,2.9298,2.9298,2.9298,2.9298,2.9298,2.9298,2.9441,2.9433,2.9417,2.9847,3.0266,3.0584,3.1675,3.221,3.2196,3.2929,3.3055,3.2901,3.3021,3.2967,3.3094,3.3077,3.3301,3.3544,3.4163,3.4797,3.5541,3.6167,3.6656,3.7253,3.7374,3.7374,3.7374,3.7374,3.7374,3.7374,3.7462,3.7624,3.7691,3.7434,3.7387,3.7394,3.6669,3.6183,3.6075,3.6168,3.6375,3.6712,3.6916,3.7203,3.7489,3.7388,3.7624,3.8284,3.8517,3.9028,3.9792,4.014,4.037,4.0376,4.0381,4.0443,3.9879,3.9654,3.9594,3.9604,4.061,4.0865,4.0825,4.058,4.058,4.0485,3.9916,3.9454,3.9475,3.955,3.9774,4.0009,4.0211,4.073,4.1128,4.1619,4.2131,4.3248,4.4138,4.464,4.4986,4.5311,4.5172,4.474,4.4572,4.4572,4.4572,4.4572,4.4572,4.4572,4.4572,4.4663,4.48,4.5155,4.5616,4.6079,4.6356,4.6598,4.6728,4.6988,4.7257,4.7791,4.8215,4.8887,4.9593,5.0197,5.0574,2.9298,2.9298,2.9298,2.9298,2.9298,2.9298,2.9298,2.9298,2.9577,2.972,2.9863,3.0433,3.0718,3.086,3.1991,3.2508,3.269,3.3357,3.3742,3.3838,3.3218,3.3426,3.3591,3.3476,3.367,3.4037,3.4298,3.5046,3.5921,3.6412,3.6778,3.7264,3.7374,3.7374,3.7374,3.7374,3.7374,3.7374,3.7626,3.7943,3.8134,3.7938,3.7947,3.8183,3.7326,3.663,3.6283,3.6266,3.6266,3.6375,3.67,3.7047,3.7441,3.7453,3.7793,3.8374,3.9063,3.9537,3.9994,4.0314,4.0533,4.0565,4.0179,3.9521,3.984,3.9436,3.9294,3.9505,4.0472,4.1354,4.1964,4.1815,4.1489,4.1191,4.054,3.9929,3.9992,3.9871,3.9802,4.0009,4.0198,4.0544,4.1015,4.1521,4.2131,4.3019,4.3773,4.4534,4.4845,4.5202,4.5003,4.4587,4.4572,4.4572,4.4572,4.4572,4.4572,4.4572,4.4572,4.4648,4.4785,4.4982,4.5412,4.5563,4.5634,4.5872,4.625,4.6218,4.6471,4.722,4.7961,4.8759,4.9437,5.0005,5.0602,2.9577,2.9577,2.9433,2.9298,2.9298,2.9433,2.9577,2.972,3.0006,3.0148,3.0291,3.0726,3.1002,3.1143,3.214,3.271,3.2841,3.3391,3.3872,3.3825,3.3482,3.3497,3.3727,3.3662,3.3796,3.4423,3.4797,3.5428,3.6178,3.6656,3.7011,3.7374,3.7374,3.7374,3.7374,3.7374,3.7374,3.7374,3.7506,3.7878,3.8302,3.8253,3.829,3.848,3.8034,3.7529,3.7069,3.6748,3.6668,3.6674,3.6622,3.6928,3.7251,3.7358,3.7679,3.8421,3.9154,3.9775,4.0058,4.0611,4.0933,4.0852,4.041,4.0321,4.0199,3.9779,3.9573,3.9902,4.0608,4.1584,4.2656,4.2019,4.1693,4.1435,4.0784,4.0223,4.0,3.9789,3.9774,4.0023,4.0198,4.063,4.1128,4.1451,4.2184,4.3055,4.3453,4.4089,4.4618,4.488,4.4864,4.4633,4.4587,4.4572,4.4572,4.4572,4.4572,4.4572,4.4572,4.4723,4.483,4.498,4.5161,4.5325,4.5504,4.5636,4.595,4.5886,4.606,4.6871,4.7766,4.8572,4.9357,4.9871,5.044,2.9997,3.0006,2.9577,2.9433,2.9585,2.9863,3.0006,3.0006,3.0299,3.0442,3.0584,3.0868,3.1143,3.1285,3.2281,3.271,3.2981,3.3381,3.389,3.3876,3.3603,3.3614,3.3633,3.3603,3.3922,3.4548,3.5056,3.5798,3.6534,3.7021,3.7253,3.7374,3.7374,3.7374,3.7374,3.7374,3.7374,3.7374,3.7374,3.7747,3.8249,3.8324,3.8455,3.8526,3.8504,3.816,3.7678,3.7345,3.7115,3.7012,3.683,3.6925,3.7024,3.7239,3.7453,3.8303,3.9258,3.9878,4.0236,4.0928,4.1372,4.1029,4.1149,4.1261,4.0884,4.0505,4.0204,4.0282,4.0703,4.1449,4.2588,4.2059,4.1476,4.1259,4.0798,4.0382,3.9926,3.9925,4.0115,4.0023,4.0284,4.0644,4.1043,4.1451,4.2266,4.2915,4.3314,4.3801,4.4266,4.4587,4.4633,4.4803,4.4818,4.4941,4.4972,4.4572,4.4572,4.4648,4.4648,4.4799,4.4949,4.5114,4.5278,4.5442,4.5604,4.5735,4.5807,4.5839,4.6196,4.6834,4.7458,4.8259,4.8952,4.9689,5.0386,3.0299,3.0299,3.0299,3.0157,3.0157,3.0291,3.0291,3.0442,3.0718,3.086,3.1002,3.1285,3.1427,3.1709,3.2281,3.299,3.34,3.3798,3.3909,3.4091,3.3829,3.3747,3.3921,3.37,3.4097,3.4911,3.5418,3.6044,3.6889,3.7385,3.7374,3.7374,3.7374,3.7374,3.7374,3.7374,3.7374,3.7374,3.7374,3.7626,3.801,3.8347,3.8546,3.8711,3.8677,3.8401,3.7988,3.7735,3.7483,3.7081,3.6966,3.6997,3.7129,3.7358,3.7679,3.8198,3.9349,3.9981,4.0249,4.088,4.1568,4.1793,4.1584,4.1396,4.1504,4.13,4.0798,4.0404,4.0472,4.1069,4.267,4.2141,4.1883,4.1774,4.1731,4.1452,4.0762,4.0542,4.0628,4.0368,4.0399,4.0558,4.0972,4.1465,4.2117,4.2754,4.3235,4.3786,4.4419,4.4587,4.4633,4.4864,4.5126,4.5295,4.5464,4.488,4.4572,4.4648,4.4723,4.4889,4.5039,4.5278,4.5515,4.5589,4.5677,4.5735,4.5807,4.5807,4.6228,4.6776,4.733,4.7885,4.8914,4.9973,5.0626,3.0726,3.0718,3.0442,3.0442,3.0433,3.0584,3.0726,3.0726,3.1143,3.1285,3.1427,3.1568,3.1559,3.185,3.2421,3.313,3.3678,3.3817,3.3955,3.3937,3.4036,3.3851,3.404,3.3766,3.4422,3.5118,3.5428,3.6156,3.7253,3.7374,3.7374,3.7374,3.7374,3.7374,3.7374,3.7374,3.7374,3.7374,3.7374,3.7626,3.7878,3.8358,3.8653,3.8915,3.8941,3.8814,3.8619,3.8286,3.7965,3.7506,3.7284,3.7223,3.72,3.7453,3.788,3.8198,3.9349,4.0083,4.0377,4.111,4.2061,4.2377,4.1975,4.2072,4.2209,4.191,4.13,4.0865,4.0689,4.0987,4.1856,4.1951,4.1869,4.1598,4.1811,4.1571,4.1066,4.0891,4.0747,4.0628,4.0572,4.0716,4.1071,4.1549,4.1951,4.2511,4.3076,4.3786,4.4496,4.4695,4.4772,4.5141,4.5403,4.5295,4.5387,4.4957,4.4572,4.4648,4.4814,4.4964,4.5204,4.5352,4.5515,4.5662,4.5735,4.5934,4.5807,4.5823,4.6307,4.6808,4.7474,4.8237,4.9325,5.0241,5.083,3.1143,3.1135,3.0643,3.0518,3.071,3.1002,3.1143,3.1143,3.1418,3.1559,3.1559,3.1559,3.1559,3.185,3.2412,3.3121,3.3817,3.3817,3.3817,3.4001,3.4195,3.4079,3.3927,3.4148,3.4719,3.5335,3.5675,3.6279,3.7132,3.7374,3.7374,3.7374,3.7374,3.7374,3.7374,3.7374,3.7374,3.7374,3.7374,3.7626,3.7987,3.8466,3.893,3.9308,3.9308,3.9262,3.9147,3.8906,3.8367,3.7964,3.7627,3.7385,3.7164,3.7453,3.7773,3.8198,3.9349,3.9968,4.0478,4.1471,4.2222,4.2373,4.2693,4.286,4.2711,4.2276,4.1815,4.1503,4.096,4.1191,4.1679,4.1584,4.1556,4.1499,4.1466,4.1375,4.0996,4.0757,4.0865,4.0756,4.0744,4.0801,4.1057,4.1396,4.1883,4.2526,4.3076,4.3708,4.4389,4.491,4.511,4.5526,4.5649,4.5326,4.5157,4.488,4.4618,4.4572,4.4814,4.5055,4.5204,4.5442,4.562,4.5845,4.6066,4.6218,4.6029,4.5902,4.6218,4.6808,4.7706,4.8599,4.9486,5.0325,5.1002,3.1568,3.1534,3.1077,3.1128,3.1392,3.1401,3.1559,3.1542,3.1551,3.1559,3.1559,3.1559,3.1568,3.185,3.243,3.3121,3.3678,3.3817,3.4094,3.4305,3.4407,3.427,3.421,3.4794,3.5012,3.55,3.5921,3.6656,3.7253,3.7374,3.7374,3.7374,3.7374,3.7374,3.7374,3.7374,3.7374,3.7374,3.7374,3.7626,3.8249,3.8369,3.8727,3.9072,3.9308,3.9308,3.9308,3.9136,3.8734,3.7896,3.7747,3.7442,3.6909,3.6808,3.7334,3.808,3.9141,4.0083,4.0377,4.1484,4.2275,4.2387,4.2679,4.2887,4.2738,4.2398,4.2114,4.2643,4.1327,4.0892,4.1503,4.1363,4.1169,4.1247,4.1485,4.1273,4.0826,4.0834,4.0854,4.0742,4.0716,4.0702,4.0801,4.1227,4.1731,4.2444,4.317,4.3817,4.4557,4.5156,4.5526,4.5942,4.5988,4.568,4.5187,4.4864,4.4848,4.4756,4.4936,4.5238,4.5759,4.5986,4.5866,4.6139,4.6424,4.6582,4.6439,4.636,4.6329,4.6961,4.7914,4.8759,4.9576,5.0334,5.1326,3.1559,3.1516,3.0934,3.09,3.1234,3.1251,3.1251,3.1294,3.1474,3.1559,3.1559,3.1559,3.185,3.214,3.257,3.326,3.3955,3.4103,3.437,3.4637,3.4812,3.4701,3.4438,3.5002,3.5529,3.5552,3.6044,3.6656,3.7132,3.7374,3.7374,3.7374,3.7374,3.7374,3.7374,3.7374,3.7374,3.7374,3.7374,3.7626,3.7998,3.8249,3.8608,3.906,3.9178,3.9308,3.9308,3.9297,3.8791,3.8011,3.7793,3.7422,3.6979,3.6904,3.7334,3.8198,3.8828,3.9659,4.058,4.1782,4.2262,4.2555,4.2763,4.2887,4.2765,4.2344,4.1869,4.1815,4.0879,4.0635,4.0906,4.0563,4.0654,4.0968,4.1349,4.1266,4.0942,4.0966,4.0898,4.08,4.0702,4.0702,4.0787,4.1128,4.1633,4.2281,4.3114,4.3807,4.4965,4.6122,4.6309,4.6419,4.6311,4.6065,4.548,4.5018,4.5202,4.5109,4.5135,4.5578,4.6445,4.6689,4.6571,4.6787,4.7261,4.7245,4.6977,4.7067,4.7252,4.7686,4.8243,4.9106,5.0015,5.1083,5.2075,3.1388,3.1499,3.0849,3.0797,3.1148,3.1157,3.1165,3.1191,3.1328,3.1422,3.1431,3.1563,3.2027,3.2693,3.2981,3.3539,3.437,3.4518,3.4708,3.4954,3.5297,3.5266,3.5077,3.5529,3.6013,3.5685,3.6412,3.69,3.7253,3.7374,3.7374,3.7374,3.7374,3.7374,3.7374,3.7374,3.7374,3.7374,3.7374,3.7616,3.7878,3.8249,3.8477,3.8823,3.906,3.9308,3.9308,3.9308,3.8814,3.8011,3.7793,3.7434,3.6789,3.6808,3.7346,3.8092,3.8724,3.9556,4.0567,4.167,4.2319,4.2477,4.2521,4.2344,4.2548,4.2127,4.1679,4.1286,4.0621,4.0106,3.9888,4.0142,4.0295,4.0542,4.0824,4.0933,4.1026,4.1022,4.0884,4.0772,4.0702,4.0702,4.0787,4.1043,4.1549,4.2199,4.3012,4.3923,4.5247,4.6766,4.7,4.6988,4.6588,4.6296,4.568,4.5372,4.5465,4.5649,4.5675,4.6059,4.7007,4.7347,4.7293,4.7609,4.8035,4.8067,4.7893,4.8044,4.8227,4.8568,4.8882,4.9598,5.0529,5.1668,5.2664,3.0917,3.1534,3.1123,3.1148,3.1482,3.1525,3.1491,3.1494,3.1165,3.1105,3.1305,3.1514,3.2166,3.2735,3.3318,3.3872,3.4324,3.4784,3.4774,3.522,3.5799,3.5686,3.566,3.6274,3.7055,3.6427,3.69,3.7264,3.7385,3.7374,3.7374,3.7374,3.7374,3.7374,3.7374,3.7374,3.7374,3.7374,3.7374,3.7495,3.7878,3.8249,3.8488,3.8812,3.906,3.9308,3.9308,3.9308,3.8849,3.7873,3.7793,3.7311,3.6703,3.6723,3.7239,3.7986,3.8619,3.9453,4.0478,4.1246,4.1406,4.1429,4.1558,4.1924,4.2304,4.1625,4.1205,4.1055,4.0445,4.0323,4.0318,4.0409,4.033,4.0398,4.0589,4.0854,4.0974,4.1022,4.0898,4.0758,4.08,4.0955,4.1097,4.1426,4.1368,4.1912,4.3456,4.4404,4.5879,4.7184,4.7446,4.745,4.6942,4.6449,4.5896,4.5789,4.5974,4.6345,4.6467,4.6948,4.765,4.7804,4.7893,4.8256,4.862,4.8731,4.8871,4.8898,4.9002,4.9206,4.9581,5.0322,5.1181,5.2196,5.3111,3.0592,3.0849,3.0712,3.0874,3.12,3.0968,3.1012,3.1185,3.1392,3.1722,3.2027,3.221,3.2418,3.2788,3.3148,3.3567,3.3913,3.4298,3.4595,3.4926,3.5386,3.5621,3.585,3.6425,3.704,3.6662,3.7011,3.7374,3.7374,3.7418,3.7374,3.7374,3.7418,3.7374,3.7374,3.7418,3.7396,3.7374,3.7374,3.7495,3.7626,3.813,3.8488,3.8596,3.906,3.9308,3.9308,3.9308,3.8688,3.8091,3.785,3.7196,3.6605,3.6661,3.712,3.788,3.8502,3.9349,4.0377,4.1285,4.1847,4.2242,4.2276,4.2249,4.2317,4.1679,4.1232,4.0852,4.0282,4.0119,3.9794,4.0082,4.0405,4.0343,4.0553,4.0859,4.0991,4.1008,4.1123,4.1081,4.1292,4.1516,4.1618,4.1806,4.1654,4.1762,4.3372,4.5026,4.6306,4.7373,4.7573,4.7635,4.7157,4.6788,4.6266,4.6377,4.6579,4.6858,4.723,4.7682,4.815,4.848,4.8588,4.892,4.9062,4.9078,4.9203,4.9531,4.9748,4.9857,5.0349,5.1083,5.196,5.2767,5.3399,3.0335,3.042,3.0429,3.0652,3.0951,3.072,3.0806,3.133,3.1373,3.1677,3.2364,3.2574,3.2878,3.312,3.3923,3.4017,3.4499,3.4994,3.5215,3.556,3.6032,3.6085,3.6287,3.6676,3.7294,3.6875,3.7011,3.7374,3.7374,3.7516,3.7614,3.7636,3.7603,3.7614,3.7614,3.7582,3.7527,3.7407,3.7374,3.7374,3.7495,3.801,3.838,3.8488,3.8964,3.9308,3.9308,3.9274,3.8906,3.8298,3.7839,3.7345,3.6893,3.6805,3.7251,3.7761,3.8409,3.9141,4.016,4.1201,4.2128,4.2641,4.229,4.2344,4.2317,4.1693,4.1123,4.0757,4.0146,3.9739,3.9604,4.0096,4.0597,4.0694,4.0933,4.1211,4.1173,4.1191,4.139,4.146,4.1531,4.1362,4.1649,4.1822,4.2539,4.2562,4.3499,4.4929,4.6103,4.6996,4.7419,4.7419,4.725,4.7006,4.6729,4.6811,4.692,4.7137,4.7556,4.7932,4.8385,4.8652,4.8652,4.8557,4.8746,4.9205,4.9172,4.9038,4.9668,5.0461,5.1011,5.159,5.2208,5.2974,5.36,3.0095,3.042,3.0395,3.0609,3.1055,3.0986,3.1366,3.1687,3.1432,3.1546,3.2096,3.2875,3.3569,3.4147,3.5298,3.5257,3.5205,3.6505,3.6912,3.6231,3.6991,3.753,3.738,3.7412,3.7609,3.7483,3.7374,3.7374,3.7374,3.7658,3.7866,3.8084,3.8106,3.8051,3.8073,3.8062,3.7822,3.744,3.7374,3.7374,3.7495,3.7998,3.838,3.85,3.8964,3.9308,3.9308,3.9308,3.8987,3.8504,3.8091,3.7598,3.7112,3.7099,3.7441,3.7986,3.8409,3.905,3.9762,4.0663,4.1763,4.2544,4.2221,4.2005,4.1951,4.1517,4.1164,4.1096,4.0825,4.0472,4.0414,4.0677,4.1132,4.1183,4.1424,4.1491,4.1481,4.1331,4.1516,4.1727,4.1221,4.0814,4.1197,4.1753,4.297,4.3612,4.4101,4.4989,4.6188,4.7022,4.7665,4.7685,4.7592,4.7148,4.6964,4.7107,4.7185,4.7479,4.7727,4.8085,4.8209,4.8193,4.8162,4.813,4.843,4.8873,4.8554,4.8215,4.9333,5.0518,5.1285,5.1875,5.2574,5.3179,5.3666,3.101,3.1127,3.1127,3.1228,3.1434,3.0672,3.0615,3.1378,3.181,3.2611,3.3548,3.3994,3.445,3.52,3.5643,3.5871,3.5711,3.6353,3.6686,3.6336,3.7466,3.7477,3.7513,3.7724,3.7876,3.7505,3.7385,3.7407,3.7385,3.7669,3.7876,3.8084,3.8521,3.8466,3.7876,3.7614,3.7483,3.7396,3.7374,3.7374,3.7495,3.801,3.838,3.838,3.8953,3.9308,3.9308,3.9308,3.9078,3.87,3.8321,3.801,3.7488,3.7442,3.7677,3.7999,3.8421,3.9037,3.9853,4.0776,4.1571,4.2088,4.2355,4.2276,4.2507,4.2032,4.1829,4.1829,4.1802,4.176,4.218,4.2983,4.3214,4.2104,4.1966,4.1951,4.1859,4.1597,4.1601,4.1924,4.1755,4.1688,4.1934,4.2134,4.3097,4.4342,4.4899,4.5783,4.697,4.7644,4.8281,4.8178,4.8028,4.7459,4.7184,4.7247,4.7214,4.7226,4.7552,4.7972,4.794,4.783,4.7925,4.8019,4.8256,4.8462,4.8361,4.8465,4.9473,5.0494,5.1229,5.202,5.2714,5.3247,5.3666,3.1588,3.1561,3.1433,3.1524,3.165,3.0875,3.0937,3.1396,3.2271,3.3382,3.427,3.4471,3.4984,3.582,3.6251,3.6014,3.591,3.7065,3.7044,3.6698,3.7593,3.7971,3.7956,3.8065,3.8128,3.7756,3.7603,3.7593,3.7407,3.756,3.7931,3.8423,3.8794,3.8401,3.792,3.7833,3.7756,3.7571,3.7374,3.7495,3.7747,3.8118,3.85,3.8608,3.8953,3.9308,3.9308,3.9251,3.9159,3.8872,3.8573,3.8321,3.8001,3.7856,3.801,3.8059,3.8721,3.9581,4.0745,4.1232,4.1939,4.2425,4.2744,4.29,4.2941,4.2724,4.267,4.2711,4.2806,4.2943,4.3341,4.4262,4.4277,4.3166,4.2628,4.2614,4.2144,4.1882,4.1334,4.1713,4.1797,4.2072,4.2513,4.2842,4.3336,4.4558,4.5727,4.6617,4.7462,4.7867,4.8348,4.836,4.8333,4.79,4.759,4.7465,4.7307,4.7035,4.736,4.7735,4.7672,4.7561,4.7735,4.7909,4.8083,4.827,4.8406,4.8795,4.9689,5.044,5.1106,5.1921,5.2819,5.3247,5.36,3.2068,3.2013,3.1663,3.1635,3.158,3.1911,3.2086,3.216,3.2775,3.3425,3.3791,3.5011,3.5761,3.6408,3.7254,3.7118,3.6645,3.8003,3.7885,3.7684,3.8384,3.8543,3.8745,3.8827,3.8477,3.8226,3.8062,3.792,3.7538,3.7909,3.8379,3.8532,3.8521,3.8215,3.8117,3.8128,3.7986,3.7571,3.7374,3.7506,3.7878,3.813,3.8477,3.8704,3.906,3.9308,3.9308,3.9285,3.9285,3.9113,3.8872,3.8597,3.8292,3.8003,3.8022,3.8429,3.9406,4.0583,4.146,4.175,4.218,4.2638,4.2919,4.2912,4.2955,4.3118,4.3199,4.347,4.3687,4.3579,4.3718,4.4425,4.4967,4.4232,4.3459,4.3069,4.2472,4.1868,4.1165,4.1039,4.0983,4.1336,4.2181,4.2693,4.3357,4.4809,4.5945,4.653,4.7187,4.7378,4.7793,4.801,4.8043,4.82,4.7919,4.7464,4.7274,4.6953,4.7139,4.7435,4.7356,4.7482,4.7719,4.7909,4.7893,4.8127,4.8771,4.919,4.9636,5.0354,5.1139,5.1865,5.2714,5.3128,5.3533,3.3721,3.3701,3.3583,3.3534,3.3554,3.3672,3.3504,3.3157,3.3561,3.4407,3.5797,3.5723,3.6422,3.7636,3.7706,3.7616,3.7838,3.8293,3.8445,3.8657,3.8755,3.9198,3.9296,3.9176,3.8794,3.8466,3.8302,3.8259,3.8051,3.8335,3.8324,3.8292,3.8379,3.8139,3.8008,3.8073,3.78,3.7692,3.7506,3.7626,3.7998,3.8249,3.8585,3.8812,3.9167,3.9308,3.9308,3.9308,3.9308,3.9239,3.917,3.8954,3.8803,3.8641,3.8591,3.9043,3.9968,4.0934,4.1368,4.2216,4.2666,4.2758,4.3053,4.3155,4.3118,4.3158,4.3511,4.3972,4.4434,4.4379,4.4797,4.5399,4.5451,4.4733,4.4031,4.3322,4.2739,4.2107,4.1446,4.1278,4.1193,4.1587,4.2359,4.2547,4.331,4.4963,4.6116,4.6637,4.7102,4.7424,4.7812,4.8153,4.7887,4.8012,4.7556,4.7082,4.7032,4.6965,4.7308,4.7577,4.7735,4.7877,4.7909,4.8127,4.8425,4.9009,4.969,4.9936,5.0032,5.058,5.1301,5.1948,5.252,5.2991,5.3466,3.4161,3.4151,3.4151,3.4262,3.4538,3.4548,3.4594,3.4532,3.4435,3.523,3.6299,3.6196,3.6862,3.7633,3.7551,3.7555,3.7833,3.7874,3.8128,3.8248,3.8816,3.8816,3.8969,3.9132,3.8761,3.8477,3.8281,3.8182,3.8084,3.8062,3.8073,3.816,3.8459,3.8163,3.8099,3.8177,3.8155,3.7857,3.7758,3.7867,3.8107,3.8477,3.8704,3.8942,3.9178,3.9308,3.9308,3.9308,3.9308,3.9308,3.9308,3.9173,3.9012,3.8852,3.9408,3.9868,4.0562,4.1505,4.2247,4.2891,4.3042,4.3065,4.3328,4.3511,4.343,4.3402,4.3904,4.442,4.4881,4.5377,4.5977,4.6401,4.5765,4.5107,4.4355,4.3588,4.2929,4.2402,4.2107,4.1938,4.2064,4.2388,4.2612,4.2654,4.3537,4.5739,4.6944,4.7314,4.7758,4.806,4.8488,4.8985,4.8341,4.7837,4.7426,4.7391,4.7486,4.7767,4.8067,4.8272,4.8304,4.8557,4.8918,4.9011,4.9056,4.9703,5.0304,5.0346,5.0462,5.0978,5.1333,5.1762,5.2378,5.2991,5.3466,3.3699,3.3699,3.3841,3.4207,3.483,3.4964,3.551,3.63,3.5459,3.5428,3.6065,3.6433,3.6853,3.746,3.7494,3.7461,3.7494,3.7582,3.7735,3.7472,3.8095,3.8368,3.8575,3.8565,3.8575,3.8302,3.8193,3.8281,3.7878,3.7889,3.822,3.8185,3.8078,3.8077,3.8409,3.8341,3.8339,3.8283,3.8238,3.8227,3.8574,3.8812,3.893,3.919,3.9308,3.9308,3.9308,3.9308,3.9308,3.9308,3.9251,3.9161,3.915,3.9231,4.0018,4.066,4.1115,4.194,4.2832,4.3453,4.3565,4.3527,4.3728,4.3606,4.347,4.3335,4.3742,4.4637,4.5153,4.5573,4.6174,4.6052,4.5513,4.494,4.4316,4.3887,4.3504,4.3062,4.2711,4.2542,4.2542,4.2935,4.3778,4.3997,4.4627,4.6809,4.8014,4.829,4.8584,4.8883,4.9228,4.9773,4.9316,4.8717,4.8543,4.8432,4.843,4.8604,4.881,4.8968,4.8983,4.9457,4.9947,4.9866,4.9751,5.0237,5.0679,5.0703,5.0806,5.1011,5.1333,5.1614,5.2164,5.2836,5.3466,3.3988,3.3988,3.3988,3.4366,3.4758,3.5265,3.5839,3.6412,3.6767,3.6857,3.7,3.7121,3.7253,3.7374,3.7374,3.7374,3.7374,3.7396,3.7603,3.7745,3.8018,3.8262,3.8499,3.8656,3.8466,3.839,3.8379,3.8536,3.8519,3.862,3.8642,3.8742,3.8484,3.8383,3.8473,3.85,3.8488,3.8716,3.8704,3.8585,3.8812,3.8812,3.893,3.9178,3.9308,3.9308,3.9308,3.9308,3.9308,3.9308,3.9308,3.9383,3.9391,3.9569,4.0246,4.1027,4.1496,4.2099,4.2964,4.3493,4.3581,4.3506,4.3457,4.3362,4.3267,4.3158,4.3592,4.461,4.537,4.579,4.603,4.569,4.5331,4.4773,4.4289,4.4199,4.4037,4.3764,4.3343,4.3188,4.309,4.375,4.4758,4.5463,4.6297,4.7405,4.8805,4.9452,4.9774,5.0019,5.016,5.0499,5.0579,5.0153,4.9758,4.9378,4.9205,4.9189,4.9347,4.9489,4.9615,4.9852,5.0184,5.034,5.0432,5.0743,5.0896,5.1016,5.1075,5.1183,5.1333,5.154,5.2004,5.2697,5.3332,3.3472,3.3492,3.3689,3.4139,3.4861,3.5282,3.567,3.6253,3.6643,3.6883,3.7101,3.7265,3.7363,3.7363,3.7374,3.7374,3.7374,3.7374,3.7483,3.7702,3.7966,3.8143,3.8363,3.8506,3.8509,3.8298,3.8531,3.872,3.8931,3.8841,3.8705,3.8871,3.859,3.8596,3.8596,3.8716,3.8834,3.9049,3.9049,3.9049,3.906,3.906,3.9049,3.9308,3.9308,3.9308,3.9308,3.9308,3.9308,3.9308,3.9308,3.9592,3.9592,3.9679,4.0398,4.1074,4.1582,4.1643,4.2719,4.335,4.3647,4.3587,4.3823,4.3986,4.4284,4.4203,4.3823,4.4732,4.5302,4.5736,4.5885,4.5738,4.5395,4.5021,4.4346,4.3899,4.4223,4.4425,4.4088,4.3877,4.4074,4.472,4.5433,4.5472,4.6532,4.8723,5.0005,5.0548,5.0886,5.1221,5.1332,5.129,5.1306,5.099,5.0421,5.0074,4.9821,4.9852,4.9852,4.9868,4.9947,5.0104,5.034,5.0496,5.0743,5.0896,5.1048,5.1108,5.1183,5.1183,5.1333,5.1466,5.2004,5.2487,5.3128,3.2872,3.2913,3.3267,3.4022,3.488,3.4912,3.5328,3.5998,3.5987,3.6216,3.6599,3.6981,3.7221,3.7363,3.7374,3.7374,3.7374,3.7374,3.7418,3.755,3.7813,3.7945,3.8055,3.8219,3.8361,3.8372,3.8537,3.8537,3.8657,3.8698,3.8698,3.8619,3.8704,3.893,3.893,3.906,3.9308,3.919,3.919,3.9308,3.9308,3.9308,3.9308,3.9308,3.9308,3.9308,3.9308,3.9308,3.9308,3.9308,3.9308,3.9615,3.9686,3.9714,4.0458,4.1211,4.1335,4.1815,4.2695,4.3612,4.3827,4.4064,4.4482,4.4773,4.5003,4.4949,4.4569,4.4773,4.5343,4.5655,4.5804,4.5771,4.543,4.5324,4.4623,4.4038,4.4478,4.4931,4.4678,4.4467,4.5043,4.5647,4.5924,4.5935,4.7557,4.9695,5.0924,5.1475,5.1911,5.2323,5.2566,5.2333,5.2144,5.1701,5.1274,5.0832,5.0579,5.0263,5.0216,5.0216,5.0246,5.0418,5.0573,5.0743,5.0896,5.1048,5.1108,5.1183,5.1183,5.1183,5.1258,5.1392,5.1802,5.2362,5.2922,3.3399,3.3409,3.3287,3.38,3.4748,3.4549,3.5005,3.5922,3.5932,3.6042,3.6224,3.6216,3.6577,3.7352,3.7374,3.7341,3.7265,3.7319,3.7374,3.7495,3.7747,3.7878,3.8118,3.8369,3.838,3.8488,3.8596,3.8693,3.8716,3.8953,3.9072,3.9072,3.9072,3.919,3.919,3.9308,3.9308,3.9308,3.9308,3.9308,3.9308,3.9308,3.9308,3.9308,3.9308,3.9308,3.9308,3.9308,3.9308,3.9308,3.9426,3.9767,3.9964,3.9986,4.058,4.1571,4.166,4.2136,4.3048,4.3835,4.4202,4.4489,4.4814,4.48,4.5058,4.5329,4.5166,4.5302,4.5736,4.594,4.6007,4.575,4.5506,4.5641,4.526,4.5092,4.5172,4.5085,4.4804,4.5085,4.5605,4.6095,4.6611,4.7224,4.8609,5.0436,5.1546,5.2036,5.2402,5.3067,5.366,5.3313,5.2934,5.2981,5.2776,5.1796,5.1369,5.0958,5.0564,5.0374,5.034,5.0666,5.082,5.0972,5.1048,5.1108,5.1183,5.1183,5.1183,5.1183,5.1183,5.1317,5.1745,5.2164,5.2714]},{"header":{"parameterUnit":"m.s-1","parameterCategory":1,"la1":31.0,"la2":29.5877,"lo1":-88.7671,"lo2":-86.6584,"dy":0.0162,"dx":0.0185,"nx":115,"ny":88,"refTime":"2024-04-05T06:00:00:Z","depth":0,"parameterNumber":3,"parameterNumberName":"V-component_of_WINDS"},"data":[0.0,0.0,0.0,0.0,0.0,0.0,0.0,0.0,0.0,0.0,0.0,0.0,0.0,0.0,0.0,0.0,0.0,0.0,0.0,0.0,0.0,0.0,0.0,0.0,0.0,0.0,0.0,0.0,0.0,0.0,0.0,0.0,0.0,0.0,0.0,0.0,0.0,0.0,0.0,0.0,0.0,0.0,0.0,0.0,0.0,0.0,0.0,0.0,0.0,0.0,0.0,0.0,0.0,0.0,0.0,0.0,0.0,0.0,0.0,0.0,0.0,0.0,0.0,0.0,0.0,0.0,0.0,0.0,0.0,0.0,0.0,0.0,0.0,0.0,0.0,0.0,0.0,0.0,0.0,0.0,0.0,0.0,0.0,0.0,0.0,0.0,0.0,0.0,0.0,0.0,0.0,0.0,0.0,0.0,0.0,0.0,0.0,0.0,0.0,0.0,0.0,0.0,0.0,0.0,0.0,0.0,0.0,0.0,0.0,0.0,0.0,0.0,0.0,0.0,0.0,0.0,0.0,0.0,0.0,0.0,0.0,0.0,0.0,0.0,0.0,0.0,0.0,0.0,0.0,0.0,0.0,0.0,0.0,0.0,0.0,0.0,0.0,0.0,0.0,0.0,0.0,0.0,0.0,0.0,0.0,0.0,0.0,0.0,0.0,0.0,0.0,0.0,0.0,0.0,0.0,0.0,0.0,0.0,0.0,0.0,0.0,0.0,0.0,0.0,0.0,0.0,0.0,0.0,0.0,0.0,0.0,0.0,0.0,0.0,0.0,0.0,0.0,0.0,0.0,0.0,0.0,0.0,0.0,0.0,0.0,0.0,0.0,0.0,0.0,0.0,0.0,0.0,0.0,0.0,0.0,0.0,0.0,0.0,0.0,0.0,0.0,0.0,0.0,0.0,0.0,0.0,0.0,0.0,0.0,0.0,0.0,0.0,0.0,0.0,0.0,0.0,0.0,0.0,0.0,0.0,0.0,0.0,0.0,0.0,0.0,0.0,0.0,0.0,0.0,0.0,0.0,0.0,0.0,0.0,0.0,0.0,0.0,0.0,0.0,0.0,0.0,0.0,0.0,0.0,0.0,0.0,0.0,0.0,0.0,0.0,0.0,0.0,0.0,0.0,0.0,0.0,0.0,0.0,0.0,0.0,0.0,0.0,0.0,0.0,0.0,0.0,0.0,0.0,0.0,0.0,0.0,0.0,0.0,0.0,0.0,0.0,0.0,0.0,0.0,0.0,0.0,0.0,0.0,0.0,0.0,0.0,0.0,0.0,0.0,0.0,0.0,0.0,0.0,0.0,0.0,0.0,0.0,0.0,0.0,0.0,0.0,0.0,0.0,0.0,0.0,0.0,0.0,0.0,0.0,0.0,0.0,0.0,0.0,0.0,0.0,0.0,0.0,0.0,0.0,0.0,0.0,0.0,0.0,0.0,0.0,0.0,0.0,0.0,0.0,0.0,0.0,0.0,0.0,0.0,0.0,0.0,0.0,0.0,0.0,0.0,0.0,0.0,0.0,0.0,0.0,0.0,0.0,0.0,0.0,0.0,0.0,0.0,0.0,0.0,0.0,0.0,0.0,0.0,0.0,0.0,0.0,0.0,0.0,0.0,0.0,0.0,0.0,0.0,0.0,0.0,0.0,0.0,0.0,0.0,0.0,0.0,0.0,0.0,0.0,0.0,0.0,0.0,0.0,0.0,0.0,0.0,0.0,0.0,0.0,0.0,0.0,0.0,0.0,0.0,0.0,0.0,0.0,0.0,0.0,0.0,0.0,0.0,0.0,0.0,0.0,0.0,0.0,0.0,0.0,0.0,0.0,0.0,0.0,0.0,0.0,0.0,0.0,0.0,0.0,0.0,0.0,0.0,0.0,0.0,0.0,0.0,0.0,0.0,0.0,0.0,0.0,0.0,0.0,0.0,0.0,0.0,0.0,0.0,0.0,0.0,0.0,0.0,0.0,0.0,0.0,0.0,0.0,0.0,0.0,0.0,0.0,0.0,0.0,0.0,0.0,0.0,0.0,0.0,0.0,0.0,0.0,0.0,0.0,0.0,0.0,0.0,0.0,0.0,0.0,0.0,0.0,0.0,0.0,0.0,0.0,0.0,0.0,0.0,0.0,0.0,0.0,0.0,0.0,0.0,0.0,0.0,0.0,0.0,0.0,0.0,0.0,0.0,0.0,0.0,0.0,0.0,0.0,0.0,0.0,0.0,0.0,0.0,0.0,0.0,0.0,0.0,0.0,0.0,0.0,0.0,0.0,0.0,0.0,0.0,0.0,0.0,0.0,0.0,0.0,0.0,0.0,0.0,0.0,0.0,0.0,0.0,0.0,0.0,0.0,0.0,0.0,0.0,0.0,0.0,0.0,0.0,0.0,0.0,0.0,0.0,0.0,0.0,0.0,0.0,0.0,0.0,0.0,0.0,0.0,0.0,0.0,0.0,0.0,0.0,0.0,0.0,0.0,0.0,0.0,0.0,0.0,0.0,0.0,0.0,0.0,0.0,0.0,0.0,0.0,0.0,0.0,0.0,0.0,0.0,0.0,0.0,0.0,0.0,0.0,0.0,0.0,0.0,0.0,0.0,0.0,0.0,0.0,0.0,0.0,0.0,0.0,0.0,0.0,0.0,0.0,0.0,0.0,0.0,0.0,0.0,0.0,0.0,0.0,0.0,0.0,0.0,0.0,0.0,0.0,0.0,0.0,0.0,0.0,0.0,0.0,0.0,0.0,0.0,0.0,0.0,0.0,0.0,0.0,0.0,0.0,0.0,0.0,0.0,0.0,0.0,0.0,0.0,0.0,0.0,0.0,0.0,0.0,0.0,0.0,0.0,0.0,0.0,0.0,0.0,0.0,0.0,0.0,0.0,0.0,0.0,0.0,0.0,0.0,0.0,0.0,0.0,0.0,0.0,0.0,0.0,0.0,0.0,0.0,0.0,0.0,0.0,0.0,0.0,0.0,0.0,0.0,0.0,0.0,0.0,0.0,0.0,0.0,0.0,0.0,0.0,0.0,0.0,0.0,0.0,0.0,0.0,0.0,0.0,0.0,0.0,0.0,0.0,0.0,0.0,0.0,0.0,0.0,0.0,0.0,0.0,0.0,0.0,0.0,0.0,0.0,0.0,0.0,0.0,0.0,0.0,0.0,0.0,0.0,0.0,0.0,0.0,0.0,0.0,0.0,0.0,0.0,0.0,0.0,0.0,0.0,0.0,0.0,0.0,0.0,0.0,0.0,0.0,0.0,0.0,0.0,0.0,0.0,0.0,0.0,0.0,0.0,0.0,0.0,0.0,0.0,0.0,0.0,0.0,0.0,0.0,0.0,0.0,0.0,0.0,0.0,0.0,0.0,0.0,0.0,0.0,0.0,0.0,0.0,0.0,0.0,0.0,0.0,0.0,0.0,0.0,0.0,0.0,0.0,0.0,0.0,0.0,0.0,0.0,0.0,0.0,0.0,0.0,0.0,0.0,0.0,0.0,0.0,0.0,0.0,0.0,0.0,0.0,0.0,0.0,0.0,0.0,0.0,0.0,0.0,0.0,0.0,0.0,0.0,0.0,0.0,0.0,0.0,0.0,0.0,0.0,0.0,0.0,0.0,0.0,0.0,0.0,0.0,0.0,0.0,0.0,0.0,0.0,0.0,0.0,0.0,0.0,0.0,0.0,0.0,0.0,0.0,0.0,0.0,0.0,0.0,0.0,0.0,0.0,0.0,0.0,0.0,0.0,0.0,0.0,0.0,0.0,0.0,0.0,0.0,0.0,0.0,0.0,0.0,0.0,0.0,0.0,0.0,0.0,0.0,0.0,0.0,0.0,0.0,0.0,0.0,0.0,0.0,0.0,0.0,0.0,0.0,0.0,0.0,0.0,0.0,0.0,0.0,0.0,0.0,0.0,0.0,0.0,0.0,0.0,0.0,0.0,0.0,0.0,0.0,0.0,0.0,0.0,0.0,0.0,0.0,0.0,0.0,0.0,0.0,0.0,0.0,0.0,0.0,0.0,0.0,0.0,0.0,0.0,0.0,0.0,0.0,0.0,0.0,0.0,0.0,0.0,0.0,0.0,0.0,0.0,0.0,0.0,0.0,0.0,0.0,0.0,0.0,0.0,0.0,0.0,0.0,0.0,0.0,0.0,0.0,0.0,0.0,0.0,0.0,0.0,0.0,0.0,0.0,0.0,0.0,0.0,0.0,0.0,0.0,0.0,0.0,0.0,0.0,0.0,0.0,0.0,0.0,0.0,0.0,0.0,0.0,0.0,0.0,0.0,0.0,0.0,0.7629,0.0,0.0,0.0,0.0,0.0,0.0,0.0,0.0,0.0,0.0,0.0,0.0,0.0,0.0,0.0,0.0,0.0,0.0,0.0,0.0,0.0,0.0,0.0,0.0,0.0,0.0,0.0,0.0,0.0,0.0,0.0,0.0,0.0,0.0,0.0,0.0,0.0,0.0,0.0,0.0,0.0,0.0,0.0,0.0,0.0,0.0,0.0,0.0,0.0,0.0,0.0,0.0,0.0,0.0,0.0,0.0,0.0,0.0,0.0,0.0,0.0,0.0,0.0,0.0,0.0,0.0,0.0,0.0,0.0,0.0,0.0,0.0,0.0,0.0,0.0,0.0,0.0,0.0,0.0,0.0,0.0,0.0,0.0,0.0,0.0,0.0,0.0,0.0,0.0,0.0,0.0,0.0,0.0,0.0,0.0,0.0,0.0,0.0,0.0,0.0,0.0,0.0,0.0,0.0,0.0,0.0,0.0,0.0,0.0,0.0,0.7157,0.7143,0.7197,0.7544,0.8236,0.0,0.0,0.0,0.0,0.0,0.0,0.0,0.0,0.0,0.0,0.0,0.0,0.0,0.0,0.0,0.0,0.0,0.0,0.0,0.0,0.0,0.0,0.0,0.0,0.0,0.0,0.0,0.0,0.0,0.0,0.0,0.0,0.0,0.0,0.0,0.0,0.0,0.0,0.0,0.0,0.0,0.0,0.0,0.0,0.0,0.0,0.0,0.0,0.0,0.0,0.0,0.0,0.0,0.0,0.0,0.0,0.0,0.0,0.0,0.0,0.0,0.0,0.0,0.0,0.0,0.0,0.0,0.0,0.0,0.0,0.0,0.0,0.0,0.0,0.0,0.0,0.0,0.0,0.0,0.0,0.0,0.0,0.0,0.0,0.0,0.0,0.0,0.0,0.0,0.0,0.0,0.0,0.0,0.0,0.0,0.0,0.0,0.0,0.0,0.0,0.0,0.0,0.0,0.0,0.0,0.0,0.0,0.0,0.0,0.0,0.0,0.0,0.7583,0.813,0.9092,0.0,0.0,0.0,0.0,0.0,0.0,0.0,0.0,0.0,0.0,0.0,0.0,0.0,0.0,0.0,0.0,0.0,0.0,0.0,0.0,0.0,0.0,0.0,0.0,0.0,0.0,0.0,0.0,0.0,0.0,0.0,0.0,0.0,0.0,0.0,0.0,0.0,0.0,0.0,0.0,0.0,0.0,0.0,0.0,0.0,0.0,0.0,0.0,0.0,0.0,0.0,0.0,0.0,0.0,0.0,0.0,0.0,0.0,0.0,0.0,0.0,0.0,0.0,0.0,0.0,0.0,0.0,0.0,0.0,0.0,0.0,0.0,0.0,0.0,0.0,0.0,0.0,0.0,0.0,0.0,0.0,0.0,0.0,0.0,0.0,0.0,0.0,0.0,0.0,0.0,0.0,0.0,0.0,0.0,0.0,0.0,0.0,0.0,0.0,0.0,0.0,0.0,0.0,0.0,0.0,0.0,0.0,0.0,0.0,0.0,0.7897,0.7941,0.8195,0.0,1.0692,0.0,0.0,0.0,0.0,0.0,0.0,0.0,0.0,0.0,0.0,0.0,0.0,0.0,0.0,0.0,0.0,0.0,0.0,0.0,0.0,0.0,0.0,0.0,0.0,0.0,0.0,0.0,0.0,0.0,0.0,0.0,0.0,0.0,0.0,0.0,0.0,0.0,0.0,0.0,0.0,0.0,0.0,0.0,0.0,0.0,0.0,0.0,0.0,0.0,0.0,0.0,0.0,0.0,0.0,0.0,0.0,0.0,0.0,0.0,0.0,0.0,0.0,0.0,0.0,0.0,0.0,0.0,0.0,0.0,0.0,0.0,0.0,0.0,0.0,0.0,0.0,0.0,0.0,0.0,0.0,0.0,0.0,0.0,0.0,0.0,0.0,0.0,0.0,0.0,0.0,0.0,0.0,0.0,0.0,0.0,0.0,0.0,0.0,0.0,0.0,0.0,0.0,0.0,0.0,0.0,0.0,0.0,0.0,0.0,0.0,0.8201,0.8242,0.8999,0.9914,0.0,0.0,0.0,0.0,0.0,0.0,0.0,0.0,0.0,0.0,0.0,0.0,0.0,0.0,0.0,0.0,0.0,0.0,0.0,0.0,0.0,0.0,0.0,0.0,0.0,0.0,0.0,0.0,0.0,0.0,0.0,0.0,0.0,0.0,0.0,0.0,0.0,0.0,0.0,0.0,0.0,0.0,0.0,0.0,0.0,0.0,0.0,0.0,0.0,0.0,0.0,0.0,0.0,0.0,0.0,0.0,0.0,0.0,0.0,0.0,0.0,0.0,0.0,0.0,0.0,0.0,0.0,0.0,0.0,0.0,0.0,0.0,0.0,0.0,0.0,0.0,0.0,0.0,0.0,0.0,0.0,0.0,0.0,0.0,0.0,0.0,0.0,0.0,0.0,0.0,0.0,0.0,0.0,0.0,0.0,0.0,0.0,0.0,0.0,0.0,0.0,0.0,0.0,0.0,0.0,0.0,0.0,0.0,0.0,0.0,0.8455,0.8578,0.8692,0.9658,1.057,1.1228,0.0,0.0,0.0,0.0,0.0,0.0,0.0,0.0,0.0,0.0,0.0,0.0,0.0,0.0,0.0,0.0,0.0,0.0,0.0,0.0,0.0,0.0,0.0,0.0,0.0,0.0,0.0,0.0,0.0,0.0,0.0,0.0,0.0,0.0,0.0,0.0,0.0,0.0,0.0,0.0,0.0,0.0,0.0,0.0,0.0,0.0,0.0,0.0,0.0,0.0,0.0,0.0,0.0,0.0,0.0,0.0,0.0,0.0,0.0,0.0,0.0,0.0,0.0,0.0,0.0,0.0,0.0,0.0,0.0,0.0,0.0,0.0,0.0,0.0,0.0,0.0,0.0,0.0,0.0,0.0,0.0,0.0,0.0,0.0,0.0,0.0,0.0,0.0,0.0,0.0,0.0,0.0,0.0,0.0,0.0,0.0,0.0,0.0,0.0,0.0,0.0,0.0,0.0,0.0,0.0,0.0,0.0,0.0,0.8683,0.8839,0.9033,0.9266,1.0108,1.0905,0.0,0.0,0.0,0.0,0.0,0.0,0.0,0.0,0.0,0.0,0.0,0.0,0.0,0.0,0.0,0.0,0.0,0.0,0.0,0.0,0.0,0.0,0.0,0.0,0.0,0.0,0.0,0.0,0.0,0.0,0.0,0.0,0.0,0.0,0.0,0.0,0.0,0.0,0.0,0.0,0.0,0.0,0.0,0.0,0.0,0.0,0.0,0.0,0.0,0.0,0.0,0.0,0.0,0.0,0.0,0.0,0.0,0.0,0.0,0.0,0.0,0.0,0.0,0.0,0.0,0.0,0.0,0.0,0.0,0.0,0.0,0.0,0.0,0.0,0.0,0.0,0.0,0.0,0.0,0.0,0.0,0.0,0.0,0.0,0.0,0.0,0.0,0.0,0.0,0.0,0.0,0.0,0.0,0.0,0.0,0.0,0.0,0.0,0.0,0.0,0.0,0.0,0.0,0.0,0.0,0.0,0.0,0.0,0.0,0.96,0.9915,1.0297,1.0686,1.0983,1.1566,0.0,0.0,0.0,0.0,0.0,0.0,0.0,0.0,0.0,0.0,0.0,0.0,0.0,0.0,0.0,0.0,0.0,0.0,0.0,0.0,0.0,0.0,0.0,0.0,0.0,0.0,0.0,0.0,0.0,0.0,0.0,0.0,0.0,0.0,0.0,0.0,0.0,0.0,0.0,0.0,0.0,0.0,0.0,0.0,0.0,0.0,0.0,0.0,0.0,0.0,0.0,0.0,0.0,0.0,0.0,0.0,0.0,0.0,0.0,0.0,0.0,0.0,0.0,0.0,0.0,0.0,0.0,0.0,0.0,0.0,0.0,0.0,0.0,0.0,0.0,0.0,0.0,0.0,0.0,0.0,0.0,0.0,0.0,0.0,0.0,0.0,0.0,0.0,0.0,0.0,0.0,0.0,0.0,0.0,0.0,0.0,0.0,0.0,0.0,0.0,0.0,0.0,0.0,0.0,0.0,0.0,0.0,0.0,0.0,1.0596,0.0,1.1255,1.1784,1.1892,1.237,0.0,0.0,0.0,0.0,0.0,0.0,0.0,0.0,0.0,0.0,0.0,0.0,0.0,0.0,0.0,0.0,0.0,0.0,0.0,0.0,0.0,0.0,0.0,0.0,0.0,0.0,0.0,0.0,0.0,0.0,0.0,0.0,0.0,0.0,0.0,0.0,0.0,0.0,0.0,0.0,0.0,0.0,0.0,0.0,0.0,0.0,0.0,0.0,0.0,0.0,0.0,0.0,0.0,0.0,0.0,0.0,0.0,0.0,0.0,0.0,0.0,0.0,0.0,0.0,0.0,0.0,0.0,0.0,0.0,0.0,0.0,0.0,0.0,0.0,0.0,0.0,0.0,0.0,0.0,0.0,0.0,0.0,0.0,0.0,0.0,0.0,0.0,0.0,0.0,0.0,0.0,0.0,0.0,0.0,0.0,0.0,0.0,0.0,0.0,0.0,0.0,0.0,0.0,0.0,0.0,0.0,0.0,0.0,1.1139,1.1713,1.1533,1.187,1.2521,1.2911,1.3271,0.0,0.0,0.0,0.0,0.0,0.0,0.0,0.0,0.0,0.0,0.0,0.0,0.0,0.0,0.0,0.0,0.0,0.0,0.0,0.0,0.0,0.0,0.0,0.0,0.0,0.0,0.0,0.0,0.0,0.0,0.0,0.0,0.0,0.0,0.0,0.0,0.0,0.0,0.0,0.0,0.0,0.0,0.0,0.0,0.0,0.0,0.0,0.0,0.0,0.0,0.0,0.0,0.0,0.0,0.0,0.0,0.0,0.0,0.0,0.0,0.0,0.0,0.0,0.0,0.0,0.0,0.0,0.0,0.0,0.0,0.0,0.0,0.0,0.0,0.0,0.0,0.0,0.0,0.0,0.0,0.0,0.0,0.0,0.0,0.0,0.0,0.0,0.0,0.0,0.0,0.0,0.0,0.0,0.0,0.0,0.0,0.0,0.0,0.0,0.0,0.0,0.0,0.0,0.0,0.0,0.0,0.0,0.0,0.0,1.3517,1.4025,1.4558,1.4971,1.5128,1.5311,0.0,0.0,0.0,0.0,0.0,0.0,0.0,0.0,0.0,0.0,0.0,0.0,0.0,0.0,0.0,0.0,0.0,0.0,0.0,0.0,0.0,0.0,0.0,0.0,0.0,0.0,0.0,0.0,0.0,0.0,0.0,0.0,0.0,0.0,0.0,0.0,0.0,0.0,0.0,0.0,0.0,0.0,0.0,0.0,0.0,0.0,0.0,0.0,0.0,0.0,0.0,0.0,0.0,0.0,0.0,0.0,0.0,0.0,0.0,0.0,0.0,0.0,0.0,0.0,0.0,0.0,0.0,0.0,0.0,0.0,0.0,0.0,0.0,0.0,0.0,0.0,0.0,0.0,0.0,0.0,0.0,0.0,0.0,0.0,0.0,0.0,0.0,0.0,0.0,0.0,0.0,0.0,0.0,0.0,0.0,0.0,0.0,0.0,0.0,0.0,0.0,0.0,0.0,0.0,0.0,0.0,0.0,0.0,0.0,1.666,1.6356,1.6514,1.7207,1.6815,1.671,1.6996,0.0,0.0,0.0,0.0,0.0,0.0,0.0,0.0,0.0,0.0,0.0,0.0,0.0,0.0,0.0,0.0,0.0,0.0,0.0,0.0,0.0,0.0,0.0,0.0,0.0,0.0,0.0,0.0,0.0,0.0,0.0,0.0,0.0,0.0,0.0,0.0,0.0,0.0,0.0,0.0,0.0,0.0,0.0,0.0,0.0,0.0,0.0,0.0,0.0,0.0,0.0,0.0,0.0,0.0,0.0,0.0,0.0,0.0,0.0,0.0,0.0,0.0,0.0,0.0,0.0,0.0,0.0,0.0,0.0,0.0,0.0,0.0,0.0,0.0,0.0,0.0,0.0,0.0,0.0,0.0,0.0,0.0,0.0,0.0,0.0,0.0,0.0,0.0,0.0,0.0,0.0,0.0,0.0,0.0,0.0,0.0,0.0,0.0,0.0,0.0,0.0,0.0,0.0,0.0,0.0,0.0,0.0,0.0,2.0806,1.8602,1.8031,1.9181,1.819,1.7796,0.0,0.0,0.0,0.0,0.0,0.0,0.0,0.0,0.0,0.0,0.0,0.0,0.0,0.0,0.0,0.0,0.0,0.0,0.0,0.0,0.0,0.0,0.0,0.0,0.0,0.0,0.0,0.0,0.0,0.0,0.0,0.0,0.0,0.0,0.0,0.0,0.0,0.0,0.0,0.0,0.0,0.0,0.0,0.0,0.0,0.0,0.0,0.0,0.0,0.0,0.0,0.0,0.0,0.0,0.0,0.0,0.0,0.0,0.0,0.0,0.0,0.0,0.0,0.0,0.0,0.0,0.0,0.0,0.0,0.0,0.0,0.0,0.0,0.0,0.0,0.0,0.0,0.0,0.0,0.0,0.0,0.0,0.0,0.0,0.0,0.0,0.0,0.0,0.0,0.0,0.0,0.0,0.0,0.0,0.0,0.0,0.0,0.0,0.0,0.0,0.0,0.0,0.0,0.0,0.0,0.0,0.0,0.0,0.0,2.3315,2.2991,2.2272,2.1092,2.107,2.049,0.0,0.0,0.0,0.0,0.0,0.0,0.0,0.0,0.0,0.0,0.0,0.0,0.0,0.0,0.0,0.0,0.0,0.0,0.0,0.0,0.0,0.0,0.0,0.0,0.0,0.0,0.0,0.0,0.0,0.0,0.0,0.0,0.0,0.0,0.0,0.0,0.0,0.0,0.0,0.0,0.0,0.0,0.0,0.0,0.0,0.0,0.0,0.0,0.0,0.0,0.0,0.0,0.0,0.0,0.0,0.0,0.0,0.0,0.0,0.0,0.0,0.0,0.0,0.0,0.0,0.0,0.0,0.0,0.0,0.0,0.0,0.0,0.0,0.0,0.0,0.0,0.0,0.0,0.0,0.0,0.0,0.0,0.0,0.0,0.0,0.0,0.0,0.0,0.0,0.0,0.0,0.0,0.0,0.0,0.0,0.0,0.0,0.0,0.0,0.0,0.0,0.0,0.0,0.0,0.0,0.0,0.0,0.0,2.3934,2.5549,2.6521,2.6323,2.4997,2.375,2.2491,0.0,0.0,0.0,0.0,0.0,0.0,0.0,0.0,0.0,0.0,0.0,0.0,0.0,0.0,0.0,0.0,0.0,0.0,0.0,0.0,0.0,0.0,0.0,0.0,0.0,0.0,0.0,0.0,0.0,0.0,0.0,0.0,0.0,0.0,0.0,0.0,0.0,0.0,0.0,0.0,0.0,0.0,0.0,0.0,0.0,0.0,0.0,0.0,0.0,0.0,0.0,0.0,0.0,0.0,0.0,0.0,0.0,0.0,0.0,0.0,0.0,0.0,0.0,0.0,0.0,0.0,0.0,0.0,0.0,0.0,0.0,0.0,0.0,0.0,0.0,0.0,0.0,0.0,0.0,0.0,0.0,0.0,0.0,0.0,0.0,0.0,0.0,0.0,0.0,0.0,0.0,0.0,0.0,0.0,0.0,0.0,0.0,0.0,0.0,0.0,0.0,0.0,0.0,0.0,0.0,0.0,0.0,0.0,2.6471,2.7428,2.9247,2.9925,2.9419,2.6297,2.4167,0.0,0.0,0.0,0.0,0.0,0.0,0.0,0.0,0.0,0.0,0.0,0.0,0.0,0.0,0.0,0.0,0.0,0.0,0.0,0.0,0.0,0.0,0.0,0.0,0.0,0.0,0.0,0.0,0.0,0.0,0.0,0.0,0.0,0.0,0.0,0.0,0.0,0.0,0.0,0.0,0.0,0.0,0.0,0.0,0.0,0.0,0.0,0.0,0.0,0.0,0.0,0.0,0.0,0.0,0.0,0.0,0.0,0.0,0.0,0.0,0.0,0.0,0.0,0.0,0.0,0.0,0.0,0.0,0.0,0.0,0.0,0.0,0.0,0.0,0.0,0.0,0.0,0.0,0.0,0.0,0.0,0.0,0.0,0.0,0.0,0.0,0.0,0.0,0.0,0.0,0.0,0.0,0.0,0.0,0.0,0.0,0.0,0.0,0.0,0.0,0.0,0.0,0.0,0.0,0.0,0.0,0.0,0.0,2.776,2.8906,3.082,3.1325,3.0319,2.8451,2.6494,0.0,0.0,0.0,0.0,0.0,0.0,0.0,0.0,0.0,0.0,0.0,0.0,0.0,0.0,0.0,0.0,0.0,0.0,0.0,0.0,0.0,0.0,0.0,0.0,0.0,0.0,0.0,0.0,0.0,0.0,0.0,0.0,0.0,0.0,0.0,0.0,0.0,0.0,0.0,0.0,0.0,0.0,0.0,0.0,0.0,0.0,0.0,0.0,1.1198,0.0,0.0,0.0,0.0,0.0,0.0,0.0,0.0,0.0,0.0,0.0,0.0,0.0,0.0,0.0,0.0,0.0,0.0,0.0,0.0,0.0,0.0,0.0,0.0,0.0,0.0,0.0,0.0,0.0,0.0,0.0,0.0,0.0,0.0,0.0,0.0,0.0,0.0,0.0,0.0,0.0,0.0,0.0,0.0,0.0,0.0,0.0,0.0,0.0,0.0,0.0,0.0,0.0,0.0,0.0,0.0,0.0,0.0,0.0,2.9426,3.0736,3.2558,3.3162,3.2414,3.1113,2.8891,0.0,0.0,0.0,0.0,0.0,0.0,0.0,0.0,0.0,0.0,0.0,0.0,0.0,0.0,0.0,0.0,0.0,0.0,0.0,0.0,0.0,0.0,0.0,0.0,0.0,0.0,0.0,0.0,0.0,0.0,0.0,0.0,0.0,0.0,0.0,0.0,0.0,0.0,0.0,0.0,0.0,0.0,0.0,0.0,0.0,0.0,0.0,0.0,0.0,0.0,0.0,0.0,0.0,0.0,0.0,0.0,0.0,0.0,0.0,0.0,0.0,0.0,0.0,0.0,0.0,0.0,0.0,0.0,0.0,0.0,0.0,0.0,0.0,0.0,0.0,0.0,0.0,0.0,0.0,0.0,0.0,0.0,0.0,0.0,0.0,0.0,0.0,0.0,0.0,0.0,0.0,0.0,0.0,0.0,0.0,0.0,0.0,0.0,0.0,0.0,0.0,0.0,0.0,0.0,0.0,0.0,0.0,2.9194,3.1061,3.2507,3.4105,3.4821,3.4535,3.3457,3.1106,2.7364,0.0,0.0,0.0,0.0,0.0,0.0,0.0,0.0,0.0,0.0,0.0,0.0,0.0,0.0,0.0,0.0,0.0,0.0,0.0,0.0,0.0,0.0,0.0,0.0,0.0,0.0,0.0,0.0,0.0,0.0,0.0,0.0,0.0,0.0,0.0,0.0,0.0,0.0,0.9789,1.185,0.0,0.0,0.0,0.0,0.0,0.0,0.0,0.0,1.4447,0.0,0.0,0.0,0.0,0.0,0.0,0.0,0.0,0.0,0.0,0.0,0.0,0.0,0.0,0.0,0.0,0.0,0.0,0.0,0.0,0.0,0.0,0.0,0.0,0.0,0.0,0.0,0.0,0.0,0.0,0.0,0.0,0.0,0.0,0.0,0.0,0.0,0.0,0.0,0.0,0.0,0.0,0.0,0.0,0.0,0.0,0.0,0.0,0.0,0.0,0.0,0.0,0.0,0.0,0.0,0.0,2.7681,3.0364,3.2335,3.3454,3.4732,3.516,3.466,3.4061,3.2479,2.9858,0.0,0.0,0.0,0.0,0.0,0.0,0.0,0.0,0.0,0.0,0.0,0.0,0.0,0.0,0.0,0.0,0.0,0.0,0.0,0.0,0.0,0.0,0.0,0.0,0.0,0.0,0.0,0.0,0.0,0.0,0.0,0.0,0.0,0.0,0.0,0.0,0.0,0.0,0.0,1.2945,1.4056,0.0,0.0,0.0,0.0,0.0,0.0,0.0,0.0,1.5258,0.0,0.0,0.0,0.0,0.0,0.0,0.0,0.0,0.0,0.0,0.0,0.0,0.0,0.0,0.0,0.0,0.0,0.0,0.0,0.0,0.0,0.0,0.0,0.0,0.0,0.0,0.0,0.0,0.0,0.0,0.0,0.0,0.0,0.0,0.0,0.0,0.0,0.0,0.0,0.0,0.0,0.0,0.0,0.0,0.0,0.0,0.0,0.0,0.0,0.0,0.0,0.0,0.0,0.0,0.0,2.9303,3.1465,3.3376,3.4824,3.5933,3.6229,3.5748,3.497,3.3612,0.0,0.0,0.0,0.0,0.0,0.0,0.0,0.0,0.0,0.0,0.0,0.0,0.0,0.0,0.0,0.0,0.0,0.0,0.0,0.0,0.0,0.0,0.0,0.0,0.0,0.0,0.0,0.0,0.0,0.0,0.0,0.0,0.0,0.0,0.0,0.0,0.0,0.0,0.0,0.0,1.5037,1.6138,1.6929,0.0,0.0,0.0,0.0,0.0,0.0,1.6863,1.7065,0.0,0.0,0.0,0.0,0.0,0.0,0.0,0.0,0.0,0.0,0.0,0.0,0.0,0.0,0.0,0.0,0.0,0.0,0.0,0.0,0.0,0.0,0.0,0.0,0.0,0.0,0.0,0.0,0.0,0.0,0.0,0.0,0.0,0.0,0.0,0.0,0.0,0.0,0.0,0.0,0.0,0.0,0.0,0.0,0.0,0.0,0.0,0.0,0.0,0.0,0.0,0.0,0.0,0.0,0.0,3.0833,3.2727,3.4406,3.6022,3.7007,3.7241,3.6778,3.5811,3.4506,0.0,0.0,0.0,0.0,0.0,0.0,0.0,0.0,0.0,0.0,0.0,0.0,0.0,0.0,0.0,0.0,0.0,0.0,0.0,0.0,0.0,0.0,0.0,0.0,0.0,0.0,0.0,0.0,0.0,0.0,0.0,0.0,0.0,0.0,0.0,0.0,0.0,0.0,0.0,0.0,0.0,1.8068,1.84,1.8884,0.0,0.0,0.0,0.0,1.8905,1.9179,0.0,0.0,0.0,0.0,0.0,0.0,0.0,0.0,0.0,0.0,0.0,0.0,0.0,0.0,0.0,0.0,0.0,0.0,0.0,0.0,0.0,0.0,0.0,0.0,0.0,0.0,0.0,0.0,0.0,0.0,0.0,0.0,0.0,0.0,0.0,0.0,0.0,0.0,0.0,0.0,0.0,0.0,0.0,0.0,0.0,0.0,0.0,0.0,0.0,0.0,0.0,0.0,0.0,0.0,0.0,0.0,3.1929,3.4233,3.5789,3.6586,3.7293,3.751,3.7155,3.6122,3.4767,0.0,0.0,0.0,0.0,0.0,0.0,0.0,0.0,0.0,0.0,0.0,0.0,0.0,0.0,0.0,0.0,0.0,0.0,0.0,0.0,0.0,0.0,0.0,0.0,0.0,0.0,0.0,0.0,0.0,0.0,0.0,0.0,0.0,0.0,0.0,0.0,0.0,0.0,0.0,0.0,0.0,1.8516,1.914,2.0166,2.0671,0.0,0.0,2.1149,2.1368,2.1941,0.0,0.0,0.0,0.0,0.0,0.0,0.0,0.0,0.0,0.0,0.0,0.0,0.0,0.0,0.0,0.0,0.0,0.0,0.0,0.0,0.0,0.0,0.0,0.0,0.0,0.0,0.0,0.0,0.0,0.0,0.0,0.0,0.0,0.0,0.0,0.0,0.0,0.0,0.0,0.0,0.0,0.0,0.0,0.0,0.0,0.0,0.0,0.0,0.0,0.0,0.0,0.0,0.0,0.0,0.0,3.1019,3.3156,3.5314,3.697,3.7985,3.8629,3.8599,3.7785,3.6832,3.5288,0.0,0.0,0.0,0.0,0.0,0.0,0.0,0.0,0.0,0.0,0.0,0.0,0.0,0.0,0.0,0.0,0.0,0.0,0.0,0.0,0.0,0.0,0.0,0.0,0.0,0.0,0.0,0.0,0.0,0.0,0.0,0.0,0.0,0.0,0.0,0.0,0.0,0.0,0.0,0.0,0.0,0.0,2.1253,2.2448,0.0,0.0,0.0,2.3816,2.356,0.0,0.0,0.0,0.0,0.0,0.0,0.0,0.0,0.0,0.0,0.0,0.0,0.0,0.0,0.0,0.0,0.0,0.0,0.0,0.0,0.0,0.0,0.0,0.0,0.0,0.0,0.0,0.0,0.0,0.0,0.0,0.0,0.0,0.0,0.0,0.0,0.0,0.0,0.0,0.0,0.0,0.0,0.0,0.0,0.0,0.0,0.0,0.0,0.0,0.0,0.0,0.0,0.0,0.0,0.0,0.0,0.0,3.4531,3.6523,3.8029,3.9086,3.9716,3.9482,3.831,3.7358,0.0,0.0,0.0,0.0,0.0,0.0,0.0,0.0,0.0,0.0,0.0,0.0,0.0,0.0,0.0,0.0,0.0,0.0,0.0,0.0,0.0,0.0,0.0,0.0,0.0,0.0,0.0,1.024,0.0,0.0,0.0,0.0,0.0,0.0,0.0,0.0,0.0,0.0,0.0,0.0,0.0,0.0,2.3117,2.3195,2.4413,2.5016,0.0,0.0,2.6222,2.5609,2.5051,2.4684,0.0,0.0,0.0,0.0,0.0,0.0,0.0,0.0,0.0,0.0,0.0,0.0,0.0,0.0,0.0,0.0,0.0,0.0,0.0,0.0,0.0,0.0,0.0,0.0,0.0,0.0,0.0,0.0,0.0,0.0,0.0,0.0,0.0,0.0,0.0,0.0,0.0,0.0,0.0,0.0,0.0,0.0,0.0,0.0,0.0,0.0,0.0,0.0,0.0,0.0,0.0,0.0,0.0,0.0,0.0,3.6073,3.8045,3.9115,3.9283,3.9925,3.9688,3.8539,3.7592,3.6115,0.0,0.0,0.0,0.0,0.0,0.0,0.0,0.0,0.0,0.0,0.0,0.0,0.0,0.0,0.0,0.0,0.0,0.0,0.0,0.0,0.0,0.0,0.0,0.0,0.0,0.0,0.0,0.0,0.0,0.0,0.0,0.0,0.0,0.0,0.0,0.0,0.0,0.0,0.0,0.0,0.0,2.3746,2.4531,2.5351,2.6311,0.0,0.0,2.815,2.7555,2.8239,2.8102,2.5887,0.0,0.0,0.0,0.0,0.0,0.0,0.0,0.0,0.0,0.0,0.0,0.0,0.0,0.0,0.0,0.0,0.0,0.0,0.0,0.0,0.0,0.0,0.0,0.0,0.0,0.0,0.0,0.0,0.0,0.0,0.0,0.0,0.0,0.0,0.0,0.0,0.0,0.0,0.0,0.0,0.0,0.0,0.0,0.0,0.0,0.0,0.0,0.0,0.0,0.0,0.0,0.0,0.0,3.5125,3.7061,3.8611,3.9573,4.0002,4.0263,4.0009,3.9154,3.8325,3.6849,0.0,0.0,0.0,0.0,0.0,0.0,0.0,0.0,0.0,0.0,0.0,0.0,0.0,0.0,0.0,0.0,0.0,0.0,0.0,0.0,0.0,0.0,0.0,0.0,0.0,0.0,0.0,0.0,1.2754,1.3489,1.5061,0.0,0.0,0.0,0.0,0.0,0.0,0.0,0.0,0.0,0.0,2.5799,2.6506,2.7549,0.0,0.0,2.9289,2.9673,2.922,2.8943,2.8402,2.7685,2.6444,0.0,0.0,0.0,0.0,0.0,0.0,0.0,0.0,0.0,0.0,0.0,0.0,0.0,0.0,0.0,0.0,0.0,0.0,0.0,0.0,0.0,0.0,0.0,0.0,0.0,0.0,0.0,0.0,0.0,0.0,0.0,0.0,0.0,0.0,0.0,0.0,0.0,0.0,0.0,0.0,0.0,0.0,0.0,0.0,0.0,0.0,0.0,0.0,0.0,0.0,0.0,0.0,3.6261,3.8384,3.9498,4.037,4.0847,4.0901,4.0554,3.9591,3.8779,3.7351,0.0,0.0,0.0,0.0,0.0,0.0,0.0,0.0,0.0,0.0,0.0,0.0,0.0,0.0,0.0,0.0,0.0,0.0,0.0,0.0,0.0,0.0,0.0,0.0,0.0,0.0,0.0,0.0,1.4507,1.536,1.634,0.0,0.0,0.0,0.0,0.0,0.0,0.0,0.0,0.0,0.0,2.7621,2.8397,2.9422,3.0109,3.0181,3.0748,3.1027,3.0616,2.9797,2.9187,2.8973,0.0,0.0,0.0,0.0,0.0,0.0,0.0,0.0,0.0,0.0,0.0,0.0,0.0,0.0,0.0,0.0,0.0,0.0,0.0,0.0,0.0,0.0,0.0,0.0,0.0,0.0,0.0,0.0,0.0,0.0,0.0,0.0,0.0,0.0,0.0,0.0,0.0,0.0,0.0,0.0,0.0,0.0,0.0,0.0,0.0,0.0,0.0,0.0,0.0,0.0,0.0,0.0,0.0,3.8271,3.9913,4.1009,4.154,4.1571,4.1876,4.1345,3.9905,3.8779,3.7526,3.6013,0.0,0.0,0.0,0.0,0.0,0.0,0.0,0.0,0.0,0.0,0.0,0.0,0.0,0.0,0.0,0.0,0.0,0.0,0.0,0.0,0.0,0.0,0.0,0.0,0.0,0.0,1.5416,1.6934,1.7644,0.0,0.0,0.0,0.0,0.0,0.0,0.0,0.0,0.0,0.0,2.7222,2.8674,3.0094,3.0793,3.1355,3.2191,3.2475,3.2311,3.1638,3.154,3.1058,0.0,0.0,0.0,0.0,0.0,0.0,0.0,0.0,0.0,0.0,0.0,0.0,0.0,0.0,0.0,0.0,0.0,0.0,0.0,0.0,0.0,0.0,0.0,0.0,0.0,0.0,0.0,0.0,2.4038,0.0,0.0,0.0,0.0,0.0,0.0,0.0,0.0,0.0,0.0,0.0,3.179,3.1828,0.0,0.0,0.0,0.0,0.0,0.0,0.0,0.0,0.0,0.0,0.0,0.0,3.8918,4.0997,4.1388,4.2014,4.2771,4.2318,4.1935,4.1534,4.0609,3.8692,3.5764,0.0,0.0,0.0,0.0,0.0,0.0,0.0,0.0,0.0,0.0,0.0,0.0,0.0,0.0,0.0,0.0,0.0,0.0,0.0,0.0,0.0,0.0,0.0,0.0,0.0,1.644,0.0,0.0,0.0,0.0,0.0,0.0,0.0,0.0,0.0,0.0,0.0,2.6087,2.7421,2.8704,2.9971,3.1062,3.213,3.2859,0.0,0.0,0.0,0.0,0.0,0.0,0.0,0.0,0.0,0.0,0.0,0.0,0.0,0.0,2.5633,2.3029,2.2677,2.2822,2.2772,0.0,0.0,0.0,0.0,0.0,0.0,0.0,0.0,0.0,0.0,0.0,0.0,0.0,0.0,0.0,0.0,2.7592,0.0,0.0,0.0,0.0,0.0,0.0,0.0,0.0,3.458,3.5379,3.5055,3.5347,3.5159,0.0,3.4349,3.3456,0.0,0.0,0.0,0.0,0.0,0.0,0.0,0.0,3.9927,4.1904,4.2435,4.3051,4.378,4.3441,4.3094,4.2979,4.1692,3.9479,3.6127,3.4229,3.2074,0.0,0.0,0.0,0.0,0.0,0.0,0.0,0.0,0.0,0.0,0.0,0.0,0.0,0.0,0.0,0.0,0.0,0.0,0.0,0.0,0.0,0.0,0.0,1.84,0.0,0.0,0.0,0.0,0.0,0.0,0.0,0.0,0.0,2.49,2.6321,2.7861,2.9192,3.0158,3.1137,3.2154,0.0,0.0,0.0,0.0,0.0,0.0,0.0,3.3196,3.2648,3.2143,3.171,3.1649,3.1016,3.0417,3.0062,0.0,0.0,2.5859,2.5373,2.5384,2.5306,2.5971,2.6546,2.6546,2.7105,2.7678,0.0,0.0,0.0,0.0,0.0,0.0,0.0,0.0,2.9772,3.0202,0.0,3.0765,0.0,0.0,0.0,0.0,0.0,0.0,0.0,0.0,3.7576,3.8277,3.8258,3.8603,3.8359,3.7741,3.7686,3.7263,3.6321,3.4421,0.0,0.0,0.0,0.0,0.0,0.0,4.1338,4.2647,4.3974,4.4717,4.4733,4.5069,4.4857,4.3954,4.1995,3.9739,3.7199,3.5658,3.4074,3.2308,3.013,0.0,0.0,0.0,0.0,0.0,0.0,0.0,0.0,0.0,0.0,0.0,0.0,0.0,0.0,0.0,0.0,0.0,0.0,0.0,0.0,1.8969,0.0,0.0,0.0,0.0,0.0,0.0,0.0,0.0,0.0,0.0,2.7356,2.8298,2.9489,3.0991,0.0,0.0,0.0,0.0,3.3893,3.4623,3.4813,3.4851,3.4826,3.4813,3.4613,3.4073,0.0,0.0,3.3362,3.2641,3.2115,3.2134,3.1589,3.0524,2.8912,2.8505,2.8459,2.8298,2.8683,2.9137,2.9015,2.9297,2.9736,3.9093,0.0,0.0,0.0,0.0,3.266,3.3451,3.4739,3.4274,3.4214,3.4426,3.4478,0.0,0.0,0.0,0.0,0.0,0.0,3.8837,3.9388,4.0994,4.1878,4.2102,4.2296,4.2155,4.1629,4.1007,4.0196,3.9232,3.8994,3.793,3.6276,0.0,0.0,0.0,0.0,4.2182,4.3869,4.4452,4.5135,4.6051,4.5549,4.4853,4.3782,4.2543,4.0767,3.8495,3.7247,3.5618,3.3566,3.2081,0.0,0.0,0.0,0.0,0.0,0.0,0.0,0.0,0.0,0.0,0.0,0.0,0.0,0.0,0.0,0.0,0.0,0.0,0.0,2.0192,2.0677,2.1187,0.0,0.0,0.0,0.0,0.0,0.0,0.0,0.0,0.0,3.003,2.9817,3.0306,0.0,0.0,3.3158,3.4234,3.5048,3.5612,3.5881,0.0,0.0,0.0,3.6471,3.6295,3.5742,3.5376,3.5108,3.492,3.4408,3.397,3.403,3.3839,3.3517,3.2983,3.1454,3.0318,2.9993,3.0385,3.0652,3.0526,3.1061,3.1666,4.6005,4.1896,3.9412,3.8152,3.7834,3.7738,3.8182,3.904,3.865,3.8399,3.8311,3.8075,3.7384,3.645,3.6885,0.0,0.0,0.0,4.1514,4.2234,4.3239,4.3965,4.4445,4.5081,4.5066,4.4544,4.4327,4.3754,4.2884,4.3079,4.2501,4.1091,0.0,0.0,4.2205,4.2652,4.3568,4.4892,4.5378,4.5939,4.6705,4.6196,4.5508,4.4577,4.367,4.2302,4.0331,3.902,3.7433,3.5378,3.4022,3.2398,0.0,0.0,0.0,0.0,0.0,0.0,0.0,0.0,0.0,0.0,0.0,2.0783,0.0,0.0,0.0,0.0,2.1095,2.1343,2.1981,2.2405,0.0,0.0,0.0,0.0,0.0,0.0,0.0,2.7526,2.895,3.0444,3.1851,3.1687,3.1989,3.3533,3.3922,3.4374,3.5253,0.0,3.6759,3.6973,3.7575,3.7889,3.7563,3.7513,3.74,3.7073,3.6721,3.6539,3.6442,3.6137,3.5941,3.5843,3.5757,3.5757,3.5745,3.4474,3.3265,3.2724,3.2546,3.2622,3.2734,3.318,3.3396,5.2362,5.1526,4.6578,4.3847,4.2816,4.3205,4.3172,4.2782,4.2815,4.2621,4.2157,4.1589,4.0927,4.0327,4.1132,0.0,0.0,4.2977,4.3953,4.4486,4.4706,4.5197,4.5939,4.7029,4.7258,4.675,4.7566,4.7561,4.6867,4.6711,4.6727,4.6802,4.3987,4.3247,4.4637,4.4949,4.5305,4.5733,4.6532,4.6941,4.6892,4.6876,4.652,4.5726,4.5111,4.3945,4.2206,4.0844,3.9272,3.7503,3.5841,3.4255,3.2715,0.0,0.0,0.0,0.0,0.0,0.0,0.0,0.0,0.0,0.0,0.0,0.0,0.0,0.0,0.0,2.2736,0.0,2.346,2.4014,0.0,0.0,0.0,2.6043,2.6659,2.7654,2.8674,2.9792,0.0,0.0,0.0,0.0,3.4299,3.4851,3.5316,3.583,3.6408,3.6973,3.75,3.7977,3.8128,3.8153,3.8203,3.8191,3.8178,3.814,3.8115,3.7842,3.7618,3.7556,3.7494,3.7257,3.7306,3.7194,3.7206,3.7059,3.6983,3.5849,3.5153,3.4766,3.5298,3.5085,3.4843,5.6032,5.5802,5.4537,5.1716,4.8129,4.7988,4.7521,4.6862,4.6878,4.5997,4.4489,4.4355,4.3662,4.2647,4.3372,4.3746,4.3916,4.5388,4.6149,4.63,4.6893,4.7538,4.8266,4.8547,4.8894,4.929,4.919,4.9029,4.8692,4.8512,4.8495,4.866,4.8095,4.7378,4.6594,4.7183,4.7264,4.6786,4.757,4.7582,4.6909,4.6876,4.6293,4.5063,4.4868,4.3848,4.186,4.1423,4.0434,3.8695,3.746,3.6064,3.4229,3.2492,0.0,0.0,0.0,0.0,0.0,0.0,0.0,0.0,0.0,2.452,2.4904,0.0,2.458,0.0,2.5026,2.5512,2.5902,2.62,0.0,0.0,2.7194,2.7596,2.8442,2.9176,2.9959,3.0884,3.1989,3.3093,3.4198,3.5165,3.5981,3.6508,3.6345,3.6521,3.7462,3.8103,3.8504,3.8668,3.9007,3.9295,3.9245,3.9295,3.927,3.9295,3.883,3.8365,3.8252,3.7779,3.7318,3.7331,3.7318,3.7218,3.7042,3.6917,3.7063,3.703,3.6507,3.5938,3.6002,3.5828,3.5805,5.7985,5.8246,5.7712,5.6039,5.3771,5.23,5.1106,5.0197,4.9718,4.8727,4.7441,4.7111,4.6434,4.5507,4.6218,4.6612,4.6742,4.7852,4.8365,4.8398,4.8796,4.921,4.9607,4.9922,5.0303,5.0701,5.0789,5.078,5.0709,5.0582,5.0654,5.0692,5.078,5.0385,4.9526,4.9194,4.8728,4.8266,4.8295,4.7993,4.7378,4.6747,4.6102,4.5406,4.4691,4.3832,4.2694,4.1983,4.0942,3.9578,3.8587,3.72,3.5381,3.4109,3.2862,0.0,0.0,0.0,0.0,0.0,0.0,0.0,0.0,0.0,0.0,0.0,2.6492,0.0,2.7433,0.0,2.7631,2.8412,2.8879,2.8574,2.8963,2.9425,3.005,3.0991,3.1706,3.223,3.3492,3.4666,3.5353,3.6194,3.7036,3.7814,3.7663,3.7701,3.8291,3.8868,3.9233,3.9258,3.9496,3.9697,3.9697,3.9697,3.9697,3.9672,3.9331,3.9016,3.9016,3.8562,3.8148,3.8148,3.8046,3.7931,3.7726,3.7739,3.7849,3.7929,3.7624,3.7236,3.7028,3.672,3.6661,5.9129,5.9547,5.8433,5.8258,5.8695,5.5951,5.4158,5.3048,5.2027,5.1095,5.0338,4.9558,4.8879,4.8332,4.8961,4.926,4.9309,5.0005,5.0303,5.022,5.0303,5.0336,5.0386,5.0999,5.133,5.1446,5.2075,5.2373,5.2373,5.2373,5.2373,5.2373,5.2373,5.2373,5.2324,5.0958,5.0056,4.9784,4.8903,4.8302,4.7993,4.673,4.6088,4.5929,4.4708,4.4042,4.3974,4.2645,4.141,4.0395,3.9396,3.8078,3.6372,3.5629,3.4501,0.0,3.2542,0.0,0.0,0.0,0.0,0.0,0.0,0.0,0.0,2.8451,2.8465,2.8665,2.9862,3.021,2.931,3.0646,3.1211,3.0306,3.0791,3.1312,3.1678,3.2765,3.3563,3.369,3.506,3.6109,3.6477,3.6998,3.7814,3.8617,3.8843,3.8894,3.9007,3.9371,3.9647,3.9697,3.9697,3.9697,3.9697,3.9697,3.9697,3.9685,3.9556,3.9594,3.9544,3.9337,3.9233,3.9129,3.8871,3.8779,3.8736,3.8699,3.8712,3.8582,3.8348,3.8218,3.8007,3.7489,3.75,6.0434,6.0008,5.9727,5.9692,5.9727,5.8258,5.6919,5.5701,5.4915,5.3297,5.1206,5.0372,4.9922,4.9806,4.9939,5.0005,5.0055,5.075,5.0767,5.0237,5.0817,5.1065,5.1082,5.1214,5.1595,5.2158,5.2324,5.2373,5.2373,5.2373,5.2373,5.2373,5.2373,5.2373,5.2357,0.0,0.0,0.0,4.9676,4.8828,4.829,4.7895,4.6903,4.531,4.5538,0.0,4.4056,4.3507,4.2911,4.1995,4.0448,0.0,0.0,0.0,0.0,0.0,0.0,0.0,0.0,0.0,0.0,0.0,3.2661,3.168,3.0713,3.0651,3.0864,3.1422,3.2087,3.2435,3.2206,3.246,3.2476,3.2019,3.2429,3.301,3.3558,3.4054,3.4663,3.5326,3.5903,3.6502,3.696,3.7914,3.8592,3.8831,3.9258,3.9521,3.9521,3.9609,3.9697,3.9697,3.9697,3.9697,3.9697,3.9697,3.9594,3.9478,3.9374,3.927,3.905,3.8945,3.8945,3.8945,3.8853,3.8724,3.8514,3.8514,3.8409,3.821,3.8092,3.8092,3.8315,3.7904,3.7608,6.1055,0.0,6.0265,6.0089,0.0,5.9459,5.8751,5.7922,5.6452,5.4737,5.287,5.2294,5.1874,5.1541,5.1403,5.1403,5.1436,5.1715,5.1628,5.1313,5.1661,5.181,5.1827,5.1827,5.2191,5.287,5.2539,5.2572,5.2854,5.2484,5.2302,5.239,5.223,5.2158,5.2247,5.223,5.1977,5.1526,5.05,4.9801,4.9284,4.8172,4.7115,4.614,0.0,0.0,0.0,0.0,0.0,0.0,0.0,0.0,0.0,0.0,0.0,3.6049,3.5941,3.5633,3.503,3.5169,3.5218,3.5049,3.4626,3.3817,3.2681,3.2814,3.3138,3.3587,3.4242,3.4272,3.3534,3.3978,3.4033,3.3342,3.3656,3.4224,3.4865,3.5259,3.5635,3.616,3.6577,3.695,3.7316,3.7736,3.8266,3.8781,3.9094,3.9396,3.9634,3.9697,3.9697,3.9697,3.9697,3.9685,3.9581,3.949,3.9374,3.9154,3.905,3.8945,3.8841,3.8736,3.8619,3.8619,3.8514,3.8303,3.8198,3.8198,3.8198,3.808,3.7974,3.7974,3.8198,3.7998,3.7881,6.1458,6.1037,6.0528,6.023,6.0089,6.0089,5.9896,5.9464,0.0,0.0,0.0,5.4334,5.3857,5.3288,5.3014,5.2824,5.2807,5.2566,5.2445,5.2445,5.2373,5.2373,5.2373,5.2373,5.2738,5.3367,5.2837,5.292,5.3493,5.2818,5.2472,5.2445,5.2236,5.2163,5.2211,5.2152,5.2102,5.2013,5.1261,5.0739,5.0415,4.8508,4.742,4.7248,4.6056,4.5357,4.5212,4.4902,4.3832,4.1821,4.217,4.1241,3.8606,3.9323,3.91,3.7569,3.8083,3.7886,3.6562,3.6997,3.7041,3.6287,3.5994,3.5402,3.4318,3.4585,3.5022,3.5307,3.5944,3.5704,3.444,3.5287,3.5642,3.469,3.5011,3.5509,3.6178,3.6547,3.6768,3.6923,3.7127,3.7429,3.7712,3.7627,3.7799,3.8705,3.8995,3.9171,3.9546,3.9697,3.9697,3.9697,3.9594,3.9594,3.9374,3.927,3.905,3.8828,3.8724,3.8736,3.8631,3.8514,3.8303,3.8303,3.8092,3.8092,3.7974,3.7974,3.7974,3.7974,3.7974,3.7974,3.7974,3.7974,3.8106,6.209,6.03,6.0897,6.0721,6.0089,6.0089,5.9896,5.9433,5.7758,5.6558,5.5739,5.5161,5.4879,5.4761,5.4109,5.3824,5.372,5.2977,5.2553,0.0,5.2445,5.2373,5.2373,5.2373,5.2738,5.3367,5.3318,5.3576,5.3997,5.3964,5.3543,5.2885,5.3318,5.3285,5.2753,5.2439,5.2158,5.1851,5.168,5.1336,5.0697,5.0187,4.9001,4.7362,4.7505,4.7167,4.5994,4.5244,4.4592,4.4039,4.2027,4.0592,3.9857,3.8898,3.7986,3.7327,3.7212,3.7195,3.7128,3.7259,3.7358,3.7372,3.7353,3.6642,3.524,3.5588,3.5939,3.5967,3.6557,3.6682,3.617,3.667,3.6839,3.6399,3.7205,3.7819,3.7691,3.7993,3.8068,3.7964,3.8041,3.8071,3.8105,3.8313,3.8507,3.9056,3.9095,3.9272,3.9649,3.9697,3.9697,3.9697,3.9478,3.9374,3.9258,3.905,3.8841,3.8514,3.8409,3.8409,3.8185,3.8092,3.8092,3.808,3.808,3.7974,3.7974,3.7974,3.7974,3.7974,3.7974,3.7974,3.7974,3.7974,3.801,6.2705,6.1441,6.1739,6.1195,6.0089,6.0089,6.0025,5.9796,5.8853,5.781,5.6746,5.6433,5.5835,5.4901,5.4354,5.4001,5.3667,5.3315,5.3207,5.324,5.3551,5.3678,5.3678,5.3823,5.4189,5.4855,5.4489,5.4525,5.4857,5.4484,5.3879,5.3432,5.3383,5.2611,5.1401,5.1425,5.1333,5.1043,5.1565,5.1541,5.1157,5.053,4.9791,4.8816,4.8394,4.7826,4.7176,4.6377,4.5446,4.4404,4.3775,4.2732,4.1294,4.0806,4.0088,3.9023,3.8885,3.853,3.781,3.813,3.8298,3.811,3.8439,3.8254,3.7296,3.7091,3.7217,3.754,3.785,3.7844,3.7425,3.7606,3.7717,3.747,3.7912,3.8243,3.8327,3.8505,3.8589,3.8434,3.8346,3.8227,3.8067,3.7925,3.8153,3.8637,3.9146,3.9498,3.9647,3.9697,3.9697,3.9697,3.9478,3.927,3.905,3.8736,3.8514,3.8198,3.8185,3.8092,3.7974,3.7974,3.7974,3.7974,3.7974,3.7974,3.7974,3.7974,3.7974,3.7974,3.7974,3.7974,3.7974,3.7974,3.7974,6.3418,6.2539,6.2714,6.1905,6.0498,6.048,6.041,6.0171,5.9896,5.9056,5.7947,5.7775,5.6953,5.569,5.5228,5.47,5.4296,5.42,5.4171,5.415,5.4612,5.4878,5.4878,5.5024,5.5481,5.6084,5.5615,5.5495,5.5703,5.5028,5.4536,5.4162,5.3438,5.2274,5.0843,5.1019,5.1017,5.0668,5.1337,5.1647,5.1483,5.0707,5.0276,5.0034,4.9078,4.8414,4.822,4.7524,4.6496,4.5138,4.5326,4.4638,4.2653,4.245,4.1881,4.0681,4.0477,3.9959,3.8783,3.9117,3.9252,3.8846,3.921,3.9377,3.918,3.8704,3.8454,3.8805,3.8805,3.8737,3.8394,3.845,3.8573,3.8528,3.8619,3.8776,3.8854,3.8948,3.8859,3.8769,3.8498,3.8226,3.8044,3.7585,3.7608,3.832,3.9196,3.9659,3.9697,3.9697,3.9685,3.9581,3.9374,3.905,3.8736,3.8526,3.8303,3.7974,3.7974,3.7974,3.7974,3.7974,3.7974,3.7974,3.7974,3.7974,3.7974,3.7974,3.7974,3.7974,3.7974,3.7974,3.788,3.7892,3.7986,6.4309,6.3176,6.3642,6.3023,6.1714,6.1608,6.1139,6.0448,6.0333,5.9978,5.9297,5.8823,5.8391,5.808,5.7344,5.6865,5.659,5.5905,5.5424,5.5211,5.5135,5.5113,5.518,5.5147,5.5498,5.6151,5.6151,5.6171,5.6265,5.6155,5.584,5.5215,5.4108,5.3327,5.2961,5.265,5.2121,5.1177,5.1392,5.1499,5.1499,5.1285,5.0778,5.0131,4.9985,4.9596,4.8949,4.8269,4.7619,4.7037,4.5675,4.4535,4.3738,4.2498,4.1475,4.0976,4.0621,4.0266,3.9915,3.9973,3.9952,3.9715,3.9576,3.9701,3.9966,3.9717,3.9367,3.9072,3.8917,3.8959,3.8917,3.9284,3.955,3.9592,4.0011,4.0287,3.9895,3.9908,3.9733,3.9319,3.8859,3.8602,3.8421,3.7913,3.7702,3.818,3.8907,3.9496,3.9521,3.9584,3.9494,3.9337,3.9037,3.8724,3.8514,3.8198,3.8092,3.7974,3.7974,3.7974,3.7974,3.7974,3.7974,3.7974,3.7974,3.7974,3.7974,3.7974,3.7974,3.7868,3.7868,3.788,3.7691,3.7596,3.7679,6.4645,6.3725,6.4468,6.4185,6.3123,6.2185,6.1555,6.1174,6.0715,6.0297,6.0008,5.9683,5.9024,5.8153,5.769,5.7261,5.6713,5.6678,5.6467,5.6305,5.6693,5.6841,5.6606,5.6696,5.6937,5.7207,5.7223,5.7005,5.6553,5.607,5.5458,5.4891,5.4433,5.3571,5.2231,5.2069,5.1548,5.0584,5.0626,5.0911,5.1285,5.1258,5.1038,5.073,5.0341,4.9985,4.9645,4.8981,4.8393,4.8013,4.7088,4.6139,4.5301,4.3655,4.2434,4.1814,4.0778,4.0182,4.0104,4.0452,4.0619,4.0406,4.0492,4.0641,4.0604,4.0492,4.021,4.0013,3.9957,3.9957,3.9943,4.0196,4.0322,4.035,4.0561,4.053,4.0097,4.0009,3.9821,3.9394,3.9127,3.8859,3.8578,3.8069,3.7787,3.783,3.834,3.873,3.873,3.8981,3.8991,3.872,3.862,3.8712,3.8409,3.8185,3.7974,3.7974,3.7974,3.7974,3.7974,3.7974,3.7974,3.7974,3.7974,3.788,3.7785,3.7785,3.7679,3.756,3.7441,3.7453,3.7358,3.7251,3.7358,6.5078,6.467,6.5184,6.4953,6.412,6.2789,6.2098,6.1734,6.1007,6.0512,6.0388,6.0297,5.9581,5.8605,5.8269,5.7824,5.7361,5.7672,5.7636,5.7423,5.8021,5.8099,5.7808,5.7808,5.7881,5.7881,5.7865,5.7497,5.6697,5.5814,5.5166,5.4745,5.4825,5.3948,5.2296,5.2048,5.1577,5.0746,5.0519,5.0746,5.1345,5.128,5.1183,5.1135,5.0681,5.0406,5.039,4.9888,4.9393,4.8946,4.8219,4.7381,4.6345,4.4428,4.3115,4.2565,4.1404,4.0728,4.0887,4.1192,4.1299,4.1179,4.1334,4.1297,4.11,4.0859,4.0702,4.0674,4.0702,4.0674,4.0702,4.0702,4.0702,4.0702,4.0702,4.0516,4.0097,4.0009,3.9821,3.9394,3.9203,3.8935,3.8396,3.8132,3.7871,3.7468,3.7676,3.8002,3.804,3.8279,3.8315,3.7935,3.816,3.8423,3.8255,3.8092,3.7974,3.7974,3.7974,3.7974,3.7974,3.7974,3.7974,3.7974,3.7986,3.7892,3.7691,3.7584,3.737,3.7251,3.7131,3.7024,3.7036,3.7024,3.6916,6.5768,6.5668,6.5786,6.5294,6.4492,6.3618,6.2808,6.2044,6.1156,6.0714,6.0609,6.0547,6.0343,5.992,5.9596,5.9366,5.9163,5.9095,5.8892,5.8547,5.8509,5.8419,5.8171,5.7971,5.7881,5.7881,5.7881,5.7514,5.668,5.5814,5.5393,5.5345,5.5296,5.4972,5.4098,5.3434,5.2835,5.1993,5.1475,5.1442,5.1944,5.1491,5.1232,5.1183,5.1135,5.107,5.1086,5.1086,5.0795,5.0165,4.8758,4.7556,4.6513,4.4512,4.3278,4.2952,4.2407,4.2237,4.2615,4.2295,4.2034,4.1951,4.1619,4.141,4.1311,4.0958,4.0702,4.0702,4.0702,4.0702,4.0702,4.0702,4.0702,4.0702,4.0702,4.0516,4.0083,3.9996,3.9733,3.938,3.91,3.8652,3.7795,3.7997,3.7851,3.7417,3.7626,3.7927,3.7877,3.7779,3.7642,3.739,3.7531,3.7721,3.7947,3.7986,3.7974,3.7974,3.7974,3.7962,3.7974,3.7974,3.7974,3.7974,3.7785,3.7691,3.7584,3.737,3.7143,3.7024,3.7024,3.6916,3.67,3.6712,3.6592,6.5804,6.5804,6.5804,6.5625,6.5233,6.3948,6.3216,6.2816,6.1568,6.0956,6.0914,6.0775,6.0574,6.0423,6.0188,5.9866,5.952,5.947,5.9301,5.8875,5.8719,5.8456,5.8171,5.7971,5.7881,5.7881,5.7881,5.7514,5.668,5.6149,5.5669,5.5409,5.5409,5.5086,5.4486,5.4146,5.3434,5.2349,5.2381,5.2252,5.1685,5.1734,5.1637,5.1216,5.1183,5.1183,5.1183,5.1183,5.094,5.048,4.966,4.8545,4.7044,4.5096,4.3642,4.3131,4.3195,4.3224,4.3007,4.2803,4.2484,4.2136,4.1662,4.141,4.1326,4.0972,4.0702,4.0716,4.0716,4.0702,4.0702,4.0702,4.0702,4.0702,4.0702,4.063,4.0284,4.0097,3.9922,3.9584,3.9203,3.8549,3.7965,3.7766,3.751,3.6912,3.7136,3.7299,3.7236,3.7567,3.7729,3.7022,3.7237,3.7454,3.6904,3.7625,3.7974,3.7974,3.7974,3.7938,3.7926,3.7914,3.7902,3.789,3.7713,3.7477,3.7262,3.6928,3.67,3.67,3.67,3.6592,3.6483,3.6375,3.6168,6.5804,6.5804,6.5804,6.5804,6.5607,6.4091,6.3555,6.3538,6.1896,6.1236,6.1397,6.1081,6.0757,6.0609,6.0503,6.0188,5.9718,5.9652,5.9453,5.9098,5.8858,5.8597,5.8331,5.8116,5.7954,5.7881,5.7735,5.7364,5.6757,5.6307,5.583,5.5409,5.5409,5.5199,5.4778,5.4535,5.3855,5.3126,5.3207,5.2819,5.2009,5.2074,5.1993,5.1556,5.1297,5.1183,5.1183,5.1183,5.0956,5.0386,4.9899,4.8655,4.667,4.5122,4.3976,4.3357,4.3294,4.3282,4.3021,4.2803,4.2528,4.215,4.1745,4.1523,4.1624,4.1156,4.0886,4.0898,4.0786,4.0702,4.0702,4.0702,4.0702,4.0702,4.0702,4.063,4.0385,4.0198,3.9922,3.9571,3.9292,3.8729,3.8096,3.7756,3.7307,3.6628,3.693,3.6935,3.6601,3.6972,3.7406,3.6346,3.6488,3.6577,3.6386,3.6843,3.7216,3.7276,3.7397,3.7517,3.7637,3.7673,3.7757,3.7676,3.7547,3.7322,3.6939,3.6603,3.6375,3.6266,3.6157,3.6157,3.6059,3.584,3.573,6.5804,6.5804,6.5804,6.5804,6.559,6.4162,6.3895,6.4073,6.2182,6.1682,6.2039,6.1521,6.1127,6.0759,6.0795,6.0385,5.9919,5.9871,5.9621,5.9234,5.9012,5.8806,5.8473,5.826,5.8044,5.7881,5.7514,5.7139,5.668,5.6307,5.591,5.5491,5.5409,5.5377,5.5377,5.4794,5.4422,5.4146,5.3709,5.3304,5.3207,5.2527,5.2139,5.2009,5.1491,5.1183,5.1183,5.1183,5.0788,5.001,4.9347,4.7715,4.5672,4.4655,4.4109,4.3573,4.2777,4.2528,4.2876,4.2513,4.2281,4.2121,4.1843,4.1906,4.191,4.1454,4.1198,4.1221,4.0983,4.0702,4.0702,4.0702,4.0702,4.0702,4.0702,4.063,4.0471,4.0198,3.9834,3.9469,3.9305,3.8935,3.8381,3.7913,3.7479,3.6993,3.6943,3.6939,3.6301,3.6615,3.6186,3.5551,3.5682,3.5982,3.5942,3.6014,3.623,3.6411,3.6579,3.6723,3.6892,3.6988,3.7288,3.728,3.7405,3.7096,3.6712,3.6375,3.6375,3.6266,3.6048,3.584,3.584,3.5742,3.5522,6.5804,6.5804,6.5804,6.5804,6.5661,6.4662,6.4394,6.4465,6.3181,6.2538,6.236,6.2556,6.2213,6.1698,6.1919,6.1548,6.0485,6.0384,6.0006,5.9388,5.8996,5.8771,5.849,5.826,5.8116,5.7881,5.7825,5.7348,5.6757,5.6541,5.6132,5.5572,5.5409,5.5409,5.5393,5.5199,5.4907,5.4422,5.4179,5.3612,5.2673,5.2195,5.1839,5.1539,5.1145,5.0972,5.0972,5.0972,5.0711,5.0136,4.9631,4.8244,4.6112,4.4946,4.4206,4.3691,4.369,4.3364,4.2977,4.2818,4.2498,4.2295,4.2302,4.2107,4.1767,4.1739,4.1453,4.1196,4.08,4.0702,4.0702,4.0702,4.073,4.0716,4.0702,4.0702,4.0544,4.027,3.9821,3.9394,3.9305,3.8935,3.8381,3.8004,3.7583,3.7071,3.6952,3.6796,3.6467,3.6641,3.6566,3.5539,3.5634,3.5572,3.5437,3.5425,3.5521,3.5761,3.5942,3.6062,3.6206,3.6447,3.6735,3.7008,3.7027,3.6811,3.6437,3.6266,3.6266,3.6145,3.5916,3.5829,3.5742,3.5533,3.5202,6.5804,6.5804,6.5804,6.5804,6.5714,6.4947,6.4787,6.4858,6.3859,6.327,6.3216,6.3288,6.296,6.2425,6.2616,6.1963,6.0819,6.0649,6.0097,5.927,5.8978,5.8771,5.8561,5.8331,5.8116,5.7954,5.7881,5.7514,5.6774,5.6697,5.629,5.5491,5.5409,5.5409,5.5409,5.5393,5.5166,5.4826,5.4762,5.4002,5.2854,5.2469,5.2017,5.121,5.1048,5.0972,5.0912,5.082,5.0557,4.9995,4.9501,4.831,4.6727,4.5622,4.4653,4.4035,4.3598,4.3361,4.3076,4.2963,4.2992,4.289,4.2996,4.3113,4.2611,4.2466,4.1866,4.1592,4.128,4.1039,4.1039,4.1039,4.1039,4.1053,4.0828,4.0716,4.053,4.027,3.9834,3.9584,3.9394,3.8948,3.8485,3.8122,3.7675,3.7204,3.7127,3.6701,3.6481,3.6799,3.6296,3.5685,3.5246,3.5076,3.4895,3.4871,3.4859,3.5112,3.5376,3.5485,3.5605,3.5918,3.623,3.6656,3.6897,3.6624,3.6241,3.6306,3.6266,3.6025,3.5825,3.5609,3.5423,3.5091,3.4869,6.5804,6.5804,6.5804,6.5804,6.5714,6.5036,6.5126,6.5465,6.4305,6.3966,6.4269,6.3966,6.3405,6.2981,6.2982,6.2252,6.1028,6.0911,6.0255,5.9461,5.9099,5.8961,5.8648,5.8331,5.8044,5.7954,5.7881,5.7439,5.6757,5.6697,5.629,5.5491,5.5409,5.5409,5.5409,5.5409,5.5377,5.5328,5.528,5.4374,5.3069,5.2939,5.2469,5.1073,5.1005,5.0972,5.0836,5.0589,5.0184,4.9597,4.8953,4.824,4.7507,4.6407,4.5288,4.4436,4.3242,4.305,4.3033,4.3166,4.3253,4.3602,4.3776,4.4052,4.3733,4.2782,4.2194,4.2216,4.1829,4.1545,4.1545,4.1643,4.1629,4.1516,4.1039,4.0658,4.0399,4.0198,3.9936,3.9686,3.9496,3.9127,3.8589,3.8304,3.7703,3.7215,3.7274,3.675,3.6076,3.6086,3.6196,3.5781,3.5101,3.4919,3.4823,3.4823,3.4823,3.4895,3.5076,3.5124,3.5232,3.5545,3.5621,3.6149,3.6508,3.626,3.5964,3.5926,3.5898,3.5614,3.5369,3.5311,3.5091,3.4969,3.4747,6.5804,6.5804,6.5804,6.5804,6.5786,6.5554,6.559,6.575,6.5358,6.4894,6.4688,6.4892,6.445,6.3884,6.4013,6.3534,6.2527,6.2126,6.1293,6.003,5.9735,5.9181,5.8433,5.8099,5.7954,5.7881,5.7881,5.7514,5.6774,5.6697,5.6211,5.5409,5.5409,5.5409,5.5409,5.5409,5.5409,5.5312,5.4713,5.4293,5.3616,5.2509,5.1757,5.1499,5.0861,5.0605,5.0434,5.0089,4.9757,4.9405,4.8631,4.7997,4.7619,4.6697,4.5915,4.5281,4.4623,4.4177,4.3986,4.3803,4.3631,4.3326,4.3834,4.3459,4.2353,4.2353,4.1924,4.1564,4.1362,4.1615,4.1699,4.2008,4.205,4.1629,4.1067,4.063,4.0371,4.0198,3.9922,3.9686,3.9482,3.9127,3.8679,3.8226,3.7675,3.7096,3.6846,3.6653,3.5843,3.5499,3.5593,3.5318,3.4859,3.4847,3.4823,3.4823,3.4823,3.4823,3.4883,3.4907,3.5088,3.5266,3.5294,3.5306,3.5838,3.5759,3.534,3.5106,3.5081,3.5135,3.5103,3.4994,3.5266,3.5279,3.4958,6.5804,6.5804,6.5804,6.5804,6.5804,6.5804,6.5804,6.5804,6.5786,6.5572,6.5223,6.5361,6.5148,6.4615,6.4564,6.3991,6.3066,6.2714,6.1914,6.0789,6.0007,5.9173,5.8413,5.8027,5.7971,5.7881,5.7735,5.7289,5.6757,5.6541,5.6053,5.5475,5.5409,5.5409,5.5409,5.5409,5.5409,5.5328,5.481,5.4454,5.3808,5.2941,5.2317,5.1949,5.1231,5.0769,5.0326,4.9931,4.9597,4.9374,4.8851,4.8472,4.8167,4.7323,4.6631,4.6109,4.5415,4.4892,4.4745,4.453,4.4197,4.3935,4.4124,4.356,4.2639,4.231,4.1824,4.1524,4.1759,4.1812,4.1713,4.1966,4.1966,4.1615,4.1053,4.0644,4.0558,4.0371,4.011,3.9848,3.9584,3.923,3.8692,3.82,3.7609,3.7033,3.6733,3.6137,3.5489,3.5254,3.5107,3.4894,3.4823,3.4823,3.4823,3.4823,3.4823,3.4823,3.4823,3.4823,3.487,3.5122,3.5051,3.5011,3.5298,3.5303,3.4774,3.4544,3.4635,3.4713,3.4778,3.486,3.505,3.5311,3.5002,6.5804,6.5804,6.5804,6.5804,6.5804,6.5804,6.5804,6.5804,6.574,6.5722,6.5686,6.5492,6.5278,6.5216,6.4584,6.3904,6.3188,6.292,6.2168,6.1232,6.0189,5.917,5.8494,5.8167,5.7971,5.7808,5.7422,5.7063,5.6603,5.6228,5.591,5.5491,5.5409,5.5409,5.5409,5.5409,5.5409,5.5409,5.5279,5.4743,5.4079,5.3711,5.3147,5.2424,5.1646,5.0961,5.0342,5.001,4.9836,4.9613,4.9437,4.9147,4.8856,4.807,4.7512,4.6857,4.6107,4.5495,4.5375,4.5172,4.4835,4.4646,4.4456,4.4136,4.3141,4.2338,4.1723,4.1552,4.2237,4.2317,4.2275,4.2022,4.2022,4.1924,4.1334,4.0856,4.07,4.06,4.0298,4.0009,3.9862,3.9332,3.8859,3.8304,3.7769,3.6937,3.6547,3.6149,3.5623,3.54,3.5134,3.4798,3.4823,3.4823,3.4823,3.4823,3.4823,3.4823,3.4823,3.4738,3.4688,3.4805,3.4845,3.4881,3.4774,3.4481,3.4106,3.3982,3.4177,3.4404,3.455,3.455,3.4564,3.4823,3.4759,6.5804,6.5804,6.5804,6.5804,6.5804,6.5804,6.5804,6.5804,6.5657,6.5593,6.5528,6.5265,6.5131,6.5064,6.4516,6.4147,6.3813,6.3401,6.2798,6.1679,6.0237,5.9383,5.8773,5.8276,5.7735,5.7497,5.7364,5.6911,5.6385,5.607,5.583,5.5507,5.5409,5.5409,5.5409,5.5409,5.5409,5.5409,5.5262,5.495,5.4461,5.393,5.3446,5.2796,5.1849,5.0882,5.0169,4.9916,4.9916,4.9836,4.9597,4.9387,4.9015,4.881,4.8373,4.7814,4.7177,4.6703,4.6416,4.5566,4.482,4.4659,4.3848,4.2941,4.2351,4.1738,4.1227,4.1268,4.191,4.2823,4.3455,4.3301,4.2964,4.2654,4.198,4.1348,4.1233,4.0751,4.0326,4.0009,3.9848,3.9496,3.8922,3.8381,3.7769,3.6904,3.6405,3.6063,3.5832,3.5475,3.516,3.4835,3.4823,3.4823,3.4823,3.4823,3.4823,3.4823,3.4823,3.4726,3.4676,3.4516,3.4532,3.4334,3.4076,3.3789,3.3602,3.3579,3.3763,3.3994,3.4368,3.446,3.4616,3.469,3.4615,6.5657,6.5657,6.5722,6.5804,6.5804,6.5722,6.5657,6.5593,6.5462,6.5397,6.5331,6.5149,6.4997,6.4929,6.4463,6.4198,6.4109,6.3802,6.3039,6.1975,6.0716,5.9814,5.901,5.8304,5.7662,5.7289,5.7063,5.6697,5.6244,5.591,5.5653,5.5409,5.5409,5.5409,5.5409,5.5409,5.5409,5.5409,5.5344,5.5113,5.4701,5.4377,5.3681,5.3207,5.2349,5.1654,5.1022,5.0579,5.0469,5.0247,4.9946,4.9452,4.921,4.9128,4.8883,4.8301,4.7709,4.7193,4.6695,4.5903,4.5064,4.4582,4.3715,4.305,4.2361,4.1736,4.1338,4.132,4.205,4.3062,4.4172,4.3512,4.3174,4.2907,4.2233,4.1471,4.1061,4.0667,4.0298,4.0023,3.9848,3.9407,3.8859,3.8485,3.7651,3.6772,3.6301,3.6022,3.5332,3.5064,3.5052,3.4871,3.4835,3.4823,3.4823,3.4823,3.4823,3.4823,3.4823,3.4628,3.4555,3.4359,3.4186,3.4,3.3825,3.3615,3.3384,3.3338,3.3465,3.3743,3.4071,3.4487,3.456,3.4436,3.4505,6.5445,6.5462,6.5657,6.5722,6.5675,6.5528,6.5462,6.5462,6.5349,6.5282,6.5216,6.5082,6.4929,6.4861,6.4393,6.4198,6.4037,6.3785,6.3073,6.2392,6.1251,6.033,5.9446,5.8496,5.7588,5.7214,5.6927,5.6463,5.599,5.5669,5.5491,5.5409,5.5409,5.5409,5.5409,5.5409,5.5409,5.5409,5.5409,5.518,5.488,5.4733,5.4162,5.3271,5.2997,5.2523,5.1859,5.1401,5.1085,5.0943,5.0229,4.9674,4.9356,4.9194,4.9031,4.837,4.7624,4.7106,4.6697,4.5856,4.4953,4.4579,4.3934,4.348,4.2895,4.2312,4.1815,4.1713,4.2149,4.2921,4.4102,4.3554,4.295,4.2725,4.2247,4.1453,4.0806,4.0451,4.029,4.0023,3.976,3.9421,3.8948,3.8485,3.7559,3.6815,3.6345,3.5787,3.5211,3.4835,3.4871,3.5004,3.5016,3.5112,3.5136,3.4823,3.4823,3.4726,3.4726,3.4531,3.4335,3.415,3.3965,3.3779,3.3592,3.3381,3.3281,3.3304,3.341,3.3561,3.3695,3.3949,3.4117,3.415,3.4307,6.5349,6.5349,6.5349,6.5415,6.5415,6.5331,6.5331,6.5282,6.5131,6.5064,6.4997,6.4861,6.4792,6.4655,6.4393,6.4054,6.382,6.3565,6.344,6.2787,6.1662,6.0569,5.9956,5.8666,5.7598,5.697,5.668,5.6307,5.5733,5.5426,5.5409,5.5409,5.5409,5.5409,5.5409,5.5409,5.5409,5.5409,5.5409,5.5262,5.5047,5.4765,5.429,5.3281,5.3234,5.2855,5.2286,5.1938,5.1591,5.1037,5.0879,5.0228,4.9497,4.9128,4.8883,4.8453,4.7523,4.7019,4.6711,4.5401,4.4772,4.4428,4.382,4.3432,4.3167,4.2767,4.2247,4.184,4.191,4.2528,4.4186,4.3638,4.3371,4.3259,4.2838,4.2182,4.1299,4.0719,4.0274,3.9843,3.97,3.951,3.9051,3.8498,3.7756,3.7002,3.6439,3.5775,3.5017,3.4835,3.4871,3.5052,3.5256,3.5388,3.5521,3.5064,3.4823,3.4726,3.4628,3.4445,3.4249,3.3965,3.3679,3.358,3.3492,3.3381,3.3281,3.3281,3.3433,3.3674,3.3605,3.3529,3.3933,3.4185,3.3987,6.5149,6.5131,6.5282,6.5282,6.5265,6.5216,6.5149,6.5149,6.4929,6.4861,6.4792,6.4724,6.4706,6.4585,6.4322,6.3982,6.3673,6.36,6.3526,6.3159,6.2039,6.1069,6.0472,5.9078,5.7859,5.7027,5.6697,5.6211,5.5491,5.5409,5.5409,5.5409,5.5409,5.5409,5.5409,5.5409,5.5409,5.5409,5.5409,5.5262,5.5113,5.4781,5.4189,5.3809,5.3597,5.3423,5.3155,5.2697,5.2254,5.1622,5.1083,5.0304,4.959,4.9031,4.8702,4.8453,4.7523,4.6931,4.6653,4.5457,4.4712,4.4656,4.404,4.3758,4.3708,4.3399,4.2767,4.2317,4.2135,4.2444,4.3343,4.3441,4.3357,4.3076,4.2733,4.2119,4.1245,4.0536,4.0042,3.9578,3.9523,3.9319,3.8975,3.8408,3.7939,3.7281,3.6628,3.5775,3.492,3.4919,3.498,3.5268,3.5473,3.5388,3.5461,3.5124,3.4823,3.4726,3.4543,3.4347,3.4064,3.3866,3.3679,3.3481,3.3381,3.3373,3.3281,3.3292,3.349,3.3697,3.3706,3.3776,3.4059,3.4208,3.3963,6.4929,6.4911,6.4972,6.5074,6.5114,6.4997,6.4929,6.4929,6.4775,6.4706,6.4706,6.4706,6.4706,6.4585,6.4305,6.3965,6.36,6.36,6.36,6.3279,6.233,6.1479,6.058,5.9445,5.8068,5.6823,5.6541,5.6132,5.5572,5.5409,5.5409,5.5409,5.5409,5.5409,5.5409,5.5409,5.5409,5.5409,5.5409,5.5262,5.5014,5.4681,5.4327,5.4103,5.4103,5.404,5.3882,5.355,5.2807,5.2013,5.1316,5.0524,4.9543,4.9031,4.8785,4.8453,4.7523,4.7004,4.6565,4.5656,4.4883,4.4847,4.4597,4.4383,4.4228,4.3778,4.3301,4.2978,4.2416,4.2654,4.316,4.3062,4.2845,4.26,4.2196,4.1737,4.0818,4.0227,3.9809,3.953,3.9346,3.923,3.8962,3.8602,3.8044,3.7294,3.6628,3.587,3.5151,3.5088,3.5244,3.5569,3.5665,3.5412,3.528,3.5064,3.4859,3.4823,3.4543,3.4261,3.4064,3.3779,3.3603,3.3461,3.3623,3.3579,3.3442,3.335,3.3579,3.3697,3.3716,3.3872,3.417,3.3945,3.3598,6.4724,6.4653,6.4072,6.4177,6.4722,6.474,6.4706,6.4671,6.4688,6.4706,6.4706,6.4706,6.4724,6.4585,6.434,6.3965,6.3673,6.36,6.3452,6.3182,6.2392,6.1507,6.0466,5.9069,5.7983,5.6812,5.6385,5.591,5.5491,5.5409,5.5409,5.5409,5.5409,5.5409,5.5409,5.5409,5.5409,5.5409,5.5409,5.5262,5.488,5.4797,5.4544,5.4274,5.4103,5.4103,5.4103,5.3866,5.3313,5.2159,5.1954,5.1064,4.988,4.9517,4.9097,4.8521,4.7694,4.6931,4.6653,4.5671,4.494,4.4862,4.4583,4.4411,4.4256,4.3905,4.361,4.4158,4.2795,4.2345,4.2978,4.246,4.2077,4.1973,4.1848,4.1093,4.0296,3.9953,3.9625,3.9516,3.9319,3.9305,3.923,3.8782,3.8239,3.7387,3.6546,3.58,3.5442,3.5598,3.5569,3.5893,3.593,3.5689,3.5304,3.5052,3.4882,3.481,3.4481,3.4245,3.417,3.4028,3.3631,3.3522,3.3729,3.3843,3.374,3.3683,3.366,3.3652,3.3862,3.3983,3.4073,3.3791,3.3173,6.4706,6.4618,6.3425,6.3354,6.4039,6.4074,6.4074,6.4162,6.453,6.4706,6.4706,6.4706,6.4585,6.4463,6.4269,6.3892,6.3526,6.3469,6.3302,6.3134,6.248,6.1647,6.0561,5.9422,5.8264,5.6895,5.6307,5.591,5.5572,5.5409,5.5409,5.5409,5.5409,5.5409,5.5409,5.5409,5.5409,5.5409,5.5409,5.5262,5.5031,5.488,5.4629,5.4258,5.4173,5.4103,5.4103,5.4087,5.3392,5.2317,5.2017,5.1272,4.9974,4.9421,4.9097,4.8453,4.7949,4.7264,4.6476,4.5398,4.4926,4.4648,4.4476,4.4411,4.4284,4.3849,4.3357,4.3301,4.2331,4.2078,4.2359,4.1821,4.1733,4.1508,4.1349,4.0907,4.0234,3.9734,3.9495,3.94,3.9305,3.9305,3.9216,3.8859,3.8317,3.7572,3.6823,3.6273,3.6088,3.636,3.6343,3.6266,3.6182,3.599,3.5533,3.5172,3.4999,3.4927,3.4477,3.4346,3.4524,3.4391,3.3991,3.3993,3.4337,3.4326,3.413,3.4039,3.4016,3.4014,3.3937,3.4066,3.4054,3.3332,3.254,6.4355,6.4583,6.3249,6.3144,6.3863,6.3881,6.3898,6.3951,6.4232,6.4425,6.4443,6.4356,6.4236,6.4163,6.4037,6.3747,6.3302,6.3244,6.2939,6.2736,6.2387,6.1392,6.0148,5.9131,5.8196,5.6558,5.607,5.575,5.5491,5.5409,5.5409,5.5409,5.5409,5.5409,5.5409,5.5409,5.5409,5.5409,5.5409,5.5246,5.5113,5.488,5.4697,5.4428,5.4258,5.4103,5.4103,5.4103,5.3423,5.2317,5.2017,5.1288,4.9945,4.9517,4.9113,4.8537,4.8034,4.7351,4.6462,4.5475,4.4791,4.4372,4.4031,4.3849,4.4059,4.3624,4.316,4.2753,4.2064,4.1531,4.1306,4.1387,4.1183,4.1077,4.0824,4.0577,4.0316,3.9788,3.9481,3.9373,3.9305,3.9305,3.9216,3.8948,3.8408,3.7664,3.7062,3.653,3.6641,3.6867,3.6886,3.6711,3.6398,3.617,3.5689,3.529,3.5202,3.5027,3.4575,3.4551,3.4783,3.4716,3.436,3.459,3.49,3.4923,3.4796,3.4587,3.44,3.4324,3.4387,3.4247,3.3922,3.3075,3.1957,6.3389,6.4653,6.3811,6.3863,6.4548,6.4636,6.4566,6.4216,6.3898,6.3776,6.383,6.3553,6.3816,6.39,6.3664,6.3371,6.3216,6.3076,6.2412,6.1936,6.1694,6.0583,5.9349,5.8333,5.7608,5.6362,5.575,5.5507,5.5426,5.5409,5.5409,5.5409,5.5409,5.5409,5.5409,5.5409,5.5409,5.5409,5.5409,5.5328,5.5113,5.488,5.4713,5.4412,5.4258,5.4103,5.4103,5.4103,5.3471,5.2128,5.2017,5.1353,5.0056,4.9629,4.9194,4.862,4.8118,4.7437,4.6565,4.5808,4.5187,4.4234,4.3602,4.3413,4.3807,4.3104,4.2669,4.2514,4.1882,4.1755,4.1569,4.1481,4.104,4.0752,4.0589,4.0323,4.009,3.9788,3.9495,3.9359,3.94,3.9549,3.9514,3.9311,3.8746,3.807,3.7444,3.693,3.6822,3.7031,3.7236,3.7072,3.6675,3.629,3.5697,3.5454,3.5437,3.5242,3.5016,3.5058,3.5259,3.5051,3.4796,3.506,3.5324,3.5405,3.5344,3.504,3.4792,3.4775,3.4717,3.4263,3.3396,3.2458,3.1285,6.2722,6.3249,6.2968,6.3302,6.3969,6.3495,6.3234,6.3236,6.3308,6.3624,6.3886,6.3904,6.3623,6.3323,6.3003,6.2471,6.1816,6.1559,6.1146,6.0799,6.0374,5.9577,5.8502,5.7731,5.7036,5.6186,5.5653,5.5409,5.5409,5.5474,5.5409,5.5409,5.5474,5.5409,5.5409,5.5474,5.5442,5.5409,5.5409,5.5328,5.5262,5.4964,5.4713,5.4613,5.4258,5.4103,5.4103,5.4103,5.325,5.2428,5.2096,5.1195,5.0152,4.9772,4.9259,4.8702,4.8187,4.7523,4.6653,4.5851,4.5072,4.4514,4.3969,4.375,4.3821,4.316,4.2697,4.2303,4.1713,4.1545,4.1207,4.1145,4.0938,4.0697,4.0377,4.0152,3.9932,3.9775,3.9712,3.9671,3.9875,4.0092,4.0015,3.9846,3.9184,3.8436,3.7869,3.7281,3.7164,3.7012,3.7168,3.7216,3.6843,3.6555,3.5985,3.5747,3.558,3.5471,3.5268,3.5283,3.5305,3.5384,3.5301,3.5543,3.5646,3.5657,3.5585,3.533,3.5158,3.5072,3.4604,3.3971,3.2943,3.1862,3.083,6.2196,6.2371,6.2389,6.2845,6.346,6.2986,6.2813,6.2838,6.2925,6.3188,6.3519,6.3587,6.3496,6.2952,6.2478,6.2004,6.1289,6.0918,6.0384,6.0068,5.9672,5.8885,5.8071,5.7294,5.6613,5.5977,5.5653,5.5409,5.5409,5.562,5.5766,5.5798,5.5749,5.5766,5.5766,5.5717,5.5636,5.5458,5.5409,5.5409,5.5328,5.5047,5.4813,5.4713,5.4375,5.4103,5.4103,5.4055,5.355,5.2712,5.208,5.1401,5.0546,4.9739,4.921,4.8769,4.8286,4.7694,4.6814,4.5558,4.4783,4.4349,4.3793,4.3849,4.3821,4.3174,4.2584,4.2205,4.1573,4.1151,4.1011,4.1159,4.1132,4.0872,4.0577,4.0322,4.0109,3.9951,3.997,4.0038,4.0106,3.9943,3.987,3.9688,3.9495,3.8661,3.7813,3.7367,3.7167,3.7049,3.7048,3.7048,3.6916,3.6561,3.6345,3.5919,3.5518,3.536,3.519,3.5306,3.5315,3.5347,3.5347,3.5279,3.5416,3.5749,3.5562,3.4978,3.5102,3.5333,3.4569,3.3663,3.2623,3.1516,3.048,6.1704,6.2371,6.2319,6.2757,6.3322,6.353,6.3604,6.3554,6.2699,6.2248,6.2318,6.2485,6.2802,6.289,6.2072,6.1375,6.0977,6.0755,6.0234,5.9414,5.9198,5.8347,5.756,5.6792,5.6286,5.5571,5.5409,5.5409,5.5409,5.583,5.6138,5.6462,5.6494,5.6413,5.6446,5.6429,5.6073,5.5507,5.5409,5.5409,5.5328,5.5031,5.4813,5.4729,5.4375,5.4103,5.4103,5.4103,5.366,5.2997,5.2428,5.1749,5.0846,4.9909,4.9237,4.862,4.8286,4.7794,4.7178,4.536,4.459,4.4442,4.3913,4.3497,4.3441,4.2992,4.2626,4.2556,4.2275,4.191,4.1667,4.1574,4.1674,4.1183,4.0885,4.0595,4.0409,4.0087,4.0092,4.0296,3.9807,3.9414,3.9438,3.9449,3.9547,3.8925,3.7833,3.7417,3.7403,3.7236,3.724,3.7088,3.7016,3.6506,3.62,3.5821,3.5556,3.5293,3.5155,3.5096,3.5026,3.5014,3.4992,3.4969,3.5187,3.5508,3.5115,3.455,3.4865,3.5046,3.4267,3.3367,3.2217,3.1169,3.0363,5.9889,6.0114,6.0114,6.0634,6.1362,6.1856,6.208,6.1917,6.1762,6.1984,6.2436,6.2284,6.1832,6.1588,6.0813,5.9996,5.9432,5.9614,5.8996,5.8432,5.8527,5.7986,5.7217,5.6726,5.6154,5.5604,5.5426,5.5458,5.5426,5.5847,5.6154,5.6462,5.711,5.7029,5.6154,5.5766,5.5571,5.5442,5.5409,5.5409,5.5328,5.5047,5.4813,5.4813,5.4359,5.4103,5.4103,5.4103,5.3787,5.3265,5.2744,5.2077,5.1127,5.0141,4.9548,4.8856,4.8301,4.7779,4.7076,4.5887,4.5168,4.4741,4.4245,4.3778,4.4017,4.3526,4.3315,4.3315,4.3287,4.3055,4.311,4.336,4.3214,4.192,4.1421,4.1046,4.0777,4.0346,4.0173,4.0485,4.0323,4.0083,3.9968,3.9984,4.0013,3.9926,3.903,3.8417,3.8206,3.7898,3.7721,3.7472,3.7187,3.6582,3.6042,3.5765,3.5257,3.4946,3.4866,3.4854,3.4831,3.475,3.4819,3.4888,3.506,3.521,3.4815,3.457,3.4803,3.4703,3.4069,3.314,3.1988,3.1053,3.0363,5.9409,5.9357,5.9116,5.9288,5.984,6.0595,6.0717,6.0635,6.1014,6.1483,6.1507,6.1238,6.0901,6.0209,5.9447,5.8769,5.803,5.8181,5.8148,5.7604,5.7888,5.7641,5.7346,5.6969,5.6527,5.5976,5.5749,5.5733,5.5458,5.5685,5.6235,5.6964,5.7514,5.6931,5.6219,5.6089,5.5976,5.5701,5.5409,5.5328,5.518,5.4948,5.4729,5.4629,5.4359,5.4103,5.4103,5.4024,5.3897,5.3502,5.3092,5.2503,5.1356,5.0465,4.976,4.8934,4.8462,4.8015,4.7496,4.6605,4.597,4.5495,4.4846,4.4425,4.4467,4.4242,4.4186,4.4228,4.4326,4.4275,4.4297,4.465,4.4084,4.2791,4.189,4.1513,4.0876,4.0445,3.9916,4.0282,4.0363,4.0275,4.052,4.0656,4.0588,4.0473,4.0279,3.9639,3.8778,3.8246,3.7604,3.7108,3.692,3.6424,3.5862,3.5606,3.5165,3.4646,3.4567,3.4682,3.4636,3.4555,3.4682,3.4808,3.4934,3.4909,3.4687,3.4645,3.4631,3.4505,3.4148,3.3077,3.1737,3.1053,3.048,5.9995,5.9891,5.9237,5.8875,5.9082,5.9702,6.0029,6.0167,6.0679,6.0301,5.9423,5.9734,5.9516,5.9122,5.8477,5.7985,5.78,5.7689,5.751,5.7478,5.7718,5.7683,5.7712,5.7563,5.7045,5.6672,5.6429,5.6219,5.5652,5.6203,5.6899,5.7126,5.711,5.6656,5.651,5.6527,5.6316,5.5701,5.5409,5.5344,5.5113,5.4964,5.4697,5.4513,5.4258,5.4103,5.4103,5.4071,5.4071,5.3834,5.3502,5.2639,5.1748,5.0892,4.9776,4.8967,4.8663,4.858,4.8117,4.719,4.6437,4.5724,4.503,4.4631,4.4481,4.465,4.4734,4.5015,4.524,4.5127,4.5074,4.5011,4.4967,4.3657,4.2521,4.1773,4.1015,4.0431,3.9753,3.9631,3.9576,3.9744,4.0556,4.0869,4.0965,4.124,4.0828,3.9741,3.8898,3.7855,3.7172,3.6343,3.6203,3.6157,3.5783,3.5282,3.4981,3.4428,3.4406,3.4463,3.4406,3.4498,3.467,3.4808,3.4796,3.4806,3.4949,3.4764,3.4434,3.4285,3.417,3.3201,3.1988,3.1295,3.0597,5.8113,5.8079,5.7876,5.7792,5.7825,5.8028,5.862,5.9511,5.9621,5.9295,5.8992,5.858,5.8287,5.8232,5.7511,5.7102,5.7167,5.731,5.7537,5.7583,5.7729,5.8113,5.8259,5.8081,5.7514,5.7029,5.6786,5.6721,5.6413,5.6834,5.6818,5.677,5.6899,5.6543,5.6349,5.6446,5.6041,5.5619,5.5344,5.5262,5.5031,5.488,5.4597,5.4412,5.4157,5.4103,5.4103,5.4103,5.4103,5.4008,5.3913,5.337,5.2439,5.1512,5.0521,4.9304,4.9137,4.8999,4.8222,4.7717,4.6972,4.5852,4.5171,4.4884,4.465,4.4692,4.5057,4.5535,4.6012,4.5956,4.5986,4.5998,4.5451,4.4345,4.3081,4.2018,4.1272,4.0662,4.0024,3.9861,3.978,4.016,4.0906,4.0908,4.11,4.1563,4.1341,4.0185,3.9,3.7892,3.702,3.6121,3.5596,3.569,3.519,3.468,3.4485,3.4279,3.4372,3.4567,3.4682,3.4785,3.4808,3.4806,3.4861,3.5119,3.5443,3.5128,3.4547,3.4439,3.4278,3.3254,3.2342,3.1526,3.0713,5.6854,5.6837,5.6837,5.7022,5.7197,5.7214,5.7574,5.8043,5.8169,5.8057,5.781,5.7367,5.7035,5.6857,5.6466,5.6205,5.6089,5.6415,5.6527,5.6705,5.7547,5.7547,5.7773,5.8016,5.7466,5.7045,5.6753,5.6608,5.6462,5.6429,5.6446,5.6575,5.6751,5.6314,5.5956,5.5808,5.5516,5.5341,5.5196,5.5097,5.4931,5.4697,5.4513,5.4343,5.4173,5.4103,5.4103,5.4103,5.4103,5.4103,5.4103,5.367,5.2722,5.1793,5.1126,5.012,5.0089,4.9464,4.8599,4.8267,4.6973,4.5779,4.5261,4.5057,4.4973,4.4945,4.5464,4.5998,4.6476,4.6785,4.6991,4.7012,4.5965,4.4911,4.3588,4.2277,4.1637,4.0947,4.0662,4.0499,4.0621,4.0933,4.115,4.1191,4.1315,4.1729,4.135,4.0055,3.8847,3.7718,3.7038,3.6247,3.5607,3.5236,3.4774,3.459,3.4659,3.4705,3.4923,3.5072,3.5095,3.5279,3.5379,3.5283,3.5153,3.5289,3.5387,3.5089,3.4681,3.4547,3.43,3.3614,3.2571,3.1526,3.0713,5.6084,5.6084,5.6044,5.6371,5.6837,5.6778,5.6553,5.6165,5.6746,5.6697,5.634,5.6102,5.5944,5.5799,5.5587,5.5539,5.5587,5.5717,5.5944,5.5555,5.6478,5.6883,5.7191,5.7174,5.7191,5.6786,5.6624,5.6753,5.5894,5.591,5.6134,5.6346,5.5663,5.5403,5.5625,5.5268,5.5008,5.4928,5.4864,5.4848,5.4581,5.4412,5.4327,5.4189,5.4103,5.4103,5.4103,5.4103,5.4103,5.4103,5.4024,5.3654,5.2668,5.1826,5.1221,5.0888,5.0772,4.9761,4.884,4.8472,4.7128,4.6068,4.5282,4.5155,4.5015,4.4874,4.5296,4.6223,4.6757,4.7193,4.7399,4.6863,4.5912,4.494,4.3739,4.2753,4.2195,4.1584,4.1245,4.1082,4.1082,4.1462,4.2276,4.2303,4.1981,4.2147,4.1371,3.9984,3.8819,3.7679,3.7096,3.6495,3.616,3.5721,3.543,3.535,3.5187,3.5313,3.5462,3.5577,3.5588,3.5768,3.6122,3.5734,3.5323,3.5176,3.5157,3.4847,3.4593,3.4569,3.43,3.384,3.2913,3.1747,3.0713,5.4924,5.4924,5.4924,5.5264,5.5895,5.5622,5.5719,5.607,5.5814,5.5685,5.5637,5.5556,5.5491,5.5409,5.5409,5.5409,5.5409,5.5442,5.5749,5.596,5.6365,5.6459,5.7077,5.7042,5.7029,5.6915,5.6899,5.6864,5.6308,5.5931,5.5702,5.5846,5.5217,5.5073,5.5201,5.4729,5.4713,5.4528,5.4513,5.4597,5.4412,5.4412,5.4327,5.4173,5.4103,5.4103,5.4103,5.4103,5.4103,5.4103,5.4103,5.3467,5.2512,5.2035,5.1513,5.1119,5.0789,4.9729,4.8776,4.8304,4.7353,4.5846,4.5001,4.4902,4.4804,4.4692,4.5141,4.6195,4.6982,4.7417,4.7457,4.6698,4.5928,4.4969,4.3905,4.3245,4.2712,4.2263,4.1856,4.1707,4.1612,4.2249,4.3034,4.3143,4.2796,4.2125,4.1134,4.0045,3.8888,3.7864,3.7286,3.6858,3.6748,3.6438,3.6151,3.5875,3.5749,3.5738,3.5853,3.5956,3.6048,3.6054,3.5961,3.5742,3.5477,3.5202,3.498,3.4736,3.4613,3.4524,3.43,3.3952,3.313,3.1977,3.0946,5.3566,5.3599,5.3914,5.437,5.4721,5.4591,5.4665,5.4772,5.4583,5.4681,5.5005,5.5247,5.5393,5.5393,5.5409,5.5409,5.5409,5.5409,5.5571,5.5895,5.6023,5.6021,5.6344,5.6553,5.6031,5.5986,5.6063,5.6075,5.6119,5.5729,5.5277,5.5256,5.4857,5.4613,5.4613,5.4528,5.4444,5.4242,5.4242,5.4242,5.4258,5.4258,5.4242,5.4103,5.4103,5.4103,5.4103,5.4103,5.4103,5.4103,5.4103,5.375,5.302,5.2417,5.194,5.1407,5.0668,4.9628,4.8497,4.7934,4.7425,4.5931,4.538,4.5549,4.5858,4.5774,4.538,4.6321,4.6912,4.7361,4.7516,4.6951,4.6194,4.5218,4.4153,4.3328,4.308,4.29,4.2575,4.2371,4.2561,4.3185,4.3683,4.353,4.3203,4.2729,4.1588,4.0208,3.9046,3.8248,3.7638,3.7265,3.7276,3.7046,3.6633,3.6381,3.6197,3.622,3.622,3.6065,3.5956,3.5904,3.5742,3.5522,3.5202,3.498,3.4758,3.4635,3.4524,3.4524,3.43,3.4065,3.313,3.2322,3.1295,5.2352,5.2418,5.298,5.3404,5.3711,5.376,5.3628,5.3369,5.3353,5.3693,5.426,5.4826,5.5183,5.5393,5.5409,5.5409,5.5409,5.5409,5.5474,5.5409,5.5276,5.547,5.5371,5.5092,5.504,5.5056,5.5037,5.5037,5.4952,5.4756,5.4756,5.4645,5.4513,5.4327,5.4327,5.4258,5.4103,5.4189,5.4189,5.4103,5.4103,5.4103,5.4103,5.4103,5.4103,5.4103,5.4103,5.4103,5.4103,5.4103,5.4103,5.3782,5.3146,5.2464,5.2017,5.1347,5.0366,4.9176,4.8258,4.8224,4.7205,4.6231,4.6264,4.6364,4.6602,4.6546,4.6153,4.6364,4.6954,4.7277,4.7431,4.7191,4.6433,4.5522,4.4428,4.3465,4.3518,4.3389,4.3145,4.2941,4.3497,4.4081,4.3962,4.3781,4.3387,4.301,4.1979,4.058,3.9474,3.8894,3.8367,3.8022,3.7885,3.7563,3.7253,3.6932,3.6748,3.6518,3.6484,3.615,3.584,3.5632,3.5412,3.5202,3.498,3.4758,3.4635,3.4524,3.4524,3.4524,3.4412,3.4177,3.348,3.2561,3.1642,5.1924,5.1941,5.2251,5.2548,5.2747,5.2948,5.3139,5.3256,5.3272,5.3434,5.3452,5.3693,5.4227,5.5377,5.5409,5.5361,5.5247,5.5328,5.5409,5.5328,5.518,5.5113,5.4948,5.4797,5.4813,5.4713,5.4613,5.4497,5.4528,5.4359,5.4274,5.4274,5.4274,5.4189,5.4189,5.4103,5.4103,5.4103,5.4103,5.4103,5.4103,5.4103,5.4103,5.4103,5.4103,5.4103,5.4103,5.4103,5.4103,5.4103,5.4017,5.3742,5.3034,5.211,5.1475,5.088,4.9869,4.8901,4.8231,4.8047,4.6988,4.6474,4.6406,4.6392,4.6659,4.694,4.6771,4.6912,4.7361,4.7572,4.7642,4.7375,4.6713,4.5841,4.4867,4.4119,4.3813,4.3538,4.3267,4.3538,4.404,4.432,4.4232,4.4037,4.3768,4.3077,4.1928,4.0655,3.9667,3.9268,3.8987,3.8734,3.8459,3.8493,3.8344,3.7632,3.7322,3.7023,3.6569,3.6098,3.5742,3.5312,3.5091,3.4869,3.4758,3.4635,3.4524,3.4524,3.4524,3.4524,3.4524,3.4289,3.3604,3.2913,3.1988]}]]